[[{"header":{"parameterUnit":"m.s-1","parameterCategory":1,"la1":30.6,"la2":29.2853,"lo1":-89.7004,"lo2":-87.6739,"dy":0.0162,"dx":0.0183,"nx":112,"ny":82,"refTime":"2026-03-07T00:00:00:Z","depth":0,"parameterNumber":2,"parameterNumberName":"U-component_of_WINDS"},"data":[0.0,0.0,0.0,0.0,0.0,0.0,0.0,0.0,0.0,0.0,0.0,0.0,0.0,0.0,0.0,0.0,0.0,0.0,0.0,0.0,0.0,0.0,0.0,0.0,0.0,0.0,0.0,0.0,0.0,0.0,0.0,0.0,0.0,0.0,0.0,0.0,0.0,0.0,0.0,0.0,0.0,0.0,0.0,0.0,0.0,0.0,0.0,0.0,0.0,0.0,0.0,0.0,0.0,0.0,0.0,0.0,0.0,0.0,0.0,0.0,0.0,0.0,0.0,0.0,0.0,0.0,0.0,0.0,0.0,0.0,0.0,0.0,0.0,0.0,0.0,0.0,0.0,0.0,0.0,0.0,0.0,0.0,0.0,0.0,0.0,0.0,0.0,0.0,0.0,0.0,0.0,-1.7116,-1.8934,-1.9851,-1.9236,-1.7975,-1.5979,-1.304,0.0,0.0,0.0,0.0,0.0,0.0,0.0,0.0,0.0,0.0,0.0,0.0,0.0,0.0,0.0,0.0,0.0,0.0,0.0,0.0,0.0,0.0,0.0,0.0,0.0,0.0,0.0,0.0,0.0,0.0,0.0,0.0,0.0,0.0,0.0,0.0,0.0,0.0,0.0,0.0,0.0,0.0,0.0,0.0,0.0,0.0,0.0,0.0,0.0,0.0,0.0,0.0,0.0,0.0,0.0,0.0,0.0,0.0,0.0,0.0,0.0,0.0,0.0,0.0,0.0,0.0,0.0,0.0,0.0,0.0,0.0,0.0,0.0,0.0,0.0,0.0,0.0,0.0,0.0,0.0,0.0,0.0,0.0,0.0,0.0,0.0,0.0,0.0,0.0,0.0,0.0,0.0,0.0,0.0,0.0,0.0,0.0,0.0,0.0,0.0,0.0,0.0,0.0,0.0,-1.6527,-1.9517,-1.9996,-1.9715,-1.879,-1.808,-1.6536,-1.3805,0.0,0.0,0.0,0.0,0.0,0.0,0.0,0.0,0.0,0.0,0.0,0.0,0.0,0.0,0.0,0.0,0.0,0.0,0.0,0.0,0.0,0.0,0.0,0.0,0.0,0.0,0.0,0.0,0.0,0.0,0.0,0.0,0.0,0.0,0.0,0.0,0.0,0.0,0.0,0.0,0.0,0.0,0.0,0.0,0.0,0.0,0.0,0.0,0.0,0.0,0.0,0.0,0.0,0.0,0.0,0.0,0.0,0.0,0.0,0.0,0.0,0.0,0.0,0.0,0.0,0.0,0.0,0.0,0.0,0.0,0.0,0.0,0.0,0.0,0.0,0.0,0.0,0.0,0.0,0.0,0.0,0.0,0.0,0.0,0.0,0.0,0.0,0.0,0.0,0.0,0.0,0.0,0.0,0.0,0.0,0.0,0.0,0.0,0.0,0.0,0.0,0.0,0.0,-1.5642,-1.7159,-2.0133,-2.0349,-1.9954,-1.9216,-1.8676,-1.7287,-1.4675,-1.3103,0.0,0.0,0.0,0.0,0.0,0.0,0.0,0.0,0.0,0.0,0.0,0.0,0.0,0.0,0.0,0.0,0.0,0.0,0.0,0.0,0.0,0.0,0.0,0.0,0.0,0.0,0.0,0.0,0.0,0.0,0.0,0.0,0.0,0.0,0.0,0.0,0.0,0.0,0.0,0.0,0.0,0.0,0.0,0.0,0.0,0.0,0.0,0.0,0.0,0.0,0.0,0.0,0.0,0.0,0.0,0.0,0.0,0.0,0.0,0.0,0.0,0.0,0.0,0.0,0.0,0.0,0.0,0.0,0.0,0.0,0.0,0.0,0.0,0.0,0.0,0.0,0.0,0.0,0.0,0.0,0.0,0.0,0.0,0.0,0.0,0.0,0.0,0.0,0.0,0.0,0.0,0.0,0.0,0.0,0.0,0.0,0.0,0.0,0.0,0.0,0.0,0.0,-1.7162,-1.8082,-2.0285,-2.0416,-2.0167,-1.9699,-1.8827,-1.7461,-1.5514,-1.3675,0.0,0.0,0.0,0.0,0.0,0.0,0.0,0.0,0.0,0.0,0.0,0.0,0.0,0.0,0.0,0.0,0.0,0.0,0.0,0.0,0.0,0.0,0.0,0.0,0.0,0.0,0.0,0.0,0.0,0.0,0.0,0.0,0.0,0.0,0.0,0.0,0.0,0.0,0.0,0.0,0.0,0.0,0.0,0.0,0.0,0.0,0.0,0.0,0.0,0.0,0.0,0.0,0.0,0.0,0.0,0.0,0.0,0.0,0.0,0.0,0.0,0.0,0.0,0.0,0.0,0.0,0.0,0.0,0.0,0.0,0.0,0.0,0.0,0.0,0.0,0.0,0.0,0.0,0.0,0.0,0.0,0.0,0.0,0.0,0.0,0.0,0.0,0.0,0.0,0.0,0.0,0.0,0.0,0.0,0.0,0.0,0.0,0.0,0.0,0.0,0.0,0.0,-1.7282,-1.9296,-2.0469,-2.0367,-2.0105,-1.9812,-1.7816,-1.6468,-1.6225,-1.3037,0.0,0.0,0.0,0.0,0.0,0.0,0.0,0.0,0.0,0.0,0.0,0.0,0.0,0.0,0.0,0.0,0.0,0.0,0.0,0.0,0.0,0.0,0.0,0.0,0.0,0.0,0.0,0.0,0.0,0.0,0.0,0.0,0.0,0.0,0.0,0.0,0.0,0.0,0.0,0.0,0.0,0.0,0.0,0.0,0.0,0.0,0.0,0.0,0.0,0.0,0.0,0.0,0.0,0.0,0.0,0.0,0.0,0.0,0.0,0.0,0.0,0.0,0.0,0.0,0.0,0.0,0.0,0.0,0.0,0.0,0.0,0.0,0.0,0.0,0.0,0.0,0.0,0.0,0.0,0.0,0.0,0.0,0.0,0.0,0.0,0.0,0.0,0.0,0.0,0.0,0.0,0.0,0.0,0.0,0.0,0.0,0.0,0.0,0.0,0.0,0.0,0.0,-1.658,-1.8548,0.0,-2.037,-2.0254,-2.0074,-1.926,-1.7994,-1.6172,0.0,0.0,0.0,0.0,0.0,0.0,0.0,0.0,0.0,0.0,0.0,0.0,0.0,0.0,0.0,0.0,0.0,0.0,0.0,0.0,0.0,0.0,0.0,0.0,0.0,0.0,0.0,0.0,0.0,0.0,0.0,0.0,0.0,0.0,0.0,0.0,0.0,0.0,0.0,0.0,0.0,0.0,0.0,0.0,0.0,0.0,0.0,0.0,0.0,0.0,0.0,0.0,0.0,0.0,0.0,0.0,0.0,0.0,0.0,0.0,0.0,0.0,0.0,0.0,0.0,0.0,0.0,0.0,0.0,0.0,0.0,0.0,0.0,0.0,0.0,0.0,0.0,0.0,0.0,0.0,0.0,0.0,0.0,0.0,0.0,0.0,0.0,0.0,0.0,0.0,0.0,0.0,0.0,0.0,0.0,0.0,0.0,0.0,0.0,0.0,0.0,0.0,-1.4092,-1.6323,-1.8373,0.0,-2.0318,-2.0271,-2.0232,-1.9493,-1.8166,-1.6152,0.0,0.0,0.0,0.0,0.0,0.0,0.0,0.0,0.0,0.0,0.0,0.0,0.0,0.0,0.0,0.0,0.0,0.0,0.0,0.0,0.0,0.0,0.0,0.0,0.0,0.0,0.0,0.0,0.0,0.0,0.0,0.0,0.0,0.0,0.0,0.0,0.0,0.0,0.0,0.0,0.0,0.0,0.0,0.0,0.0,0.0,0.0,0.0,0.0,0.0,0.0,0.0,0.0,0.0,0.0,0.0,0.0,0.0,0.0,0.0,0.0,0.0,0.0,0.0,0.0,0.0,0.0,0.0,0.0,0.0,0.0,0.0,0.0,0.0,0.0,0.0,0.0,0.0,0.0,0.0,0.0,0.0,0.0,0.0,0.0,0.0,0.0,0.0,0.0,0.0,0.0,0.0,0.0,0.0,0.0,0.0,0.0,0.0,0.0,0.0,0.0,0.0,-1.3738,-1.6763,-1.9145,-2.0086,-2.0136,-2.0152,-2.0288,-1.7981,-1.6463,0.0,0.0,0.0,0.0,0.0,0.0,0.0,0.0,0.0,0.0,0.0,0.0,0.0,0.0,0.0,0.0,0.0,0.0,0.0,0.0,0.0,0.0,0.0,0.0,0.0,0.0,0.0,0.0,0.0,0.0,0.0,0.0,0.0,0.0,0.0,0.0,0.0,0.0,0.0,0.0,0.0,0.0,0.0,0.0,0.0,0.0,0.0,0.0,0.0,0.0,0.0,0.0,0.0,0.0,0.0,0.0,0.0,0.0,0.0,0.0,0.0,0.0,0.0,0.0,0.0,0.0,0.0,0.0,0.0,0.0,0.0,0.0,0.0,0.0,0.0,0.0,0.0,0.0,0.0,0.0,0.0,0.0,0.0,0.0,0.0,0.0,0.0,0.0,0.0,0.0,0.0,0.0,0.0,0.0,0.0,0.0,0.0,0.0,0.0,0.0,0.0,0.0,0.0,-1.3179,-1.6086,-1.845,-1.9516,-1.983,-1.9977,-2.0007,-1.8813,-1.7227,-1.5284,0.0,0.0,0.0,0.0,0.0,0.0,0.0,0.0,0.0,0.0,0.0,0.0,0.0,0.0,0.0,0.0,0.0,0.0,0.0,0.0,0.0,0.0,0.0,0.0,0.0,0.0,0.0,0.0,0.0,0.0,0.0,0.0,0.0,0.0,0.0,0.0,0.0,0.0,0.0,0.0,0.0,0.0,0.0,0.0,0.0,0.0,0.0,0.0,0.0,0.0,0.0,0.0,0.0,0.0,0.0,0.0,0.0,0.0,0.0,0.0,0.0,0.0,0.0,0.0,0.0,0.0,0.0,0.0,0.0,0.0,0.0,0.0,0.0,0.0,0.0,0.0,0.0,0.0,0.0,0.0,0.0,0.0,0.0,0.0,0.0,0.0,0.0,0.0,0.0,0.0,0.0,0.0,0.0,0.0,0.0,0.0,0.0,0.0,0.0,0.0,0.0,0.0,-1.2385,-1.5288,-1.7669,-1.8838,-1.9256,-1.9488,-1.9536,-1.844,-1.6889,-1.4908,0.0,0.0,0.0,0.0,0.0,0.0,0.0,0.0,0.0,0.0,0.0,0.0,0.0,0.0,0.0,0.0,0.0,0.0,0.0,0.0,0.0,0.0,0.0,0.0,0.0,0.0,0.0,0.0,0.0,0.0,0.0,0.0,0.0,0.0,0.0,0.0,0.0,0.0,0.0,0.0,0.0,0.0,0.0,0.0,0.0,0.0,0.0,0.0,0.0,0.0,0.0,0.0,0.0,0.0,0.0,0.0,0.0,0.0,0.0,0.0,0.0,0.0,0.0,0.0,0.0,0.0,0.0,0.0,0.0,0.0,0.0,0.0,0.0,0.0,0.0,0.0,0.0,0.0,0.0,0.0,0.0,0.0,0.0,0.0,0.0,0.0,0.0,0.0,0.0,0.0,0.0,0.0,0.0,0.0,0.0,0.0,0.0,0.0,0.0,0.0,0.0,0.0,-1.1597,-1.446,-1.6855,-1.8068,-1.8494,-1.874,-1.8836,-1.7253,-1.5788,-1.4775,0.0,0.0,0.0,0.0,0.0,0.0,0.0,0.0,0.0,0.0,0.0,0.0,0.0,0.0,0.0,0.0,0.0,0.0,0.0,0.0,0.0,0.0,0.0,0.0,0.0,0.0,0.0,0.0,0.0,0.0,0.0,0.0,0.0,0.0,0.0,0.0,0.0,0.0,0.0,0.0,0.0,0.0,0.0,0.0,0.0,0.0,0.0,0.0,0.0,0.0,0.0,0.0,0.0,0.0,0.0,0.0,0.0,0.0,0.0,0.0,-1.0672,0.0,0.0,0.0,0.0,0.0,0.0,0.0,0.0,0.0,0.0,0.0,0.0,0.0,0.0,0.0,0.0,0.0,0.0,0.0,0.0,0.0,0.0,0.0,0.0,0.0,0.0,0.0,0.0,0.0,0.0,0.0,0.0,0.0,0.0,0.0,0.0,0.0,0.0,0.0,0.0,0.0,-1.1696,-1.4059,-1.6075,-1.722,-1.7654,-1.7828,-1.7741,-1.6577,-1.5089,-1.3362,-1.1768,0.0,0.0,0.0,0.0,0.0,0.0,0.0,0.0,0.0,0.0,0.0,0.0,0.0,0.0,0.0,0.0,0.0,0.0,0.0,0.0,0.0,0.0,0.0,0.0,0.0,0.0,0.0,0.0,0.0,0.0,0.0,0.0,0.0,0.0,0.0,0.0,0.0,0.0,0.0,0.0,0.0,0.0,0.0,0.0,0.0,0.0,0.0,0.0,0.0,0.0,0.0,0.0,0.0,0.0,0.0,0.0,0.0,0.0,0.0,0.0,-1.1789,0.0,0.0,0.0,0.0,0.0,0.0,0.0,0.0,0.0,0.0,0.0,0.0,0.0,0.0,0.0,0.0,0.0,0.0,0.0,0.0,0.0,0.0,0.0,0.0,0.0,0.0,0.0,0.0,0.0,0.0,0.0,0.0,0.0,0.0,0.0,0.0,0.0,0.0,0.0,0.0,-1.2041,-1.4256,-1.6081,-1.7101,-1.7287,-1.7115,-1.6477,-1.527,-1.4192,-1.3384,-1.1678,0.0,0.0,0.0,0.0,0.0,0.0,0.0,0.0,0.0,0.0,0.0,0.0,0.0,0.0,0.0,0.0,0.0,0.0,0.0,0.0,0.0,0.0,0.0,0.0,0.0,0.0,0.0,0.0,0.0,0.0,0.0,0.0,0.0,0.0,0.0,0.0,0.0,0.0,0.0,0.0,0.0,0.0,0.0,0.0,0.0,0.0,0.0,0.0,0.0,0.0,0.0,0.0,0.0,-1.4395,-1.5053,-1.5704,-1.5821,-1.614,-1.6545,-1.5437,-1.4971,-1.4845,-1.3035,0.0,0.0,0.0,0.0,0.0,0.0,0.0,0.0,0.0,0.0,0.0,0.0,0.0,0.0,0.0,0.0,0.0,0.0,0.0,0.0,0.0,0.0,0.0,0.0,-0.656,-0.7109,0.0,0.0,0.0,0.0,0.0,0.0,0.0,0.0,0.0,0.0,0.0,0.0,-1.2719,-1.4813,-1.6468,-1.7374,-1.7386,-1.6856,-1.5707,-1.4427,-1.3736,-1.3813,-1.209,-1.1672,0.0,0.0,0.0,0.0,0.0,0.0,0.0,0.0,0.0,0.0,0.0,0.0,0.0,0.0,0.0,0.0,0.0,0.0,0.0,0.0,0.0,0.0,0.0,0.0,0.0,0.0,0.0,0.0,0.0,0.0,0.0,0.0,-0.6138,-0.6849,0.0,0.0,0.0,0.0,0.0,0.0,0.0,0.0,0.0,0.0,0.0,0.0,0.0,-0.9083,-1.0331,-1.2388,-1.3527,-1.3826,-1.6351,-1.732,-1.6886,-1.7468,-1.7798,-1.7854,-1.7677,0.0,-1.6037,-1.5277,0.0,0.0,0.0,0.0,0.0,0.0,0.0,0.0,0.0,0.0,0.0,0.0,0.0,0.0,0.0,0.0,0.0,0.0,0.0,0.0,0.0,0.0,-0.6921,-0.6036,-0.5917,-0.6287,0.0,-0.7563,-0.7577,-0.7622,-0.7644,0.0,0.0,0.0,0.0,0.0,0.0,0.0,-1.4184,-1.5754,-1.7061,-1.8067,-1.8206,-1.7745,-1.6547,-1.5676,-1.4749,-1.3624,-1.3376,-1.35,-1.4017,-1.3336,0.0,0.0,0.0,0.0,0.0,0.0,0.0,0.0,0.0,0.0,0.0,0.0,0.0,0.0,0.0,0.0,0.0,0.0,0.0,0.0,0.0,0.0,0.0,0.0,0.0,0.0,0.0,0.0,0.0,-0.5914,-0.6657,-0.736,-0.7365,-0.7089,0.0,0.0,0.0,0.0,0.0,0.0,0.0,0.0,0.0,-0.7928,-0.844,-0.919,-1.0174,-1.2214,-1.3748,-1.472,-1.6363,-1.6984,-1.6721,-1.701,-1.6957,-1.6667,-1.7315,-1.7101,-1.6284,-1.6135,-1.4597,-1.2323,0.0,0.0,0.0,0.0,-0.7557,-0.6794,-0.6954,-0.6635,0.0,-0.66,0.0,0.0,0.0,0.0,0.0,0.0,0.0,0.0,0.0,0.0,0.0,-0.4786,-0.4896,-0.5384,-0.674,-0.8018,-0.8942,0.0,-0.9835,-1.0258,-0.9627,0.0,0.0,0.0,0.0,0.0,-1.6212,-1.7454,-1.8515,-1.9446,-1.9119,-1.8377,-1.7213,-1.5846,-1.4988,-1.4863,-1.4587,-1.4825,-1.5734,-1.5226,-1.4603,0.0,0.0,0.0,0.0,0.0,0.0,0.0,0.0,0.0,0.0,0.0,0.0,0.0,0.0,0.0,0.0,0.0,0.0,0.0,0.0,0.0,0.0,0.0,0.0,0.0,0.0,0.0,0.0,-0.6381,-0.7017,-0.7703,-0.7823,-0.7586,0.0,0.0,0.0,0.0,0.0,0.0,-0.7171,-0.7785,-0.7902,-0.7416,-0.8167,-0.8933,-0.9663,-1.1607,-1.3301,-1.4744,-1.5558,-1.602,-1.6132,-1.6132,-1.5948,-1.5659,-1.6396,-1.6526,-1.6237,-1.6394,-1.5255,-1.331,-1.2707,-1.1307,-0.9573,-0.9037,-0.8188,-0.7276,-0.7145,-0.6753,-0.638,-0.6865,0.0,-0.6538,-0.6742,0.0,0.0,0.0,0.0,-0.2946,-0.3359,-0.338,-0.3496,-0.4214,-0.467,-0.54,-0.7026,-0.899,-1.0478,0.0,-1.1923,-1.2711,-1.1768,0.0,0.0,0.0,0.0,-1.5625,-1.7974,-1.8936,-1.9762,-2.0675,-2.0108,-1.9202,-1.8084,-1.6348,-1.5577,-1.6166,-1.583,-1.6177,-1.7457,-1.7096,-1.6426,-1.5509,0.0,0.0,0.0,0.0,0.0,0.0,0.0,0.0,0.0,0.0,0.0,0.0,0.0,0.0,0.0,0.0,0.0,0.0,0.0,0.0,0.0,0.0,0.0,0.0,0.0,0.0,0.0,0.0,0.0,-0.7913,-0.8492,0.0,0.0,0.0,0.0,-0.6512,-0.6165,-0.5979,-0.5989,-0.6209,-0.6319,-0.6279,-0.7237,-0.8081,-0.8756,-1.0764,-1.2149,-1.2956,-1.4181,-1.4991,-1.5357,-1.5357,-1.559,-1.5953,-1.5559,-1.5639,-1.6033,-1.6292,-1.5405,-1.3757,-1.2573,-1.147,-1.0342,-0.8733,-0.8114,-0.791,-0.6961,-0.66,-0.6703,-0.7416,-0.7254,-0.6846,-0.7235,-0.5963,0.0,0.0,-0.4134,-0.4148,-0.4362,-0.4436,-0.4584,-0.5257,-0.5977,-0.7025,-0.9017,-1.059,-1.1643,0.0,-1.3048,-1.4331,-1.5025,0.0,-1.5526,-1.635,-1.6516,-1.7241,-1.9089,-1.9704,-2.0374,-2.142,-2.1164,-2.0464,-1.9405,-1.7873,-1.6991,-1.7039,-1.7185,-1.7774,-1.8854,-1.8938,-1.8178,-1.6569,-1.4817,0.0,0.0,0.0,0.0,0.0,0.0,0.0,0.0,0.0,0.0,0.0,0.0,0.0,0.0,0.0,0.0,0.0,0.0,0.0,0.0,0.0,0.0,0.0,0.0,0.0,0.0,0.0,0.0,-0.8421,-0.8694,0.0,-0.7751,-0.7238,-0.6875,-0.6704,-0.6322,-0.6156,-0.6335,-0.6425,-0.6313,-0.5954,-0.7307,-0.7957,-0.7807,-1.0483,-1.2167,-1.2831,-1.4287,-1.5042,-1.5177,-1.5177,-1.4728,-1.4009,-1.4242,-1.3903,-1.3284,-1.3761,-1.3799,-1.346,-1.2296,-1.0833,-0.9308,-0.8716,-0.7613,-0.6373,-0.6004,-0.5601,-0.5441,-0.6615,-0.7489,-0.8024,-0.7692,-0.6431,-0.5095,-0.5041,-0.4351,-0.374,-0.4297,-0.4756,-0.5358,-0.6469,-0.7607,-0.9003,-1.0988,-1.2809,-1.4306,-1.5042,-1.5707,-1.6179,-1.633,-1.7011,-1.7474,-1.7366,-1.7697,-1.848,-1.9815,-2.0559,-2.1205,-2.1852,-2.1561,-2.1174,-2.079,-1.8745,-1.7581,-1.7791,-1.7833,-1.8062,-1.8535,-1.9396,-1.9043,-1.7277,-1.6084,-1.4245,0.0,0.0,0.0,0.0,0.0,0.0,0.0,0.0,0.0,0.0,0.0,0.0,0.0,0.0,0.0,0.0,0.0,0.0,0.0,0.0,0.0,0.0,0.0,0.0,0.0,0.0,-0.6984,-0.8052,-0.8525,-0.8495,-0.7933,-0.7403,-0.6995,-0.674,-0.6317,-0.6022,-0.5972,-0.5992,-0.5857,-0.5518,-0.7053,-0.7699,-0.7314,-1.0087,-1.1691,-1.2102,-1.3366,-1.4036,-1.4181,-1.4181,-1.3737,-1.2939,-1.3211,-1.2895,-1.2135,-1.1997,-1.2073,-1.2181,-1.1591,-1.0374,-0.8869,-0.84,-0.714,-0.5676,-0.5732,-0.5619,-0.5652,-0.6888,-0.7926,-0.8627,-0.8147,-0.7145,-0.6179,-0.6179,-0.5401,-0.4737,-0.5466,-0.5892,-0.6527,-0.8126,-0.9394,-1.0762,-1.2719,-1.4373,-1.5791,-1.6898,-1.7478,-1.7788,-1.7837,-1.8507,-1.8897,-1.8448,-1.8747,-1.934,-2.0184,-2.0895,-2.1486,-2.19,-2.1576,-2.1318,-2.1318,-1.9107,-1.7909,-1.8376,-1.815,-1.8141,-1.8458,-1.9298,-1.9065,-1.7562,-1.6139,-1.4473,-1.2537,0.0,0.0,0.0,0.0,0.0,0.0,0.0,0.0,0.0,0.0,0.0,0.0,0.0,0.0,0.0,0.0,0.0,0.0,0.0,0.0,0.0,0.0,0.0,-0.4585,-0.5882,-0.6792,-0.6828,-0.8012,-0.8711,-0.8456,-0.7993,-0.7424,-0.6717,-0.6131,-0.5497,-0.4784,-0.484,-0.4891,-0.4894,-0.6469,-0.7305,-0.731,-0.9595,-1.0737,-1.0737,-1.1431,-1.1983,-1.2409,-1.2409,-1.2627,-1.2931,-1.2557,-1.2568,-1.2769,-1.1259,-1.0377,-0.9997,-1.0451,-1.0093,-0.9121,-0.7752,-0.6733,-0.6022,-0.6164,-0.6694,-0.7467,-0.8369,-0.8669,-0.8669,-0.8698,-0.8193,-0.7626,-0.7626,-0.7438,-0.7367,-0.8042,-0.8006,-0.8292,-1.0337,-1.1353,-1.2344,-1.4301,-1.5207,-1.5971,-1.7113,-1.8165,-1.9043,-1.9584,-1.969,-1.969,-1.969,-1.969,0.0,-2.0212,-2.0682,-2.1134,-2.1536,-2.1228,-2.0991,-2.0991,-1.9008,-1.8035,-1.8721,-1.8178,-1.8107,-1.8746,-1.8747,-1.8304,-1.7439,-1.4981,-1.356,-1.3219,0.0,0.0,0.0,0.0,0.0,0.0,0.0,0.0,0.0,0.0,0.0,0.0,0.0,0.0,0.0,0.0,0.0,0.0,0.0,0.0,0.0,0.0,-0.5436,-0.5017,-0.5844,-0.6752,-0.7373,-0.8424,-0.9064,-0.8984,-0.8611,-0.8281,-0.8075,-0.6822,-0.5999,-0.5791,-0.5219,-0.4935,-0.5036,-0.6701,-0.767,-0.7806,-1.0254,-1.1503,-1.1503,-1.2286,-1.2701,-1.2838,-1.2838,-1.2577,-1.2135,-1.2012,-1.1343,-1.0287,-0.9856,-0.9237,-0.8576,-0.8908,-0.817,-0.6873,-0.6494,-0.6259,-0.6164,-0.6194,-0.7086,-0.8363,-0.9215,-0.9828,-1.0386,-1.0956,-1.0627,-1.0144,-1.067,-1.0392,-1.008,-1.0809,-1.1299,-1.1987,-1.3572,-1.4136,-1.4851,-1.6777,-1.7003,-1.7037,-1.7733,-1.8125,-1.8496,-1.9024,-1.9132,-1.9132,-1.9132,-1.9132,0.0,-1.927,-1.9989,-2.0666,-2.1118,-2.1055,-2.0991,-2.0991,-1.9734,-1.8682,-1.8034,-1.815,-1.8185,-1.8081,-1.8794,-1.877,-1.7854,-1.5499,-1.4113,0.0,0.0,0.0,0.0,0.0,0.0,0.0,0.0,0.0,0.0,0.0,0.0,0.0,0.0,0.0,0.0,0.0,0.0,0.0,0.0,0.0,0.0,-0.7483,-0.7028,-0.5967,-0.6014,-0.6335,-0.6841,-0.774,-0.8321,-0.8321,-0.8428,-0.8393,-0.8069,-0.759,-0.7153,-0.685,-0.6418,-0.6234,-0.6305,-0.7289,-0.7889,-0.7994,-0.9456,-1.0211,-1.0211,-1.0676,-1.0927,-1.0927,-1.0927,-1.0645,0.0,-1.0211,-0.9653,-0.8748,-0.8748,-0.8253,0.0,0.0,0.0,0.0,0.0,-0.6337,-0.6519,-0.7233,-0.8101,-0.9084,-1.0262,-1.0916,-1.1432,-1.2228,-1.2175,-1.1919,-1.2373,-1.2098,-1.1845,-1.2538,-1.2909,-1.3529,-1.5215,-1.5656,-1.607,-1.7442,-1.7705,-1.7618,-1.7389,-1.7781,0.0,-1.8226,-1.8419,-1.8554,-1.8554,-1.8554,-1.8554,-1.8554,-1.9405,-2.0181,-2.0634,-2.0878,-2.1055,-2.1244,-2.0115,0.0,0.0,0.0,-1.8557,-1.8111,-1.8837,0.0,0.0,0.0,0.0,0.0,0.0,0.0,0.0,-1.2303,-1.1602,0.0,0.0,0.0,0.0,0.0,0.0,0.0,0.0,0.0,0.0,0.0,0.0,0.0,0.0,0.0,0.0,-1.0033,-0.8912,-0.7201,-0.633,-0.5855,-0.5834,-0.6615,-0.716,-0.716,-0.7893,-0.8082,-0.7425,-0.8221,-0.8435,-0.7778,0.0,0.0,0.0,0.0,-0.7994,-0.7994,-0.7994,-0.8004,-0.8035,-0.8035,-0.8045,-0.8032,-0.8045,-0.8045,-0.8032,-0.8045,-0.798,-0.7907,-0.7907,-0.7428,-0.6782,-0.7544,-0.7372,-0.6719,-0.6817,-0.6915,-0.7209,-0.878,0.0,0.0,-1.1423,-1.2012,-1.2228,-1.3031,-1.3274,-1.3274,-1.3274,-1.3105,-1.3055,-1.3633,-1.3578,-1.386,-1.5872,-1.626,-1.6342,-1.7044,-1.7593,-1.7627,-1.6504,-1.7242,-1.7913,-1.7357,-1.7686,-1.7987,-1.7913,-1.7913,-1.7894,-1.782,-1.8693,-1.9522,-1.997,0.0,0.0,-2.1491,-2.0337,-1.9656,-1.9829,-1.9495,-1.9118,-1.8725,-1.8954,-1.8388,-1.6896,-1.6982,-1.7165,-1.7402,-1.7605,-1.7399,-1.6741,-1.3752,-1.2707,0.0,0.0,0.0,0.0,0.0,0.0,0.0,0.0,0.0,0.0,0.0,0.0,0.0,0.0,0.0,-1.1799,-1.144,-1.056,-0.8165,-0.6958,-0.6192,-0.5985,-0.6824,-0.7408,-0.7408,-0.7818,-0.8021,-0.7862,-0.8031,-0.8089,-0.796,-0.7969,-0.7994,-0.7994,-0.7994,-0.7994,-0.7994,-0.7994,-0.8053,-0.8168,0.0,0.0,-0.831,-0.8209,-0.8224,-0.8305,-0.8204,-0.7826,-0.7285,-0.7285,-0.7125,-0.6865,-0.6944,-0.685,-0.6785,-0.7502,-0.8188,-0.8844,-0.9172,-1.018,-1.1492,-1.2451,-1.3213,-1.3906,-1.4688,-1.4932,0.0,-1.4932,-1.4905,-1.4906,-1.5023,-1.4994,-1.5375,-1.6945,-1.6542,-1.6164,-1.7445,-1.7055,-1.6344,-1.6103,-1.6735,-1.7279,-1.7146,-1.7301,-1.7286,-1.6802,-1.6718,-1.6557,-1.6071,-1.6974,-1.7973,-1.8815,-1.9784,-2.057,-2.1071,-2.0847,-2.0353,-1.9546,-1.938,-1.9525,-1.9998,-1.9784,-1.9495,-1.9166,-1.8356,-1.7977,-1.8022,-1.7816,-1.7623,-1.7473,-1.6308,-1.5654,0.0,0.0,0.0,0.0,0.0,0.0,0.0,0.0,0.0,0.0,0.0,-1.148,-1.2892,0.0,-1.6186,-1.5049,-1.4359,-1.3105,-1.0515,-0.9015,-0.7691,-0.6349,-0.635,-0.6463,-0.6463,-0.6992,-0.734,-0.734,-0.7767,-0.7994,-0.7994,-0.7994,-0.8045,-0.8095,-0.7664,-0.7478,-0.755,-0.7108,-0.6915,-0.7011,-0.7011,-0.7022,-0.7101,-0.7014,-0.7022,-0.7101,-0.7014,-0.7061,-0.7252,-0.7743,-0.7925,-0.7921,-0.8811,-0.8426,-0.747,-0.8318,-0.8914,-0.937,-0.9786,-1.0755,-1.1919,-1.2726,-1.3545,-1.4353,-1.5167,-1.5671,-1.595,-1.595,-1.6226,-1.6489,-1.6489,-1.6226,-1.6226,-1.733,-1.6823,-1.6303,-1.7047,-1.6993,-1.6616,-1.5965,-1.6458,-1.6979,-1.707,-1.6847,-1.6598,-1.6433,-1.5909,-1.5453,-1.5151,-1.6083,-1.7146,-1.8095,-1.922,-2.0286,-2.1228,-2.1116,-2.0783,-2.0237,-2.0333,-2.0419,-2.045,-2.0413,-1.996,-1.9028,-1.8801,-1.8625,-1.8443,-1.8607,-1.8702,-1.8687,-1.8356,-1.7764,0.0,0.0,0.0,0.0,0.0,0.0,0.0,0.0,-0.7581,-0.8334,-1.0456,-1.276,-1.4611,-1.6783,-1.818,-1.7886,-1.7116,-1.5625,-1.3039,-1.144,-0.9699,-0.7455,-0.6278,-0.5591,-0.5425,-0.6042,-0.6527,-0.6687,-0.7502,-0.8112,-0.8321,-0.8316,-0.836,-0.8526,-0.7503,-0.6999,-0.7114,-0.6226,-0.5817,-0.5844,-0.5844,-0.5861,-0.5891,-0.5861,-0.5861,-0.5891,-0.6106,-0.6752,-0.7744,-0.8735,-0.9103,-0.9303,-1.1144,-1.0643,-0.9066,-0.9948,-1.0277,-1.0374,-1.1092,-1.1848,-1.264,-1.3269,-1.4013,-1.484,-1.5654,-1.633,-1.6801,-1.6878,-1.7316,-1.7756,-1.7628,-1.7174,-1.6866,-1.7468,-1.7034,-1.6492,-1.6492,-1.6866,-1.686,-1.5835,-1.6245,-1.6784,-1.6947,-1.6418,-1.5995,-1.6088,-1.5171,-1.4414,-1.4249,-1.5197,-1.6248,-1.7257,-1.8612,-1.9961,-2.1243,-2.1052,-2.0863,-2.0853,-2.1117,-2.1067,-2.0626,-2.0762,-2.0144,-1.8648,-1.9054,-1.9169,-1.8897,-1.9453,-1.9708,-1.9708,-1.9708,-1.9179,-0.943,-0.9313,-0.9341,-0.9627,-0.9332,-0.9046,0.0,0.0,-0.8296,-0.9324,-1.0909,-1.2665,-1.4494,-1.7072,-1.8555,-1.7463,-1.7764,-1.7274,-1.4775,-1.3302,-1.1889,-1.0233,-0.7986,-0.6235,-0.5462,-0.5491,-0.5881,-0.6654,-0.7502,-0.844,-0.9458,-0.9397,-0.9439,-0.9685,-0.7988,-0.7093,-0.7114,-0.6226,-0.5871,-0.5966,-0.5966,-0.6078,-0.6242,-0.6067,-0.6081,-0.6287,-0.719,-0.8132,-0.913,-0.991,-1.0217,-1.0408,-1.208,-1.2587,-1.2454,-1.34,-1.3721,-1.3762,-1.386,-1.4413,-1.509,-1.5186,-1.5755,-1.6572,-1.7441,-1.7777,-1.7894,-1.818,-1.8345,-1.8289,-1.7745,-1.755,-1.7495,-1.7578,-1.7034,-1.6492,-1.6492,-1.6065,-1.5594,-1.5458,-1.604,-1.6529,-1.656,-1.6189,-1.5733,-1.5151,-1.4195,-1.3315,-1.2648,-1.3413,-1.446,-1.5622,-1.7644,-1.9309,-2.035,-2.0401,-2.0383,-2.0379,-2.0419,-2.0591,-2.0927,-2.0577,-2.0271,-2.0066,-1.9791,-1.9626,-1.9588,-1.9663,-1.9708,-1.9708,-1.9708,-1.9627,-1.1358,-1.1285,-1.1047,0.0,-1.0464,-0.9824,-0.9436,-0.8791,-0.8502,-0.9351,-1.0779,-1.2313,-1.3826,-1.618,-1.7854,0.0,-1.8167,-1.7998,-1.6547,-1.5495,-1.4041,-1.1756,-1.0758,-0.9385,-0.7139,-0.6924,-0.7055,-0.7437,-0.7946,-0.8428,-0.893,-0.848,-0.8299,-0.8483,-0.7163,-0.6526,-0.6626,-0.6255,-0.64,-0.7064,-0.7064,-0.7403,-0.8046,-0.7963,-0.7967,-0.8084,-0.9097,-0.9777,-1.026,-1.1126,-1.1522,-1.1685,-1.3512,-1.4234,-1.4255,-1.4272,-1.4312,-1.4312,-1.4312,-1.5165,-1.617,-1.5666,-1.6713,-1.8199,-1.8047,-1.8643,-1.9433,-1.9576,-1.9918,-2.0193,-1.9937,-1.9558,-1.9026,-1.8318,-1.756,-1.6806,-1.6029,-1.5613,-1.541,-1.541,-1.5642,-1.6007,-1.6436,-1.6015,-1.5491,-1.5184,-1.4389,-1.3707,-1.3383,-1.3791,-1.4604,-1.5894,-1.7685,-1.8993,-1.9456,-1.9953,-2.0266,-2.0288,-2.0564,-2.0679,-2.0588,-2.0399,-2.0181,-1.9966,-1.9789,-1.9708,-1.9708,-1.9708,-1.9548,-1.9225,-1.9225,-1.9062,-1.2442,-1.256,0.0,-1.2404,-1.1778,-1.0982,-1.0272,-0.9565,-0.9202,-0.9686,-1.0665,-1.184,-1.3152,-1.5036,-1.6704,-1.7734,-1.8499,-1.877,-1.82,-1.7645,-1.6331,-1.3691,-1.3438,-1.243,-0.9731,-0.8792,-0.8339,-0.835,-0.86,-0.889,-0.9225,-0.8554,-0.8092,-0.8009,-0.7019,-0.6446,-0.63,-0.6567,-0.7061,-0.7821,-0.8089,-0.858,-0.9296,-0.9296,-0.9448,-0.9744,-1.049,-1.0975,-1.1273,-1.1996,-1.2305,-1.2482,-1.445,-1.5199,-1.5203,-1.5289,-1.5479,-1.5692,-1.5692,-1.6641,-1.7747,-1.7111,-1.8155,-1.9598,-1.919,-1.989,-2.083,-2.089,-2.1297,-2.1625,-2.1253,-2.075,-1.9999,-1.8617,-1.7913,-1.7197,-1.6009,-1.5674,-1.5586,-1.5586,-1.5498,-1.5584,-1.6093,-1.5748,-1.5303,-1.5041,-1.4703,-1.4334,-1.3991,-1.4324,-1.5101,-1.6448,-1.763,-1.8537,-1.9047,-1.9678,-2.0099,-2.0301,-2.0622,-2.0597,-2.0143,-2.0143,-2.0014,-1.9708,-1.9708,-1.9621,-1.9479,-1.9479,-1.9207,-1.8669,-1.8669,-1.8477,-1.1793,0.0,-1.2821,-1.3701,-1.3385,-1.2791,-1.2712,-1.1661,-1.0721,-1.0746,-1.078,-1.1233,-1.257,-1.3796,-1.5176,-1.7038,-1.8805,-1.9874,-1.9674,-1.9605,-1.8818,-1.6639,-1.5701,-1.467,0.0,-1.0737,-0.9203,-0.9268,-0.9509,-1.0132,-1.1259,-1.0685,-0.9966,-0.9281,-0.8266,-0.7284,-0.63,-0.7249,-0.7783,-0.7821,-0.8808,-0.9258,-0.9296,-0.9296,-0.982,-1.0746,-1.0783,-1.1354,-1.2261,-1.2298,-1.2305,-1.2482,-1.445,-1.5199,-1.5411,-1.7232,-1.8412,-1.9158,-1.9158,-1.9738,-2.0482,-2.045,-2.0514,-2.0705,-2.1538,-2.183,-2.192,-2.2159,-2.2255,-2.1973,-2.0601,-2.0226,-1.9808,-1.8198,-1.78,-1.7595,-1.6815,-1.6348,-1.6075,-1.6075,-1.5703,-1.541,-1.5439,-1.541,-1.5138,-1.4353,-1.4875,-1.4926,-1.3777,-1.4474,-1.5578,-1.6925,-1.7112,-1.7805,-1.9434,-1.9601,-1.9816,-2.0273,-2.0303,-2.0143,-1.9741,-1.9708,-1.9708,-1.9708,-1.9708,-1.9442,-1.893,-1.893,-1.865,-1.8125,-1.8125,-1.8125,-1.2899,0.0,-1.3277,-1.4687,-1.4499,-1.3957,-1.3926,-1.3242,-1.2354,-1.1545,-1.1778,-1.2141,-1.215,-1.3066,-1.4466,-1.6398,-1.7762,-1.9032,-2.0255,-2.0777,-2.0324,-1.84,-1.8187,0.0,0.0,0.0,0.0,-1.0954,-1.0883,-1.101,-1.1389,-1.0935,-1.0547,-1.0303,-0.9329,-0.8313,-0.7288,-0.8275,-0.8803,-0.8808,-1.0496,-1.1285,-1.1285,-1.1285,-1.1471,-1.1805,-1.1805,-1.162,-1.1316,-1.1316,-1.1316,-1.1422,-1.2713,-1.4024,-1.534,-1.6611,-1.8368,-2.0074,-1.9497,-2.0578,-2.201,-2.0951,-2.1705,-2.2912,-2.2144,-2.2261,-2.2725,-2.2822,-2.2461,-2.1916,-2.1451,-2.0903,-2.0101,-1.8659,-1.8333,-1.8019,-1.6945,-1.658,-1.6514,-1.6514,-1.6143,-1.587,-1.587,-1.5605,-1.5147,-1.4332,-1.3965,-1.3773,-1.3624,-1.3783,-1.4165,-1.4825,-1.6103,-1.762,-1.9459,-2.0699,-2.1418,-2.1488,-2.1487,-2.1073,-2.0139,-1.9839,-1.9708,-1.9708,-1.935,-1.908,-1.8893,-1.8535,-1.8086,-1.7565,-1.7565,-1.7394,-1.3203,-1.3652,-1.4109,-1.5802,-1.5928,-1.5682,-1.5682,-1.5305,-1.4626,-1.3443,-1.3434,-1.338,-1.2595,-1.2885,-1.3932,-1.6062,-1.731,-1.8769,-2.0833,-2.1648,-2.1471,-1.9874,-1.969,-1.8577,0.0,0.0,0.0,-1.1857,-1.1835,-1.173,-1.1423,-1.1352,-1.1162,-1.082,-1.0153,-0.9367,-0.8351,-0.9329,-1.0008,-1.0383,-1.1663,-1.2305,-1.2305,-1.2305,-1.2305,-1.2305,-1.2305,-1.1922,-1.1354,-1.1354,-1.1354,-1.1428,-1.2361,-1.3736,-1.5305,-1.6245,-1.8305,-2.0526,-1.9944,-2.1389,-2.3293,-2.225,-2.3187,-2.4439,-2.3135,-2.313,-2.3484,-2.3198,-2.2506,-2.1815,-2.1534,-2.0782,-1.9836,-1.8671,-1.8381,-1.8147,-1.7334,-1.7038,-1.6963,-1.6963,-1.6602,-1.6299,-1.6299,-1.5434,-1.4508,-1.3858,-1.2572,-1.2081,-1.3248,-1.327,-1.351,-1.4367,-1.595,-1.7857,-2.0035,-2.1663,-2.2614,-2.2746,-2.2556,-2.2036,-2.1089,-2.0409,-2.0049,-2.0049,-1.9301,-1.8817,-1.8612,-1.8086,-1.7544,-1.7013,-1.7013,-1.6952,-1.2644,-1.3847,-1.5148,-1.6832,-1.7538,-1.7816,-1.7855,-1.7782,-1.7394,-1.6242,-1.5594,-1.4908,0.0,0.0,-1.3652,-1.6011,-1.7435,-1.905,-2.1328,-2.2228,-2.2233,0.0,0.0,0.0,0.0,0.0,0.0,-1.2143,0.0,-1.2316,-1.1484,-1.1991,-1.1848,-1.0901,-1.0901,-1.0378,-0.9372,-1.0303,-1.1316,-1.2305,-1.2305,-1.2305,-1.2305,-1.2305,-1.2305,-1.2305,-1.2305,-1.2268,-1.2224,-1.2224,-1.2224,-1.2298,-1.32,-1.425,-1.533,-1.6245,-1.8277,-2.056,-2.0658,-2.2267,-2.4292,-2.4292,-2.4794,-2.5259,-2.4567,-2.4321,-2.4147,-2.3365,-2.2537,-2.169,-2.0814,-1.9944,-1.9077,-1.8202,-1.8008,-1.8008,-1.8008,-1.7695,-1.7422,-1.7422,-1.7061,-1.6726,-1.6634,-1.4961,-1.3445,-1.2876,-1.0808,-1.0161,-1.2504,-1.2797,-1.3518,-1.5311,-1.6581,-1.8436,-2.1153,-2.2532,-2.344,-2.3916,-2.3442,-2.2926,-2.243,-2.133,-2.0748,-2.0748,-1.9574,-1.8711,-1.8189,-1.7618,-1.7083,-1.6588,-1.6588,-1.692,-1.2405,-1.339,-1.4418,-1.6179,-1.7335,-1.8107,-1.847,-1.8972,-1.8994,-1.7591,-1.722,-1.6533,0.0,0.0,0.0,-1.6103,-1.7039,0.0,-2.0695,-2.1562,0.0,-2.1452,0.0,-2.068,-1.9598,-1.867,0.0,0.0,-1.3375,-1.2416,-1.1814,-1.2104,-1.2187,-1.1922,-1.1922,-1.1428,-1.0415,-1.0671,-1.1316,-1.2305,-1.2305,-1.2305,-1.2305,-1.2305,-1.2305,-1.2305,-1.2305,-1.1879,-1.1162,-1.1162,-1.1162,-1.1199,-1.1452,-1.3227,-1.5668,-1.5922,-1.775,-2.0217,-2.1273,-2.281,-2.4292,-2.4292,-2.4794,-2.537,-2.5175,-2.4738,-2.4263,-2.406,-2.2967,-2.169,-2.0814,-1.9944,-1.9077,-1.8202,-1.8008,-1.8008,-1.8008,-1.793,-1.7852,-1.7852,-1.751,-1.6873,-1.5845,-1.4724,-1.338,-1.1668,-1.0373,-0.9723,-1.0135,-1.0223,-1.1272,-1.3969,-1.6352,-1.9091,-2.2362,-2.4253,-2.5056,-2.4593,-2.4156,-2.3444,-2.2381,-2.1769,-2.1455,-2.1455,-2.0253,-1.9593,-1.9445,-1.844,-1.7903,-1.7777,-1.7777,-1.8104,-1.1277,-1.2838,-1.4371,-1.5475,-1.7025,-1.827,-1.8302,-1.9218,-1.9767,-1.8746,-1.8438,0.0,-1.5791,0.0,0.0,0.0,0.0,0.0,-1.9742,-2.0984,-2.168,0.0,-2.1615,0.0,-1.9948,-1.9379,-1.7955,0.0,-1.407,-1.3031,-1.1964,-1.2144,-1.2305,-1.2305,-1.2305,-1.2033,-1.1465,-1.1465,-1.1731,-1.2305,-1.2305,-1.2371,-1.2536,-1.2536,-1.2572,-1.2699,0.0,-1.2387,-1.1839,-1.1839,-1.1839,-1.1916,-1.2386,-1.3945,-1.6034,-1.6533,-1.8471,-2.0917,-2.174,-2.3105,-2.465,-2.5328,-2.607,-2.6624,-2.6384,-2.6022,-2.5517,-2.4547,-2.3361,-2.2108,-2.0899,-2.0236,-1.9562,-1.8303,-1.8303,-1.8462,-1.8076,-1.7681,-1.7251,-1.6862,-1.6927,-1.6606,-1.5181,-1.4279,-1.3002,-1.0734,-0.9751,-0.8961,-0.8296,-0.9157,-1.1107,-1.444,-1.7188,-2.0077,-2.3301,-2.5256,-2.6118,-2.5662,-2.5021,-2.4322,-2.3601,-2.2655,-2.2149,-2.2149,-2.0937,-2.0195,-1.9901,-1.9031,-1.8598,-1.8598,-1.8598,-1.9061,-0.9656,-1.1858,-1.4086,-1.4314,-1.6141,-1.7778,-1.7371,-1.8536,-1.9615,-1.9336,0.0,-1.8526,-1.6864,-1.5823,-1.5118,-1.4832,0.0,-1.746,-1.8573,-2.0237,-2.1352,-2.1433,-2.1498,-2.0976,-1.9616,-1.914,-1.7769,-1.4942,-1.4547,-1.3689,-1.2031,-1.2164,-1.2378,-1.2482,-1.2372,-1.2392,-1.2543,-1.2432,-1.2385,-1.2425,-1.2425,-1.2559,-1.2844,-1.2844,-1.2991,-1.3213,0.0,0.0,-1.3213,-1.3213,-1.3213,-1.3325,-1.4382,-1.5427,-1.6446,-1.7717,-1.9759,-2.1975,-2.2284,-2.341,-2.498,-2.6529,-2.7547,-2.8083,-2.7706,-2.7603,-2.7197,-2.515,-2.3966,-2.2907,-2.1215,-2.0782,-2.0333,-1.8596,-1.8754,-1.9044,-1.8202,-1.7251,-1.6315,-1.5376,-1.586,-1.5965,-1.4639,-1.3801,-1.2557,-1.0263,-0.9305,-0.8554,-0.7637,-0.9252,-1.1966,-1.5764,-1.8493,-2.1243,-2.4184,-2.5772,-2.659,-2.6505,-2.5617,-2.5067,-2.4989,-2.358,-2.2823,-2.2823,-2.1708,-2.0862,-2.0281,-1.9728,-1.9457,-1.9457,-1.9457,-2.0057,-0.8112,-0.9646,-1.113,-1.1513,-1.3169,-1.4753,-1.5004,-1.6405,0.0,0.0,-1.8709,-1.8762,-1.713,-1.6548,-1.6084,-1.5385,0.0,0.0,0.0,0.0,-1.9689,0.0,0.0,0.0,0.0,0.0,0.0,0.0,0.0,-1.3367,-1.2298,-1.2271,-1.2666,-1.3419,-1.2703,-1.282,-1.3857,-1.312,-1.2837,-1.3053,-1.3053,-1.308,-1.3126,-1.3126,-1.316,-1.3213,-1.3213,0.0,-1.3213,-1.3213,-1.3213,-1.3325,-1.4382,-1.5615,-1.7024,-1.892,-2.043,-2.179,-2.3778,-2.4434,-2.4579,-2.5738,-2.6701,-2.7474,-2.7997,-2.8209,-2.7939,-2.6452,-2.5453,-2.4343,-2.2209,-2.1659,-2.1239,-1.9497,-1.9177,-1.9044,-1.8202,-1.7251,-1.6315,-1.5376,-1.534,-1.5103,-1.4022,-1.3727,-1.2892,-1.0772,-1.0343,-1.0367,-1.0724,-1.063,-1.2028,-1.609,-1.9076,-2.2115,-2.541,-2.5944,-2.5943,-2.5486,-2.4875,-2.4348,-2.39,-2.3597,-2.343,-2.343,-2.2746,-2.2318,-2.2206,-2.1569,-2.1252,-2.1252,-2.1252,-2.1648,-0.6363,-0.7634,-0.8985,-0.8887,-1.0154,-1.154,-1.2051,0.0,0.0,0.0,-1.702,-1.7502,-1.6739,0.0,0.0,0.0,0.0,0.0,0.0,0.0,0.0,0.0,0.0,0.0,0.0,0.0,0.0,0.0,0.0,-1.328,-1.2342,-1.2305,-1.2739,-1.3673,-1.3273,-1.3682,-1.5036,-1.4597,-1.4244,-1.4045,-1.4045,-1.3822,-1.3393,-1.3393,-1.352,-1.3667,-1.3667,0.0,-1.3667,-1.3667,-1.4022,-1.461,-1.5673,-1.6873,-1.825,-2.027,-2.1681,-2.2728,-2.4411,-2.5189,-2.5521,-2.6031,-2.6776,-2.7565,-2.8001,-2.8465,-2.8483,-2.6651,-2.6191,-2.5691,-2.3342,-2.3063,-2.2955,-2.1219,-2.0422,-1.9607,-1.7942,-1.7219,-1.6431,-1.474,-1.4414,-1.4099,-1.3135,-1.2989,-1.2634,-1.1599,-1.1439,-1.1997,-1.3502,-1.4341,-1.5841,-1.8506,-2.1428,-2.4003,-2.5999,-2.6409,-2.6171,-2.5256,-2.4712,-2.4287,-2.4032,-2.3745,-2.3595,-2.3595,-2.3312,-2.3009,-2.2694,-2.2369,-2.2216,-2.2216,-2.2216,-2.2552,-0.4381,-0.5392,-0.6616,-0.6109,-0.7077,-0.8365,-0.9082,-1.0632,0.0,0.0,-1.5121,-1.599,-1.6209,0.0,0.0,0.0,0.0,0.0,0.0,0.0,0.0,0.0,0.0,0.0,0.0,0.0,0.0,0.0,0.0,0.0,-1.2342,-1.2305,-1.287,-1.4097,-1.3952,-1.4655,-1.6331,-1.6146,-1.5688,-1.5005,-1.524,-1.4757,-1.3693,-1.3933,-1.4062,-1.4088,-1.4088,0.0,0.0,-1.4088,-1.4615,-1.5504,-1.6805,-1.7971,-1.9237,-2.1476,-2.2962,-2.3963,-2.4957,-2.5838,-2.6499,-2.6499,-2.704,-2.7742,-2.7886,-2.853,-2.8812,-2.6685,-2.6599,-2.662,-2.4369,-2.4308,-2.4406,-2.2853,-2.162,-2.0215,-1.8101,-1.7478,-1.6664,-1.4367,-1.3954,-1.3601,-1.2591,-1.2398,-1.2446,-1.2512,-1.2694,-1.3668,-1.6034,-1.8376,-2.0407,-2.1968,-2.4233,-2.592,-2.6635,-2.6971,-2.6669,-2.5524,-2.4947,-2.465,-2.465,-2.4118,-2.3819,-2.3819,-2.367,-2.3377,-2.2875,-2.2875,-2.2875,-2.2875,-2.2875,-2.3143,-0.1894,-0.2394,-0.3241,-0.2772,-0.3914,-0.5474,-0.6577,0.0,0.0,-1.2237,-1.3752,-1.4944,-1.5862,0.0,0.0,0.0,0.0,-1.4245,0.0,0.0,0.0,0.0,0.0,0.0,0.0,0.0,0.0,0.0,0.0,0.0,-1.2318,-1.2305,-1.333,-1.5524,-1.4774,-1.5538,-1.8053,-1.7226,-1.6381,-1.5647,-1.6587,-1.6006,-1.4084,-1.5052,-1.4991,-1.4088,-1.4088,0.0,0.0,-1.4088,-1.4166,-1.4454,-1.6486,-1.7929,-1.9206,-2.2227,-2.4,-2.5004,-2.6013,-2.6418,-2.6499,-2.6499,-2.704,-2.769,-2.7736,-2.8346,-2.8732,-2.7232,-2.6882,-2.6585,-2.5082,-2.4755,-2.4549,-2.3613,-2.2058,-2.0511,-1.9344,-1.844,-1.7219,-1.5096,-1.4704,-1.4269,-1.2974,-1.2744,-1.2948,-1.3475,-1.4241,-1.5701,-1.8347,-2.1294,-2.3994,-2.6199,-2.6774,-2.7287,-2.7883,-2.7543,-2.6999,-2.6324,-2.5781,-2.549,-2.549,-2.4852,-2.4515,-2.4515,-2.3924,-2.3573,-2.3508,-2.3508,-2.3508,-2.3508,-2.3508,-2.3551,-0.0892,-0.0212,0.0,-0.0179,-0.1077,-0.24,-0.4264,0.0,-0.8216,-1.052,-1.2087,-1.3459,-1.4801,-1.527,0.0,0.0,0.0,0.0,0.0,0.0,0.0,0.0,0.0,0.0,0.0,0.0,0.0,0.0,0.0,0.0,-1.2616,-1.2746,-1.3832,-1.5968,-1.5675,-1.6716,-1.925,-1.8889,-1.8348,-1.769,-1.8109,-1.7504,-1.6041,-1.6486,-1.6445,-1.6,-1.5345,0.0,0.0,-1.437,-1.4859,-1.6124,-1.6976,-1.8687,-2.0968,-2.2818,-2.4156,-2.5146,-2.6129,-2.6499,-2.6499,-2.6499,-2.6714,-2.6973,-2.6973,-2.7571,-2.7998,-2.6958,-2.7012,-2.7144,-2.6084,-2.5799,-2.5598,-2.4628,-2.3851,-2.2818,-2.0948,-1.9829,-1.8658,-1.7006,-1.5672,-1.4641,-1.4091,-1.3993,-1.438,-1.545,-1.6841,-1.8938,-2.2199,-2.439,-2.6492,-2.8763,-2.9033,-2.8844,-2.8329,-2.8416,-2.7763,-2.6039,-2.6054,-2.5986,-2.5615,-2.5337,-2.5187,-2.5187,-2.453,-2.4194,-2.4216,-2.4194,-2.4194,-2.4216,-2.4194,-2.4201,0.0233,0.1569,0.2269,0.1671,0.0575,-0.0885,0.0,-0.5143,-0.7258,-0.9381,-1.0819,-1.2232,-1.392,-1.4575,-1.5112,-1.5941,0.0,-1.4252,0.0,0.0,0.0,0.0,0.0,0.0,0.0,0.0,0.0,0.0,0.0,0.0,0.0,-1.3612,-1.4543,-1.5893,-1.6538,-1.7767,-1.9631,-1.9946,-1.9745,-1.8997,-1.9323,-1.8709,-1.7293,-1.7666,-1.7626,-1.7261,0.0,0.0,0.0,-1.5019,-1.5628,-1.7302,-1.7302,-1.9201,-2.2098,-2.3136,-2.4337,-2.5546,-2.6233,-2.6499,-2.6499,-2.6499,-2.6499,-2.6499,-2.6499,-2.6905,-2.7229,-2.6658,-2.6905,-2.7196,-2.6658,-2.6692,-2.6667,-2.5975,-2.558,-2.492,-2.3212,-2.1676,-2.0185,-1.8901,-1.7252,-1.5912,-1.5498,-1.5413,-1.5934,-1.7397,-1.896,-2.1255,-2.4792,-2.6498,-2.8132,-3.0074,-3.0456,-3.0137,-2.9054,-2.9186,-2.8511,-2.6578,-2.668,-2.6634,-2.6207,-2.6004,-2.5884,-2.5901,-2.525,-2.4897,-2.4905,-2.4897,-2.4889,-2.49,-2.4902,-2.4903,0.1857,0.293,0.3251,0.2638,0.0678,-0.1502,0.0,-0.5213,-0.7296,-0.9035,-1.0155,-1.1426,-1.3443,-1.4189,-1.4822,-1.5841,-1.5207,0.0,0.0,0.0,0.0,0.0,0.0,0.0,0.0,0.0,0.0,0.0,0.0,0.0,0.0,-1.4909,-1.5539,-1.5305,-1.7367,-1.8668,-1.9027,-2.007,-2.0079,-1.8997,-2.0079,-1.9432,-1.7334,-1.847,-1.835,0.0,0.0,0.0,0.0,-1.615,-1.6314,-1.7302,-1.7302,-1.9194,-2.203,-2.3103,-2.4767,-2.6499,-2.6499,-2.6499,-2.6499,-2.6499,-2.6499,-2.6499,-2.6499,-2.6499,-2.6499,-2.6499,-2.6499,-2.6499,-2.6499,-2.7095,-2.767,-2.767,-2.6971,-2.6276,-2.623,-2.4005,-2.1666,-2.0574,-1.9612,-1.8497,-1.7106,-1.6884,-1.7433,-1.9047,-2.019,-2.2075,-2.5375,-2.725,-2.8816,-3.0149,-3.0838,-3.0938,-3.0335,-2.9739,-2.9118,-2.8519,-2.7929,-2.7595,-2.757,-2.6941,-2.6591,-2.6582,-2.5923,-2.559,-2.5589,-2.559,-2.5588,-2.5577,-2.558,-2.56,-0.0158,0.112,0.1828,0.1215,-0.0206,-0.1871,-0.3537,-0.5559,-0.7537,-0.9128,-1.0214,-1.1271,-1.26,-1.3753,-1.4865,-1.6027,-1.5842,0.0,0.0,0.0,0.0,0.0,0.0,0.0,0.0,0.0,0.0,0.0,0.0,0.0,0.0,-1.5468,-1.6573,-1.6677,-1.8087,-1.9233,-2.0079,-2.044,-2.045,-2.0079,-2.044,-2.0235,-1.955,-1.9923,0.0,0.0,0.0,0.0,0.0,-1.7253,-1.7455,-1.847,-1.847,-1.9886,-2.2087,-2.3136,-2.4337,-2.5581,-2.6267,-2.6499,-2.6499,-2.6499,-2.6499,-2.6499,-2.6499,-2.6499,-2.6499,-2.6499,-2.6499,-2.6624,-2.7196,-2.7517,-2.7855,-2.846,-2.7894,-2.7072,-2.6425,-2.4566,-2.2728,-2.1694,-2.0139,-1.885,-1.8413,-1.8885,-1.9745,-2.1135,-2.3717,-2.624,-2.8316,-2.9669,-3.065,-3.1264,-3.1257,-3.0975,-3.0351,-3.0123,-2.9761,-2.9157,-2.8927,-2.8662,-2.8238,-2.8011,-2.7697,-2.729,-2.6624,-2.6271,-2.6273,-2.6296,-2.6281,-2.6282,-2.627,-2.629,-0.2921,-0.1541,-0.0741,-0.1592,-0.2728,-0.3916,-0.492,-0.6593,-0.8222,-0.9289,-1.0253,-1.1206,-1.2218,-1.3541,-1.4798,-1.5697,-1.6124,0.0,0.0,0.0,0.0,0.0,0.0,0.0,0.0,0.0,0.0,0.0,0.0,0.0,0.0,-1.5913,-1.7223,-1.7931,-1.9036,-1.9717,-2.0001,-2.0401,-2.0605,-2.0605,-2.0605,-2.0605,-2.0605,-2.0972,0.0,0.0,0.0,0.0,0.0,-1.839,-1.859,-1.9559,-1.9155,-2.0226,-2.2103,-2.3147,-2.4156,-2.5146,-2.6129,-2.6499,-2.6499,-2.6499,-2.6499,-2.6499,-2.6499,-2.6499,-2.6499,-2.6499,-2.6499,-2.6624,-2.7129,-2.7484,-2.7835,-2.8363,-2.8084,-2.7557,-2.6971,-2.5379,-2.3891,-2.3257,-2.1817,-2.0691,-2.0702,-2.1175,-2.2096,-2.3565,-2.5971,-2.8264,-3.0139,-3.0979,-3.1554,-3.195,-3.1519,-3.1055,-3.0679,-3.0435,-3.0145,-2.9761,-2.9518,-2.9227,-2.8849,-2.8615,-2.8323,-2.7946,-2.7294,-2.699,-2.699,-2.6976,-2.6969,-2.6969,-2.6969,-2.6982,0.0,-0.4945,-0.4239,-0.5375,-0.6424,-0.716,-0.7165,-0.8242,0.0,-0.9611,-1.0388,-1.131,-1.2283,-1.3563,-1.4637,-1.5169,0.0,0.0,0.0,0.0,0.0,0.0,0.0,0.0,0.0,0.0,0.0,0.0,0.0,0.0,0.0,-1.6363,-1.7591,-1.8948,-2.004,-2.0079,-1.8997,-2.0001,-2.045,-2.0362,-2.045,-2.0489,-2.0527,-2.1403,0.0,0.0,0.0,0.0,0.0,-1.952,-1.9678,-2.0489,-1.9481,-2.0275,-2.2027,-2.3036,-2.4036,-2.504,-2.606,-2.6452,-2.6499,-2.6555,-2.6589,-2.6589,-2.6589,-2.6555,-2.6499,-2.6499,-2.6499,-2.6499,-2.6555,-2.7129,-2.7736,-2.7769,-2.7769,-2.7703,-2.7703,-2.6227,-2.4898,-2.4981,-2.4131,-2.3427,-2.3503,-2.3597,-2.4294,-2.6127,-2.7271,-2.8771,-3.1032,-3.1499,-3.1831,-3.2374,-3.1782,-3.1345,-3.1278,-3.0675,-3.0314,-3.0356,-2.9783,-2.9473,-2.946,-2.8919,-2.8622,-2.8561,-2.7961,-2.764,-2.76,-2.76,-2.76,-2.76,-2.76,-2.76,-1.0451,0.0,-0.7607,-0.81,-0.8484,-0.8939,0.0,-1.0147,-1.0623,-1.1151,-1.1715,-1.2321,-1.297,-1.3615,-1.4644,0.0,0.0,0.0,0.0,0.0,0.0,0.0,0.0,0.0,0.0,0.0,0.0,0.0,0.0,0.0,0.0,-1.6803,-1.8082,-1.8979,-2.004,-2.0079,-1.8997,-1.9234,-1.8957,-1.8101,-1.8957,-1.9362,-1.9362,-1.962,0.0,0.0,0.0,0.0,-2.0566,-2.0323,-2.0362,-2.0566,-2.0323,-2.0508,-2.1039,-2.2,-2.2999,-2.4,-2.5004,-2.5873,-2.6589,-2.7229,-2.7417,-2.7417,-2.7417,-2.7007,-2.6499,-2.6499,-2.6499,-2.6658,-2.7263,-2.7571,-2.7855,-2.8524,-2.8182,-2.7703,-2.7703,-2.5671,-2.4072,-2.4862,-2.3568,-2.2589,-2.3371,-2.4708,-2.5993,-2.705,-2.9508,-3.1536,-3.2521,-3.3301,-3.3748,-3.3677,-3.3205,-3.2635,-3.2102,-3.0974,-3.0497,-3.0975,-3.0435,-3.0103,-3.0076,-2.9946,-2.9663,-2.9204,-2.8591,-2.8072,-2.76,-2.76,-2.76,-2.76,-2.76,-2.76,-1.1511,-1.1669,-1.1538,-1.168,-1.1907,-1.2067,-1.1963,-1.1763,-1.1623,0.0,0.0,0.0,0.0,0.0,0.0,0.0,0.0,0.0,0.0,0.0,0.0,0.0,0.0,0.0,0.0,0.0,0.0,0.0,0.0,0.0,0.0,-1.8285,-1.98,-2.1269,-2.1609,-2.111,-1.9756,-1.9717,-1.9432,-1.8829,-1.9432,-1.9717,-1.9756,-2.0197,-2.0207,0.0,0.0,0.0,-1.9116,-1.9638,-1.9883,-1.9923,-2.0401,-2.0605,-2.0712,-2.1669,-2.2627,-2.3624,-2.4636,-2.5664,-2.6624,-2.7451,-2.7703,-2.7769,-2.8182,-2.7703,-2.6973,-2.6589,-2.6499,-2.6474,-2.6458,-2.6799,-2.7149,-2.7152,-2.7157,-2.7162,-2.7162,-2.5963,-2.5028,-2.5581,-2.4801,-2.4368,-2.5253,-2.628,-2.7343,-2.8604,-3.0544,-3.219,-3.3188,-3.3759,-3.4091,-3.4281,-3.3758,-3.3245,-3.2828,-3.2147,-3.1561,-3.1224,-3.0898,-3.0712,-3.0717,-3.045,-3.0022,-2.9403,-2.8801,-2.8339,-2.8017,-2.7725,-2.76,-2.76,-2.76,-2.76,-1.1338,-1.3304,-1.5052,-1.4761,-1.5057,-1.5089,-1.3849,0.0,0.0,0.0,0.0,0.0,0.0,0.0,0.0,0.0,0.0,0.0,0.0,0.0,0.0,0.0,0.0,0.0,0.0,0.0,0.0,0.0,0.0,0.0,0.0,-2.0676,-2.2411,-2.4393,-2.4118,-2.3228,-2.1778,-2.1387,-2.1113,-2.0949,-2.1113,-2.1133,-2.1038,-2.1807,-2.1189,0.0,0.0,0.0,-1.7617,-1.8598,-1.8917,-1.8838,-1.9756,-2.0196,-2.043,-2.1239,-2.228,-2.3441,-2.46,-2.5664,-2.6658,-2.7571,-2.7887,-2.8051,-2.8939,-2.8684,-2.7887,-2.6939,-2.6589,-2.6314,-2.5441,-2.5873,-2.628,-2.5441,-2.5873,-2.6521,-2.6658,-2.6571,-2.6562,-2.6829,-2.6773,-2.6926,-2.7748,-2.8,-2.8591,-3.008,-3.0991,-3.1974,-3.3275,-3.3587,-3.39,-3.4454,-3.4037,-3.3696,-3.3578,-3.3571,-3.2986,-3.1611,-3.1419,-3.1331,-3.119,-3.0718,-3.016,-2.9549,-2.903,-2.8722,-2.8647,-2.8127,-2.7836,-2.7725,-2.7725,-2.7695,-1.2416,-1.4665,-1.6143,-1.4661,-1.4887,-1.5269,-1.4518,-1.3993,0.0,0.0,0.0,0.0,0.0,0.0,0.0,0.0,0.0,0.0,0.0,0.0,0.0,0.0,0.0,0.0,0.0,0.0,0.0,0.0,0.0,0.0,0.0,-2.4599,-2.5825,-2.6518,-2.7073,-2.7215,-2.6961,-2.4866,-2.3367,-2.2465,-2.3367,-2.347,-2.2798,-2.2944,-2.2492,0.0,0.0,-2.0604,-1.8758,-1.8917,-1.843,-1.7585,-1.7738,-1.839,-1.9274,-1.9423,-2.0643,-2.2515,-2.4373,-2.5664,-2.6748,-2.8298,-2.8812,-2.8971,-2.9858,-3.0011,-2.9566,-2.7953,-2.704,-2.6452,-2.6314,-2.6383,-2.6452,-2.6314,-2.6383,-2.6679,-2.7384,-2.6898,-2.6771,-2.8333,-2.7941,-2.7661,-2.8639,-2.9405,-2.9995,-3.0256,-3.1514,-3.2503,-3.2714,-3.3736,-3.4482,-3.4572,-3.5003,-3.5003,-3.4376,-3.4314,-3.3969,-3.3122,-3.2474,-3.1839,-3.1244,-3.1103,-3.0788,-3.0177,-3.0068,-2.976,-2.9255,-2.9169,-2.886,-2.8354,-2.8354,-2.8087,-1.1824,-1.391,-1.5525,-1.4729,-1.6086,-1.7407,-1.6615,-1.6008,0.0,0.0,0.0,0.0,0.0,0.0,0.0,0.0,0.0,0.0,0.0,0.0,0.0,0.0,0.0,0.0,0.0,0.0,0.0,0.0,0.0,0.0,0.0,0.0,-2.7753,-2.8807,-2.9453,-3.0317,-3.1428,-3.0312,-2.837,-2.5658,-2.6174,-2.6205,-2.5848,-2.5848,-2.5127,-2.3851,0.0,-2.2124,-2.033,-1.9907,-1.9446,-1.8924,-1.8412,-1.8559,-1.9076,-1.9582,-2.071,-2.2291,-2.4301,-2.53,-2.6,-2.7743,-2.862,-2.916,-3.0042,-3.0299,-3.0133,-2.9317,-2.8149,-2.6926,-2.5931,-2.6094,-2.6474,-2.6411,-2.6765,-2.739,-2.8225,-2.806,-2.8014,-2.8839,-2.8624,-2.8615,-2.9543,-3.0033,-3.0446,-3.0865,-3.1544,-3.2146,-3.2561,-3.3439,-3.4199,-3.4565,-3.5206,-3.5476,-3.5133,-3.5077,-3.46,-3.3456,-3.3073,-3.2738,-3.2403,-3.1998,-3.1664,-3.1402,-3.0665,-3.017,-2.9883,-2.9546,-2.9265,-2.8984,-2.8984,-2.8646,-1.1727,-1.3374,-1.4871,-1.5171,0.0,-1.8729,-1.803,-1.7408,0.0,0.0,0.0,0.0,0.0,0.0,0.0,0.0,0.0,0.0,0.0,0.0,0.0,0.0,0.0,0.0,0.0,0.0,0.0,0.0,0.0,0.0,0.0,0.0,-2.9832,-3.0975,-3.167,-3.2739,-3.4239,-3.4532,-3.3014,-2.9753,-2.9753,-2.9623,-2.9421,-2.9421,-2.8468,-2.6764,-2.5987,-2.4575,-2.2767,-2.1929,-2.1333,-2.0797,-1.9684,-1.9158,-1.9103,-2.009,-2.1096,-2.2246,-2.4018,-2.479,-2.5346,-2.7345,-2.846,-2.9192,-3.0269,-3.0584,-3.0554,-3.0359,-2.9348,-2.7926,-2.6352,-2.6526,-2.7048,-2.6945,-2.7491,-2.8237,-2.9118,-2.9287,-2.938,-2.9563,-2.9597,-2.9789,-3.047,-3.0597,-3.0794,-3.1395,-3.1511,-3.1702,-3.2279,-3.3083,-3.3795,-3.4292,-3.5117,-3.56,-3.56,-3.56,-3.5123,-3.3987,-3.3744,-3.3584,-3.3407,-3.2876,-3.2553,-3.2562,-3.156,-3.1033,-3.1016,-3.0567,-3.0272,-3.0131,-3.0129,-2.9789,-1.3527,-1.4417,-1.5081,-1.6264,-1.7015,-1.7409,-1.7217,-1.6887,0.0,-1.6994,0.0,0.0,0.0,0.0,0.0,0.0,0.0,0.0,0.0,0.0,0.0,0.0,0.0,0.0,0.0,0.0,0.0,0.0,0.0,0.0,0.0,0.0,0.0,-3.2829,-3.3885,-3.434,-3.4108,-3.5238,-3.5374,-3.4615,-3.4615,-3.4167,-3.3371,-3.3371,-3.2412,-3.0658,-3.011,-2.8698,-2.6705,-2.5599,-2.4066,-2.2268,-2.0652,-1.9587,-1.9145,-2.0186,-2.1199,-2.2167,-2.3215,-2.4219,-2.544,-2.8076,-2.8939,-2.9286,-3.0925,-3.1409,-3.1248,-3.0524,-3.0208,-2.9889,-2.8957,-2.878,-2.8812,-2.8798,-2.8862,-2.9146,-3.0036,-3.0199,-3.0418,-3.1176,-3.1322,-3.1336,-3.1393,-3.1409,-3.1409,-3.1482,-3.1511,-3.1511,-3.1569,-3.274,-3.3618,-3.3668,-3.4832,-3.56,-3.56,-3.56,-3.5554,-3.5458,-3.4813,-3.4114,-3.3434,-3.3362,-3.3338,-3.3319,-3.3233,-3.3179,-3.3179,-3.3127,-3.2824,-3.2293,-3.2276,-3.1947,-1.3088,-1.4061,-1.502,-1.5919,-1.7221,0.0,0.0,-1.9363,-1.9686,-2.0284,-2.06,0.0,0.0,0.0,0.0,0.0,0.0,0.0,0.0,0.0,0.0,0.0,0.0,0.0,0.0,0.0,0.0,0.0,0.0,0.0,0.0,0.0,0.0,-3.3353,-3.3794,-3.4323,-3.4959,-3.5417,-3.5968,-3.6595,-3.6482,-3.5943,-3.5111,-3.5673,-3.5292,-3.418,-3.3465,-3.2446,-3.1192,-2.9622,-2.8362,-2.7147,-2.4495,-2.2683,-2.1597,-2.1374,-2.1963,-2.2991,-2.3388,-2.4166,-2.536,-2.7491,-2.8556,-2.9223,-3.0389,-3.1087,-3.1438,-3.1117,-3.1058,-3.0748,-2.9348,-2.9002,-2.9129,-2.9659,-2.9814,-3.0054,-3.0881,-3.1043,-3.1146,-3.1439,-3.1839,-3.2108,-3.2108,-3.2451,-3.2585,-3.2177,-3.2487,-3.2443,-3.1599,-3.3098,-3.406,-3.365,-3.4801,-3.56,-3.56,-3.56,-3.56,-3.56,-3.5329,-3.506,-3.479,-3.4343,-3.4091,-3.4087,-3.3625,-3.3393,-3.3393,-3.3412,-3.329,-3.3066,-3.3045,-3.2744,-1.3067,-1.3942,-1.496,-1.5634,0.0,0.0,-2.07,-2.122,-2.1663,-2.2637,-2.2939,0.0,0.0,0.0,0.0,0.0,0.0,0.0,0.0,0.0,0.0,0.0,0.0,0.0,0.0,0.0,0.0,0.0,0.0,0.0,0.0,0.0,0.0,0.0,-3.333,-3.383,-3.4548,-3.5074,-3.5675,-3.634,-3.6987,-3.7112,-3.6808,-3.7399,-3.7398,-3.6867,-3.617,-3.5566,-3.4984,-3.3355,-3.2,-3.0706,-2.8052,-2.6049,-2.4541,-2.3711,-2.3793,-2.4376,-2.4648,-2.5218,-2.6081,-2.7933,-2.8926,-2.9566,-3.0419,-3.1058,-3.1553,-3.1768,-3.2017,-3.1981,-3.1028,-3.0463,-3.0391,-3.144,-3.1678,-3.1901,-3.2671,-3.2854,-3.2852,-3.2841,-3.3049,-3.3193,-3.3197,-3.3366,-3.3352,-3.2885,-3.3224,-3.3178,-3.2258,-3.3782,-3.4863,-3.4631,-3.5206,-3.56,-3.56,-3.56,-3.56,-3.56,-3.56,-3.56,-3.56,-3.5133,-3.4863,-3.4863,-3.4359,-3.4091,-3.4091,-3.4091,-3.4097,-3.4088,-3.4088,-3.3854,-1.3844,-1.4288,-1.4975,0.0,0.0,0.0,-2.173,-2.1922,-2.2054,-2.3519,0.0,-2.4618,0.0,0.0,0.0,0.0,0.0,0.0,0.0,0.0,0.0,0.0,0.0,0.0,0.0,0.0,0.0,0.0,0.0,0.0,0.0,0.0,0.0,0.0,-3.2713,-3.2968,-3.2517,-3.4156,-3.4601,-3.3844,-3.6299,-3.7915,-3.8689,-3.8689,-3.8707,-3.8658,-3.815,-3.7893,-3.7807,-3.6617,-3.4666,-3.2301,-3.0899,-2.9316,-2.7793,-2.7303,-2.6728,-2.6285,-2.7193,-2.7528,-2.7842,-2.969,-3.0315,-3.0464,-3.1278,-3.1524,-3.1653,-3.241,-3.315,-3.3885,-3.4521,-3.3682,-3.299,-3.4362,-3.47,-3.4901,-3.5641,-3.5792,-3.5808,-3.5808,-3.522,-3.4726,-3.4701,-3.406,-3.3528,-3.352,-3.3532,-3.3516,-3.3522,-3.4805,-3.5979,-3.6706,-3.6107,-3.56,-3.56,-3.56,-3.56,-3.56,-3.56,-3.56,-3.56,-3.56,-3.56,-3.56,-3.56,-3.56,-3.56,-3.56,-3.56,-3.56,-3.56,-3.56,-1.3816,-1.4633,0.0,-1.6278,0.0,0.0,0.0,-2.321,0.0,0.0,0.0,0.0,0.0,0.0,0.0,0.0,0.0,0.0,0.0,0.0,0.0,0.0,0.0,0.0,0.0,0.0,0.0,0.0,0.0,0.0,0.0,0.0,0.0,0.0,-3.2567,-3.2793,-3.2999,-3.3493,-3.4051,-3.4656,-3.5389,-3.6193,-3.7055,-3.8193,-3.8707,-3.8692,-3.853,-3.8465,-3.8399,-3.7666,-3.665,-3.5487,-3.4683,-3.341,-3.1894,-3.0707,-3.021,-2.9989,-2.922,-2.9395,-3.0149,-3.1322,-3.1723,-3.1862,-3.2738,-3.2971,-3.3134,-3.3863,-3.4228,-3.4686,-3.587,-3.6181,-3.6075,-3.5588,-3.5482,-3.553,-3.5765,-3.5792,-3.5808,-3.5808,-3.5991,-3.6004,-3.5431,-3.5523,-3.5351,-3.4347,-3.4605,-3.511,-3.5693,-3.5728,-3.5982,-3.6729,-3.6593,-3.6214,-3.5656,-3.56,-3.56,-3.56,-3.56,-3.56,-3.56,-3.56,-3.56,-3.56,-3.56,-3.56,-3.56,-3.56,-3.56,-3.56,-3.56,-3.56,-1.4453,-1.5351,0.0,-1.7264,-1.9622,-2.2167,-2.3968,0.0,0.0,0.0,0.0,0.0,0.0,0.0,0.0,0.0,0.0,0.0,0.0,0.0,0.0,0.0,0.0,0.0,0.0,0.0,0.0,0.0,0.0,0.0,0.0,0.0,0.0,0.0,-3.2144,-3.2349,-3.2631,-3.3014,-3.3571,-3.428,-3.4769,-3.5279,-3.5844,-3.7147,-3.7918,-3.8212,-3.8212,-3.8395,-3.8658,-3.835,-3.7977,-3.7559,-3.7016,-3.607,-3.491,-3.3786,-3.3128,-3.2657,-3.1778,-3.1713,-3.213,-3.2655,-3.2819,-3.2922,-3.3454,-3.3806,-3.4172,-3.4891,-3.5529,-3.6326,-3.7652,-3.8472,-3.8646,-3.7375,-3.7242,-3.7469,-3.7776,-3.7647,-3.7553,-3.7792,-3.7711,-3.7478,-3.7004,-3.6751,-3.6317,-3.5465,-3.5422,-3.5906,-3.701,-3.6521,-3.6506,-3.7567,-3.7143,-3.6593,-3.6124,-3.578,-3.56,-3.56,-3.56,-3.56,-3.56,-3.56,-3.56,-3.56,-3.56,-3.56,-3.56,-3.56,-3.56,-3.56,-3.56,-3.56,-1.5279,0.0,0.0,0.0,0.0,0.0,0.0,0.0,0.0,0.0,0.0,0.0,0.0,0.0,0.0,0.0,0.0,0.0,0.0,0.0,0.0,0.0,0.0,0.0,0.0,0.0,0.0,0.0,0.0,0.0,0.0,0.0,0.0,-3.119,-3.1547,-3.1752,-3.1807,-3.2679,-3.3169,0.0,-3.4359,-3.4931,-3.5041,-3.5899,-3.6703,-3.7382,-3.7382,-3.786,-3.8597,-3.8597,-3.8634,-3.8643,-3.8167,-3.7604,-3.7005,-3.647,-3.5581,-3.4619,-3.4582,-3.4242,-3.386,-3.3871,-3.3868,-3.3867,-3.3868,-3.4422,-3.5168,-3.5852,-3.7112,-3.8514,-3.9669,-4.0532,-4.0776,-3.9525,-3.9629,-4.0162,-4.0856,-4.0601,-4.0368,-4.0827,-3.9924,-3.9041,-3.8906,-3.7748,-3.6763,-3.6631,-3.5973,-3.6053,-3.76,-3.7214,-3.7352,-3.8841,-3.7818,-3.6973,-3.6899,-3.6158,-3.5707,-3.5707,-3.5656,-3.56,-3.56,-3.56,-3.56,-3.56,-3.56,-3.56,-3.56,-3.56,-3.56,-3.56,-3.56,-3.56,-1.4054,-1.5297,0.0,0.0,0.0,0.0,0.0,0.0,0.0,0.0,0.0,0.0,0.0,0.0,0.0,0.0,0.0,0.0,0.0,0.0,0.0,0.0,0.0,0.0,0.0,0.0,0.0,0.0,0.0,0.0,0.0,0.0,0.0,-3.119,-3.1291,-3.147,-3.1807,-3.2366,-3.2842,0.0,-3.3775,-3.438,-3.5041,-3.5899,-3.6376,-3.656,-3.656,-3.7,-3.7768,-3.7768,-3.812,-3.8692,-3.8562,-3.8449,-3.8245,-3.7715,-3.7341,-3.7072,-3.6706,-3.6237,-3.5801,-3.5783,-3.5804,-3.5795,-3.5801,-3.6646,-3.7767,-3.8482,-3.9363,-4.0311,-4.1141,-4.1842,-4.2116,-4.1363,-4.1283,-4.1406,-4.1564,-4.153,-4.1331,-4.0972,-4.0676,-4.0129,-3.9076,-3.8634,-3.8001,-3.6795,-3.5959,-3.6056,-3.7596,-3.766,-3.7945,-3.89,-3.8706,-3.8285,-3.7723,-3.6973,-3.6537,-3.6537,-3.5943,-3.56,-3.56,-3.56,-3.56,-3.56,-3.56,-3.56,-3.56,-3.56,-3.56,-3.56,-3.56,-3.56,0.0,0.0,0.0,0.0,0.0,0.0,0.0,0.0,0.0,0.0,0.0,0.0,0.0,0.0,0.0,0.0,0.0,0.0,0.0,0.0,0.0,0.0,0.0,0.0,0.0,0.0,0.0,0.0,0.0,0.0,0.0,-3.119,-3.119,-3.119,-3.119,-3.131,-3.1507,-3.195,-3.24,-3.2874,-3.3317,-3.3727,-3.4164,-3.5209,-3.5665,-3.5665,-3.5665,-3.6156,-3.696,-3.7345,-3.7749,-3.8157,-3.856,-3.8707,-3.8655,-3.8386,-3.8117,-3.7875,-3.7618,-3.7194,-3.6731,-3.6494,-3.6566,-3.6732,-3.6472,-3.7579,-3.9014,-3.9388,-4.0332,-4.1392,-4.2048,-4.2461,-4.2696,-4.2629,-4.2415,-4.2223,-4.2223,-4.2,-4.1789,-4.1768,-4.1296,-4.0671,-3.9977,-3.9332,-3.8525,-3.7355,-3.6847,-3.7023,-3.817,-3.8317,-3.8631,-3.9438,-3.9211,-3.884,-3.8455,-3.7753,-3.7326,-3.733,-3.6939,-3.6701,-3.6701,-3.6701,-3.6339,-3.56,-3.56,-3.56,-3.56,-3.56,-3.56,-3.56,-3.56,-3.56,0.0,0.0,0.0,0.0,0.0,0.0,0.0,0.0,0.0,0.0,0.0,0.0,0.0,0.0,0.0,0.0,0.0,0.0,0.0,0.0,0.0,0.0,0.0,0.0,0.0,0.0,0.0,0.0,0.0,0.0,-3.1312,-3.1249,-3.119,-3.119,-3.119,-3.119,-3.119,-3.1603,-3.2039,-3.2501,-3.3045,-3.3302,-3.3339,-3.4276,-3.4686,-3.4686,-3.4686,-3.5223,-3.6138,-3.696,-3.7364,-3.7584,-3.8395,-3.8707,-3.8707,-3.8707,-3.842,-3.8044,-3.8044,-3.7721,-3.725,-3.6801,-3.6954,-3.7255,-3.6951,-3.8231,-3.98,-3.9942,-4.0999,-4.2221,-4.2721,-4.284,-4.2939,-4.3392,-4.316,-4.2845,-4.2845,-4.2442,-4.2206,-4.2616,-4.1746,-4.0903,-4.0903,-3.9792,-3.869,-3.8092,-3.7892,-3.8064,-3.8799,-3.8909,-3.922,-4.0011,-3.9539,-3.9194,-3.9194,-3.8514,-3.8092,-3.8094,-3.7957,-3.7906,-3.7906,-3.79,-3.7303,-3.6038,-3.587,-3.5746,-3.56,-3.56,-3.56,-3.56,-3.56,-3.56,0.0,0.0,0.0,0.0,0.0,0.0,0.0,0.0,0.0,0.0,0.0,0.0,0.0,0.0,0.0,0.0,0.0,0.0,0.0,0.0,0.0,0.0,0.0,0.0,0.0,0.0,0.0,0.0,0.0,0.0,-3.1716,-3.1389,-3.119,-3.119,-3.119,-3.119,-3.119,-3.1603,-3.2039,-3.2517,-3.3328,-3.3721,-3.3707,-3.3531,-3.3436,-3.3436,-3.3436,-3.4098,-3.5243,-3.6101,-3.6868,-3.7584,-3.8395,-3.8707,-3.8707,-3.8707,-3.8637,-3.86,-3.86,-3.8253,-3.7792,-3.7718,-3.7763,-3.7913,-3.8544,-3.9748,-4.1039,-4.1732,-4.2573,-4.3286,-4.3375,-4.3375,-4.341,-4.3479,-4.3444,-4.3392,-4.3392,-4.3321,-4.316,-4.277,-4.1746,-4.0903,-4.0903,-3.9792,-3.8881,-3.8772,-3.8206,-3.8064,-3.8799,-3.8909,-3.922,-4.0011,-4.0003,-3.9944,-3.9944,-3.9286,-3.8858,-3.8857,-3.8254,-3.7903,-3.7903,-3.7894,-3.781,-3.7594,-3.6975,-3.6305,-3.56,-3.56,-3.56,-3.56,-3.56,-3.56,-1.3035,0.0,0.0,0.0,0.0,0.0,0.0,0.0,0.0,0.0,0.0,0.0,0.0,0.0,0.0,0.0,0.0,0.0,0.0,0.0,0.0,0.0,0.0,0.0,0.0,0.0,0.0,0.0,0.0,-3.2466,-3.2213,-3.177,-3.1545,-3.1545,-3.1329,-3.119,-3.119,-3.1603,-3.2161,-3.2905,-3.3522,-3.368,-3.3465,-3.3273,-3.3317,-3.3522,-3.3302,-3.3891,-3.5078,-3.5936,-3.6776,-3.7584,-3.8395,-3.8707,-3.8707,-3.8707,-3.8707,-3.8707,-3.8707,-3.8563,-3.829,-3.8016,-3.8094,-3.8436,-3.8952,-4.0047,-4.1258,-4.2075,-4.2869,-4.3515,-4.3515,-4.3515,-4.3515,-4.3515,-4.3515,-4.3515,-4.3515,-4.3515,-4.3339,-4.2789,-4.2,-4.1291,-4.0972,-4.0152,-3.9584,-3.9584,-3.9305,-3.9226,-3.9516,-3.9573,-3.9711,-4.0045,-4.0096,-4.0096,-4.0096,-3.98,-3.9615,-3.9615,-3.9303,-3.9135,-3.9135,-3.9134,-3.893,-3.8526,-3.7392,-3.6616,-3.6265,-3.5802,-3.56,-3.56,-3.56,-3.56,0.0,0.0,0.0,0.0,0.0,0.0,0.0,0.0,0.0,0.0,0.0,0.0,0.0,0.0,0.0,0.0,0.0,0.0,0.0,0.0,0.0,0.0,0.0,0.0,0.0,0.0,0.0,0.0,0.0,-3.3045,-3.2697,-3.223,-3.1969,-3.1969,-3.1677,-3.1524,-3.1524,-3.195,-3.25,-3.3199,-3.3606,-3.3634,-3.3346,-3.3243,-3.3422,-3.3793,-3.3375,-3.3764,-3.4784,-3.5862,-3.6652,-3.7309,-3.8303,-3.8707,-3.8707,-3.8707,-3.8707,-3.8707,-3.8707,-3.8707,-3.8627,-3.8242,-3.8374,-3.881,-3.9414,-4.0314,-4.1313,-4.2333,-4.3034,-4.3515,-4.3515,-4.3515,-4.3515,-4.3515,-4.3515,-4.3515,-4.3515,-4.3515,-4.3392,-4.2976,-4.2422,-4.1832,-4.1228,-4.0672,-4.0254,-4.0121,-4.0096,-4.0096,-4.0096,-4.0096,-4.0096,-4.0096,-4.0096,-4.0096,-4.0096,-4.0096,-4.0096,-4.0096,-4.0096,-4.0096,-4.0096,-4.0096,-3.9841,-3.9285,-3.8029,-3.7166,-3.6814,-3.6203,-3.5785,-3.56,-3.56,-3.56,0.0,0.0,0.0,0.0,0.0,0.0,0.0,0.0,0.0,0.0,0.0,0.0,0.0,0.0,0.0,0.0,0.0,0.0,0.0,0.0,0.0,0.0,0.0,0.0,0.0,0.0,0.0,0.0,0.0,-3.3199,-3.3169,-3.2713,-3.2467,-3.2467,-3.2451,-3.2434,-3.2434,-3.2887,-3.3136,-3.3199,-3.3606,-3.3793,-3.3748,-3.3375,-3.3422,-3.3793,-3.3375,-3.3455,-3.399,-3.5624,-3.6321,-3.6523,-3.8083,-3.8707,-3.8707,-3.8707,-3.8707,-3.8707,-3.8707,-3.8707,-3.8692,-3.8676,-3.8676,-3.8985,-4.0529,-4.1042,-4.1425,-4.3001,-4.3478,-4.3515,-4.3515,-4.3515,-4.3515,-4.3515,-4.3515,-4.3515,-4.3515,-4.3515,-4.3479,-4.3462,-4.3014,-4.246,-4.1853,-4.1268,-4.0679,-4.0196,-4.0096,-4.0096,-4.0096,-4.0096,-4.0096,-4.0096,-4.0096,-4.0096,-4.0096,-4.0096,-4.0096,-4.0096,-4.0096,-4.0096,-4.0096,-4.0096,-4.0079,-4.0028,-3.9285,-3.8199,-3.6808,-3.6746,-3.6349,-3.56,-3.56,-3.56,0.0,0.0,0.0,0.0,0.0,0.0,0.0,0.0,0.0,0.0,0.0,0.0,0.0,0.0,0.0,0.0,0.0,0.0,0.0,0.0,0.0,0.0,0.0,0.0,0.0,0.0,0.0,0.0,0.0,0.0,-3.2046,-3.2123,-3.2169,-3.2169,-3.24,-3.2648,-3.2952,-3.3124,-3.3332,-3.3578,-3.3734,-3.3807,-3.3807,-3.3652,-3.3666,-3.3775,-3.3652,-3.3959,-3.4656,-3.5826,-3.6597,-3.718,-3.8267,-3.8707,-3.8707,-3.8707,-3.8707,-3.8707,-3.8707,-3.8707,-3.8707,-3.8707,-3.9056,-3.9662,-4.0765,-4.1462,-4.2103,-4.3185,-4.3515,-4.3515,-4.3515,-4.3515,-4.3515,-4.3515,-4.3515,-4.3515,-4.3515,-4.3515,-4.3515,-4.3515,-4.3087,-4.25,-4.1895,-4.1313,-4.0726,-4.0179,-4.0096,-4.0096,-4.0096,-4.0096,-4.0096,-4.0096,-4.0096,-4.0096,-4.0096,-4.0096,-4.0096,-4.0096,-4.0096,-4.0096,-4.0096,-4.0096,-4.0096,-4.0096,-3.9841,-3.9206,-3.8205,-3.775,-3.7121,-3.6378,-3.6378,-3.6107,-1.2496,0.0,0.0,0.0,0.0,0.0,0.0,0.0,0.0,0.0,0.0,0.0,0.0,0.0,0.0,0.0,0.0,0.0,0.0,0.0,0.0,0.0,0.0,0.0,0.0,0.0,0.0,0.0,0.0,0.0,-3.1397,-3.1659,-3.1923,-3.2182,-3.2424,-3.282,-3.3408,-3.339,-3.3536,-3.3807,-3.3807,-3.3807,-3.3807,-3.3807,-3.3807,-3.3807,-3.3807,-3.41,-3.4692,-3.5826,-3.6611,-3.7199,-3.8285,-3.8707,-3.8707,-3.8707,-3.8707,-3.8707,-3.8707,-3.8707,-3.8707,-3.8707,-3.9239,-4.0047,-4.0857,-4.1645,-4.247,-4.3276,-4.3515,-4.3515,-4.3515,-4.3515,-4.3515,-4.3515,-4.3515,-4.3515,-4.3515,-4.3515,-4.3515,-4.3515,-4.3214,-4.2789,-4.2203,-4.1771,-4.1251,-4.0477,-4.038,-4.0292,-4.0121,-4.0096,-4.0096,-4.0096,-4.0096,-4.0096,-4.0096,-4.0096,-4.0096,-4.0096,-4.0096,-4.0096,-4.0096,-4.0096,-4.0096,-4.0096,-4.0096,-3.9876,-3.9379,-3.8622,-3.7894,-3.7178,-3.7178,-3.6735,0.0,0.0,0.0,0.0,0.0,0.0,0.0,0.0,0.0,0.0,0.0,0.0,0.0,0.0,0.0,0.0,0.0,0.0,0.0,0.0,0.0,0.0,0.0,0.0,0.0,0.0,0.0,0.0,0.0,-3.1329,-3.1342,-3.136,-3.1733,-3.2528,-3.2564,-3.2963,-3.3752,-3.3752,-3.377,-3.3807,-3.3807,-3.3807,-3.3807,-3.3807,-3.3807,-3.3807,-3.3807,-3.3807,-3.3935,-3.5569,-3.6266,-3.645,-3.8046,-3.8689,-3.8707,-3.8707,-3.8707,-3.8707,-3.8707,-3.8707,-3.8707,-3.8707,-3.9258,-4.0084,-4.0857,-4.168,-4.2506,-4.3277,-4.3515,-4.3515,-4.3515,-4.3515,-4.3515,-4.3515,-4.3515,-4.3515,-4.3515,-4.3515,-4.3515,-4.3515,-4.3515,-4.3339,-4.2788,-4.2711,-4.2289,-4.1063,-4.0906,-4.0718,-4.0162,-4.0096,-4.0096,-4.0096,-4.0096,-4.0096,-4.0096,-4.0096,-4.0096,-4.0096,-4.0096,-4.0096,-4.0096,-4.0096,-4.0096,-4.0096,-4.0096,-4.0096,-4.0096,-3.9377,-3.8655,-3.7925,-3.7908,-3.7529,-1.2644,0.0,0.0,0.0,0.0,0.0,0.0,0.0,0.0,0.0,0.0,0.0,0.0,0.0,0.0,0.0,0.0,0.0,0.0,0.0,0.0,0.0,0.0,0.0,0.0,0.0,0.0,0.0,-2.9048,-2.9349,-2.9654,-3.0228,-3.0889,-3.1715,-3.1733,-3.2118,-3.2913,-3.2931,-3.322,-3.3807,-3.3807,-3.3807,-3.3807,-3.3807,-3.3807,-3.3807,-3.3807,-3.3807,-3.388,-3.4931,-3.5734,-3.6395,-3.7437,-3.8193,-3.8707,-3.8707,-3.8707,-3.8707,-3.8707,-3.8707,-3.8707,-3.8707,-3.9643,-4.0802,-4.1022,-4.2066,-4.3221,-4.3441,-4.3515,-4.3515,-4.3515,-4.3515,-4.3515,-4.3515,-4.3515,-4.3515,-4.3515,-4.3515,-4.3515,-4.3515,-4.3515,-4.3322,-4.2799,-4.2688,-4.2289,-4.1063,-4.0894,-4.07,-4.018,-4.0096,-4.0096,-4.0096,-4.0096,-4.0096,-4.0096,-4.0096,-4.0096,-4.0096,-4.0096,-4.0096,-4.0096,-4.0096,-4.0096,-4.0096,-4.0096,-4.0096,-4.0096,-3.991,-3.942,-3.8679,-3.8159,-3.7787,-1.3641,0.0,0.0,0.0,0.0,0.0,0.0,-1.6173,0.0,0.0,0.0,0.0,0.0,0.0,0.0,0.0,0.0,0.0,0.0,0.0,0.0,0.0,0.0,0.0,0.0,0.0,0.0,-2.7261,-2.7994,-2.8577,-2.8982,-2.9445,-3.0081,-3.087,-3.0889,-3.1292,-3.21,-3.2417,-3.2839,-3.3311,-3.3642,-3.3807,-3.3807,-3.3807,-3.3807,-3.3807,-3.3807,-3.3807,-3.3812,-3.4118,-3.506,-3.6376,-3.7199,-3.7988,-3.8707,-3.8707,-3.8707,-3.8707,-3.8707,-3.8707,-3.8707,-3.8707,-3.957,-4.0671,-4.1003,-4.1992,-4.3057,-4.3423,-4.3515,-4.3515,-4.3515,-4.3515,-4.3515,-4.3515,-4.3515,-4.3515,-4.3515,-4.3515,-4.3515,-4.3515,-4.3515,-4.3393,-4.3085,-4.3031,-4.2627,-4.1466,-4.127,-4.0989,-4.0205,-4.0096,-4.0096,-4.0096,-4.0096,-4.0096,-4.0096,-4.0096,-4.0096,-4.0096,-4.0096,-4.0096,-4.0096,-4.0096,-4.0096,-4.0096,-4.0096,-4.0096,-4.0096,-4.0096,-3.9893,-3.943,-3.8696,-3.8345,-1.4912,-1.5208,0.0,0.0,0.0,0.0,-1.6772,-1.6443,0.0,0.0,0.0,0.0,0.0,0.0,0.0,0.0,0.0,0.0,0.0,0.0,0.0,0.0,0.0,0.0,0.0,-2.5749,-2.632,-2.6505,-2.7645,-2.8502,-2.887,-2.8917,-2.927,-2.9966,-3.0003,-3.0412,-3.1268,-3.2025,-3.247,-3.2601,-3.3421,-3.3807,-3.3807,-3.3807,-3.3807,-3.3807,-3.3807,-3.3807,-3.3762,-3.3361,-3.4385,-3.6282,-3.7011,-3.7821,-3.8627,-3.8692,-3.8707,-3.8692,-3.8627,-3.8611,-3.8611,-3.8546,-3.9079,-3.9882,-4.0688,-4.1527,-4.24,-4.3259,-4.3515,-4.3515,-4.3515,-4.3515,-4.3515,-4.3515,-4.3515,-4.3515,-4.3515,-4.3515,-4.3515,-4.3515,-4.3515,-4.3479,-4.3424,-4.3406,-4.3005,-4.1861,-4.1692,-4.1315,-4.0237,-4.0096,-4.0096,-4.0096,-4.0096,-4.0096,-4.0096,-4.0096,-4.0096,-4.0096,-4.0096,-4.0096,-4.0096,-4.0096,-4.0096,-4.0096,-4.0096,-4.0096,-4.0096,-4.0096,-4.0096,-4.0096,-3.943,-3.9125,-1.6815,-1.684,-1.6814,-1.6396,0.0,0.0,0.0,-1.4797,0.0,0.0,0.0,0.0,0.0,0.0,0.0,0.0,0.0,0.0,0.0,0.0,0.0,0.0,0.0,0.0,0.0,-2.4303,-2.5149,-2.6404,-2.7445,-2.8037,-2.8106,-2.8373,-2.86,-2.8744,-2.8744,-2.9282,-3.043,-3.0964,-3.1692,-3.2601,-3.3421,-3.3807,-3.3807,-3.3807,-3.3807,-3.3807,-3.3807,-3.3807,-3.3762,-3.3361,-3.4168,-3.5695,-3.5905,-3.683,-3.8099,-3.8546,-3.8707,-3.8643,-3.82,-3.8065,-3.798,-3.7614,-3.8041,-3.8827,-3.9575,-4.0668,-4.1905,-4.3154,-4.3515,-4.3515,-4.3515,-4.3515,-4.3515,-4.3515,-4.3515,-4.3515,-4.3515,-4.3515,-4.3515,-4.3515,-4.3515,-4.3369,-4.2932,-4.286,-4.2442,-4.1262,-4.107,-4.0844,-4.0199,-4.0096,-4.0096,-4.0096,-4.0096,-4.0096,-4.0096,-4.0096,-4.0096,-4.0096,-4.0096,-4.0096,-4.0096,-4.0096,-4.0096,-4.0096,-4.0096,-4.0096,-4.0096,-4.0096,-4.0096,-4.0096,-3.9944,-3.9884,-1.7121,-1.7243,-1.741,-1.7076,0.0,0.0,0.0,0.0,0.0,0.0,0.0,0.0,0.0,0.0,0.0,0.0,0.0,0.0,0.0,0.0,0.0,0.0,0.0,0.0,0.0,-2.3004,-2.4055,-2.5863,-2.6647,-2.7306,-2.788,-2.8061,-2.8156,-2.8156,-2.8156,-2.8527,-2.9277,-2.9934,-3.0843,-3.2008,-3.2816,-3.3421,-3.3807,-3.3807,-3.3807,-3.3807,-3.3807,-3.3807,-3.3748,-3.3121,-3.3521,-3.4628,-3.5337,-3.632,-3.7472,-3.8368,-3.8707,-3.8627,-3.8082,-3.7893,-3.7825,-3.7341,-3.7457,-3.8006,-3.9138,-4.0521,-4.1803,-4.2457,-4.2876,-4.3116,-4.3103,-4.3305,-4.3515,-4.3515,-4.3515,-4.3515,-4.3515,-4.3287,-4.3113,-4.3113,-4.2858,-4.2665,-4.2682,-4.2454,-4.1941,-4.1029,-4.0919,-4.0752,-4.0165,-4.0096,-4.0096,-4.0096,-4.0096,-4.0096,-4.0096,-4.0096,-4.0096,-4.0096,-4.0096,-4.0096,-4.0096,-4.0096,-4.0096,-4.0096,-4.0096,-4.0096,-4.0096,-4.0096,-4.0096,-4.0096,-4.0096,-4.0096,0.0,0.0,0.0,0.0,0.0,-1.6353,0.0,0.0,0.0,0.0,0.0,0.0,0.0,0.0,0.0,0.0,0.0,0.0,0.0,0.0,0.0,0.0,0.0,0.0,0.0,-2.1942,-2.3048,-2.504,-2.5417,-2.6125,-2.7385,-2.7525,-2.7638,-2.7779,-2.7779,-2.795,-2.8303,-2.9017,-3.003,-3.1296,-3.212,-3.2952,-3.3807,-3.3807,-3.3807,-3.3807,-3.3807,-3.3807,-3.3734,-3.295,-3.2921,-3.3526,-3.4906,-3.5951,-3.6812,-3.8188,-3.8627,-3.8465,-3.7964,-3.7702,-3.7524,-3.7058,-3.6989,-3.7396,-3.8906,-4.0309,-4.1464,-4.1715,-4.2158,-4.2543,-4.266,-4.303,-4.3369,-4.3479,-4.3515,-4.348,-4.3376,-4.2999,-4.2672,-4.2555,-4.2053,-4.1789,-4.2259,-4.1955,-4.1443,-4.0832,-4.0791,-4.0641,-4.015,-4.0096,-4.0096,-4.0096,-4.0096,-4.0096,-4.0096,-4.0096,-4.0096,-4.0096,-4.0096,-4.0096,-4.0096,-4.0096,-4.0096,-4.0096,-4.0096,-4.0096,-4.0096,-4.0096,-4.0096,-4.0096,-4.0096,-4.0096,0.0,0.0,0.0,0.0,-1.8027,0.0,0.0,0.0,0.0,0.0,0.0,0.0,0.0,0.0,0.0,0.0,0.0,0.0,0.0,0.0,0.0,0.0,0.0,0.0,0.0,0.0,-2.2288,-2.3951,-2.3565,-2.4035,-2.5771,-2.6195,-2.6685,-2.7346,-2.7363,-2.756,-2.7936,-2.8406,-2.9407,-3.0971,-3.1763,-3.2729,-3.3807,-3.3807,-3.3807,-3.3807,-3.3807,-3.3807,-3.3762,-3.3302,-3.2925,-3.2766,-3.4355,-3.5438,-3.631,-3.8041,-3.8399,-3.7929,-3.7433,-3.6962,-3.6481,-3.5946,-3.6264,-3.7075,-3.8408,-3.936,-4.0257,-4.1453,-4.1864,-4.2024,-4.2558,-4.275,-4.2914,-4.3387,-4.3515,-4.3376,-4.2893,-4.2731,-4.2537,-4.1995,-4.1405,-4.1013,-4.1091,-4.1032,-4.0815,-4.0282,-4.0201,-4.019,-4.0104,-4.0096,-4.0096,-4.0096,-4.0096,-4.0096,-4.0096,-4.0096,-4.0096,-4.0096,-4.0096,-4.0096,-4.0096,-4.0096,-4.0096,-4.0096,-4.0096,-4.0096,-4.0096,-4.0096,-4.0096,-4.0096,-4.0096,-4.0096,0.0,0.0,0.0,0.0,0.0,0.0,0.0,0.0,-1.6129,0.0,0.0,0.0,0.0,0.0,0.0,0.0,0.0,0.0,0.0,0.0,0.0,0.0,0.0,0.0,0.0,0.0,0.0,0.0,0.0,-2.3044,-2.4881,-2.5529,-2.5998,-2.6306,-2.6733,-2.7147,-2.7545,-2.7724,-2.8708,-3.0505,-3.111,-3.2121,-3.3465,-3.3694,-3.3807,-3.3807,-3.3807,-3.3807,-3.3762,-3.3361,-3.2919,-3.266,-3.4234,-3.5049,-3.5563,-3.7219,-3.786,-3.779,-3.7001,-3.66,-3.6291,-3.5783,-3.6411,-3.753,-3.8065,-3.904,-4.0089,-4.0662,-4.1052,-4.1337,-4.1597,-4.2183,-4.2768,-4.2987,-4.326,-4.3358,-4.2814,-4.2403,-4.2,-4.138,-4.081,-4.0442,-4.0442,-4.0442,-4.0349,-4.013,-4.0096,-4.0096,-4.0096,-4.0096,-4.0096,-4.0096,-4.0096,-4.0096,-4.0096,-4.0096,-4.0096,-4.0096,-4.0096,-4.0096,-4.0096,-4.0096,-4.0096,-4.0096,-4.0096,-4.0096,-4.0096,-4.0096,-4.0096,-4.0096,-4.0096,-4.0096,-1.9106,0.0,0.0,0.0,0.0,0.0,0.0,0.0,0.0,0.0,0.0,0.0,0.0,0.0,0.0,0.0,0.0,0.0,0.0,0.0,0.0,0.0,0.0,0.0,0.0,0.0,0.0,0.0,0.0,0.0,-2.4103,-2.4898,-2.5389,-2.5592,-2.6319,-2.6841,-2.7131,-2.7131,-2.8007,-2.9744,-3.0276,-3.1368,-3.2907,-3.3285,-3.3504,-3.3638,-3.349,-3.3447,-3.3419,-3.3121,-3.2729,-3.2457,-3.4023,-3.4657,-3.4924,-3.6736,-3.7433,-3.7397,-3.6805,-3.6437,-3.6118,-3.5717,-3.6518,-3.7635,-3.7838,-3.8792,-3.985,-4.0045,-4.0391,-4.0722,-4.0849,-4.1555,-4.2261,-4.241,-4.2878,-4.3085,-4.2359,-4.198,-4.1571,-4.0832,-4.0368,-4.0096,-4.0096,-4.0096,-4.0096,-4.0096,-4.0096,-4.0096,-4.0096,-4.0096,-4.0096,-4.0096,-4.0096,-4.0096,-4.0096,-4.0096,-4.0096,-4.0096,-4.0096,-4.0096,-4.0096,-4.0096,-4.0096,-4.0096,-4.0096,-4.0096,-4.0096,-4.0096,-4.0096,-4.0096,-4.0096,-4.0096,0.0,0.0,0.0,-1.8072,0.0,0.0,0.0,0.0,-1.6681,0.0,0.0,0.0,0.0,0.0,0.0,0.0,0.0,0.0,0.0,0.0,0.0,0.0,0.0,0.0,0.0,0.0,0.0,0.0,0.0,0.0,-2.3279,-2.4135,-2.4863,-2.5576,-2.6319,-2.6708,-2.6725,-2.6725,-2.7348,-2.8546,-2.9291,-3.0529,-3.2141,-3.2406,-3.2777,-3.3199,-3.2745,-3.2534,-3.2534,-3.2534,-3.2248,-3.1981,-3.3521,-3.4146,-3.4512,-3.697,-3.7268,-3.6519,-3.7018,-3.6501,-3.5605,-3.56,-3.6163,-3.6981,-3.7686,-3.8444,-3.9163,-3.9893,-4.0113,-4.0239,-4.0756,-4.0924,-4.1097,-4.1686,-4.2278,-4.2394,-4.1214,-4.1387,-4.1464,-4.0336,-4.0121,-4.0096,-4.0096,-4.0096,-4.0096,-4.0096,-4.0096,-4.0096,-4.0096,-4.0096,-4.0096,-4.0096,-4.0096,-4.0096,-4.0096,-4.0096,-4.0096,-4.0096,-4.0096,-4.0096,-4.0096,-4.0096,-4.0096,-4.0096,-4.0096,-4.0096,-4.0096,-4.0096,-4.0096,-4.0096,-4.0096,-4.0096,0.0,0.0,-2.1265,-1.9465,0.0,0.0,0.0,0.0,0.0,0.0,0.0,0.0,0.0,0.0,0.0,0.0,0.0,0.0,0.0,0.0,0.0,0.0,0.0,0.0,0.0,0.0,0.0,0.0,-1.8979,0.0,0.0,-2.3192,-2.4118,-2.4846,-2.5592,-2.6051,-2.6244,-2.6539,-2.6995,-2.7597,-2.8956,-3.0138,-3.1205,-3.208,-3.2583,-3.2729,-3.2567,-3.2501,-3.2501,-3.2501,-3.2546,-3.269,-3.371,-3.4238,-3.4558,-3.5894,-3.6378,-3.6392,-3.6207,-3.5902,-3.56,-3.56,-3.6485,-3.7574,-3.7814,-3.8764,-3.9782,-4.0028,-4.0096,-4.013,-4.0315,-4.0629,-4.0946,-4.1151,-4.1686,-4.189,-4.1082,-4.1056,-4.0985,-4.0247,-4.0096,-4.0096,-4.0096,-4.0096,-4.0096,-4.0096,-4.0096,-4.0096,-4.0096,-4.0096,-4.0096,-4.0096,-4.0096,-4.0096,-4.0096,-4.0096,-4.0096,-4.0096,-4.0096,-4.0096,-4.0096,-4.0096,-4.0096,-4.0096,-4.0096,-4.0096,-4.0096,-4.0096,-4.0096,-4.0096,-4.0096,-4.0096,-2.1066,-2.168,0.0,-2.0438,-2.0049,0.0,-1.7833,0.0,0.0,0.0,0.0,0.0,0.0,0.0,0.0,0.0,0.0,0.0,0.0,0.0,0.0,0.0,0.0,0.0,0.0,0.0,-1.6773,-1.861,-1.8698,0.0,0.0,0.0,-2.3654,-2.4206,-2.4928,-2.5444,-2.5707,-2.6016,-2.6354,-2.6722,-2.833,-2.954,-3.0352,-3.1498,-3.2127,-3.223,-3.2109,-3.2039,-3.2039,-3.2039,-3.2155,-3.2462,-3.3453,-3.397,-3.424,-3.5453,-3.6097,-3.6312,-3.5783,-3.56,-3.565,-3.5943,-3.6891,-3.7963,-3.8194,-3.9137,-4.0096,-4.0096,-4.0096,-4.0096,-4.0096,-4.0349,-4.0629,-4.0629,-4.1064,-4.1322,-4.0738,-4.077,-4.0741,-4.0197,-4.0096,-4.0096,-4.0096,-4.0096,-4.0096,-4.0096,-4.0096,-4.0096,-4.0096,-4.0096,-4.0096,-4.0096,-4.0096,-4.0096,-4.0096,-4.0096,-4.0096,-4.0096,-4.0096,-4.0096,-4.0096,-4.0096,-4.0096,-4.0096,-4.0096,-4.0096,-4.0096,-4.0096,-3.9944,-3.9691,-3.9986,-3.9944]},{"header":{"parameterUnit":"m.s-1","parameterCategory":1,"la1":30.6,"la2":29.2853,"lo1":-89.7004,"lo2":-87.6739,"dy":0.0162,"dx":0.0183,"nx":112,"ny":82,"refTime":"2026-03-07T00:00:00:Z","depth":0,"parameterNumber":3,"parameterNumberName":"V-component_of_WINDS"},"data":[0.0,0.0,0.0,0.0,0.0,0.0,0.0,0.0,0.0,0.0,0.0,0.0,0.0,0.0,0.0,0.0,0.0,0.0,0.0,0.0,0.0,0.0,0.0,0.0,0.0,0.0,0.0,0.0,0.0,0.0,0.0,0.0,0.0,0.0,0.0,0.0,0.0,0.0,0.0,0.0,0.0,0.0,0.0,0.0,0.0,0.0,0.0,0.0,0.0,0.0,0.0,0.0,0.0,0.0,0.0,0.0,0.0,0.0,0.0,0.0,0.0,0.0,0.0,0.0,0.0,0.0,0.0,0.0,0.0,0.0,0.0,0.0,0.0,0.0,0.0,0.0,0.0,0.0,0.0,0.0,0.0,0.0,0.0,0.0,0.0,0.0,0.0,0.0,0.0,0.0,0.0,0.1047,-0.0661,-0.3011,-0.6019,-0.8453,-1.0501,-1.2134,0.0,0.0,0.0,0.0,0.0,0.0,0.0,0.0,0.0,0.0,0.0,0.0,0.0,0.0,0.0,0.0,0.0,0.0,0.0,0.0,0.0,0.0,0.0,0.0,0.0,0.0,0.0,0.0,0.0,0.0,0.0,0.0,0.0,0.0,0.0,0.0,0.0,0.0,0.0,0.0,0.0,0.0,0.0,0.0,0.0,0.0,0.0,0.0,0.0,0.0,0.0,0.0,0.0,0.0,0.0,0.0,0.0,0.0,0.0,0.0,0.0,0.0,0.0,0.0,0.0,0.0,0.0,0.0,0.0,0.0,0.0,0.0,0.0,0.0,0.0,0.0,0.0,0.0,0.0,0.0,0.0,0.0,0.0,0.0,0.0,0.0,0.0,0.0,0.0,0.0,0.0,0.0,0.0,0.0,0.0,0.0,0.0,0.0,0.0,0.0,0.0,0.0,0.0,0.0,0.1938,0.1686,-0.0414,-0.2727,-0.5035,-0.7791,-0.9985,-1.138,0.0,0.0,0.0,0.0,0.0,0.0,0.0,0.0,0.0,0.0,0.0,0.0,0.0,0.0,0.0,0.0,0.0,0.0,0.0,0.0,0.0,0.0,0.0,0.0,0.0,0.0,0.0,0.0,0.0,0.0,0.0,0.0,0.0,0.0,0.0,0.0,0.0,0.0,0.0,0.0,0.0,0.0,0.0,0.0,0.0,0.0,0.0,0.0,0.0,0.0,0.0,0.0,0.0,0.0,0.0,0.0,0.0,0.0,0.0,0.0,0.0,0.0,0.0,0.0,0.0,0.0,0.0,0.0,0.0,0.0,0.0,0.0,0.0,0.0,0.0,0.0,0.0,0.0,0.0,0.0,0.0,0.0,0.0,0.0,0.0,0.0,0.0,0.0,0.0,0.0,0.0,0.0,0.0,0.0,0.0,0.0,0.0,0.0,0.0,0.0,0.0,0.0,0.0,0.1386,0.0993,0.0395,-0.0955,-0.2561,-0.4458,-0.6706,-0.8619,-1.0062,-0.9411,0.0,0.0,0.0,0.0,0.0,0.0,0.0,0.0,0.0,0.0,0.0,0.0,0.0,0.0,0.0,0.0,0.0,0.0,0.0,0.0,0.0,0.0,0.0,0.0,0.0,0.0,0.0,0.0,0.0,0.0,0.0,0.0,0.0,0.0,0.0,0.0,0.0,0.0,0.0,0.0,0.0,0.0,0.0,0.0,0.0,0.0,0.0,0.0,0.0,0.0,0.0,0.0,0.0,0.0,0.0,0.0,0.0,0.0,0.0,0.0,0.0,0.0,0.0,0.0,0.0,0.0,0.0,0.0,0.0,0.0,0.0,0.0,0.0,0.0,0.0,0.0,0.0,0.0,0.0,0.0,0.0,0.0,0.0,0.0,0.0,0.0,0.0,0.0,0.0,0.0,0.0,0.0,0.0,0.0,0.0,0.0,0.0,0.0,0.0,0.0,0.0,0.0,0.0937,0.0375,-0.0575,-0.1472,-0.2588,-0.3985,-0.5756,-0.73,-0.8511,-0.7639,0.0,0.0,0.0,0.0,0.0,0.0,0.0,0.0,0.0,0.0,0.0,0.0,0.0,0.0,0.0,0.0,0.0,0.0,0.0,0.0,0.0,0.0,0.0,0.0,0.0,0.0,0.0,0.0,0.0,0.0,0.0,0.0,0.0,0.0,0.0,0.0,0.0,0.0,0.0,0.0,0.0,0.0,0.0,0.0,0.0,0.0,0.0,0.0,0.0,0.0,0.0,0.0,0.0,0.0,0.0,0.0,0.0,0.0,0.0,0.0,0.0,0.0,0.0,0.0,0.0,0.0,0.0,0.0,0.0,0.0,0.0,0.0,0.0,0.0,0.0,0.0,0.0,0.0,0.0,0.0,0.0,0.0,0.0,0.0,0.0,0.0,0.0,0.0,0.0,0.0,0.0,0.0,0.0,0.0,0.0,0.0,0.0,0.0,0.0,0.0,0.0,0.0,0.1874,0.1244,0.0067,-0.1603,-0.2893,-0.3493,-0.532,-0.6528,-0.6762,-0.601,0.0,0.0,0.0,0.0,0.0,0.0,0.0,0.0,0.0,0.0,0.0,0.0,0.0,0.0,0.0,0.0,0.0,0.0,0.0,0.0,0.0,0.0,0.0,0.0,0.0,0.0,0.0,0.0,0.0,0.0,0.0,0.0,0.0,0.0,0.0,0.0,0.0,0.0,0.0,0.0,0.0,0.0,0.0,0.0,0.0,0.0,0.0,0.0,0.0,0.0,0.0,0.0,0.0,0.0,0.0,0.0,0.0,0.0,0.0,0.0,0.0,0.0,0.0,0.0,0.0,0.0,0.0,0.0,0.0,0.0,0.0,0.0,0.0,0.0,0.0,0.0,0.0,0.0,0.0,0.0,0.0,0.0,0.0,0.0,0.0,0.0,0.0,0.0,0.0,0.0,0.0,0.0,0.0,0.0,0.0,0.0,0.0,0.0,0.0,0.0,0.0,0.0,0.3035,0.2607,0.0,-0.0156,-0.1261,-0.1822,-0.3245,-0.4196,-0.4466,0.0,0.0,0.0,0.0,0.0,0.0,0.0,0.0,0.0,0.0,0.0,0.0,0.0,0.0,0.0,0.0,0.0,0.0,0.0,0.0,0.0,0.0,0.0,0.0,0.0,0.0,0.0,0.0,0.0,0.0,0.0,0.0,0.0,0.0,0.0,0.0,0.0,0.0,0.0,0.0,0.0,0.0,0.0,0.0,0.0,0.0,0.0,0.0,0.0,0.0,0.0,0.0,0.0,0.0,0.0,0.0,0.0,0.0,0.0,0.0,0.0,0.0,0.0,0.0,0.0,0.0,0.0,0.0,0.0,0.0,0.0,0.0,0.0,0.0,0.0,0.0,0.0,0.0,0.0,0.0,0.0,0.0,0.0,0.0,0.0,0.0,0.0,0.0,0.0,0.0,0.0,0.0,0.0,0.0,0.0,0.0,0.0,0.0,0.0,0.0,0.0,0.0,0.4208,0.4431,0.4115,0.0,0.1176,0.0332,-0.0287,-0.1214,-0.1869,-0.2109,0.0,0.0,0.0,0.0,0.0,0.0,0.0,0.0,0.0,0.0,0.0,0.0,0.0,0.0,0.0,0.0,0.0,0.0,0.0,0.0,0.0,0.0,0.0,0.0,0.0,0.0,0.0,0.0,0.0,0.0,0.0,0.0,0.0,0.0,0.0,0.0,0.0,0.0,0.0,0.0,0.0,0.0,0.0,0.0,0.0,0.0,0.0,0.0,0.0,0.0,0.0,0.0,0.0,0.0,0.0,0.0,0.0,0.0,0.0,0.0,0.0,0.0,0.0,0.0,0.0,0.0,0.0,0.0,0.0,0.0,0.0,0.0,0.0,0.0,0.0,0.0,0.0,0.0,0.0,0.0,0.0,0.0,0.0,0.0,0.0,0.0,0.0,0.0,0.0,0.0,0.0,0.0,0.0,0.0,0.0,0.0,0.0,0.0,0.0,0.0,0.0,0.0,0.536,0.6081,0.5785,0.3024,0.2183,0.1586,0.0997,0.051,0.0233,0.0,0.0,0.0,0.0,0.0,0.0,0.0,0.0,0.0,0.0,0.0,0.0,0.0,0.0,0.0,0.0,0.0,0.0,0.0,0.0,0.0,0.0,0.0,0.0,0.0,0.0,0.0,0.0,0.0,0.0,0.0,0.0,0.0,0.0,0.0,0.0,0.0,0.0,0.0,0.0,0.0,0.0,0.0,0.0,0.0,0.0,0.0,0.0,0.0,0.0,0.0,0.0,0.0,0.0,0.0,0.0,0.0,0.0,0.0,0.0,0.0,0.0,0.0,0.0,0.0,0.0,0.0,0.0,0.0,0.0,0.0,0.0,0.0,0.0,0.0,0.0,0.0,0.0,0.0,0.0,0.0,0.0,0.0,0.0,0.0,0.0,0.0,0.0,0.0,0.0,0.0,0.0,0.0,0.0,0.0,0.0,0.0,0.0,0.0,0.0,0.0,0.0,0.0,0.6788,0.7651,0.7619,0.5344,0.4215,0.3567,0.3393,0.2686,0.2325,0.2506,0.0,0.0,0.0,0.0,0.0,0.0,0.0,0.0,0.0,0.0,0.0,0.0,0.0,0.0,0.0,0.0,0.0,0.0,0.0,0.0,0.0,0.0,0.0,0.0,0.0,0.0,0.0,0.0,0.0,0.0,0.0,0.0,0.0,0.0,0.0,0.0,0.0,0.0,0.0,0.0,0.0,0.0,0.0,0.0,0.0,0.0,0.0,0.0,0.0,0.0,0.0,0.0,0.0,0.0,0.0,0.0,0.0,0.0,0.0,0.0,0.0,0.0,0.0,0.0,0.0,0.0,0.0,0.0,0.0,0.0,0.0,0.0,0.0,0.0,0.0,0.0,0.0,0.0,0.0,0.0,0.0,0.0,0.0,0.0,0.0,0.0,0.0,0.0,0.0,0.0,0.0,0.0,0.0,0.0,0.0,0.0,0.0,0.0,0.0,0.0,0.0,0.0,0.8217,0.9254,0.937,0.7278,0.628,0.5657,0.5418,0.4833,0.4585,0.4808,0.0,0.0,0.0,0.0,0.0,0.0,0.0,0.0,0.0,0.0,0.0,0.0,0.0,0.0,0.0,0.0,0.0,0.0,0.0,0.0,0.0,0.0,0.0,0.0,0.0,0.0,0.0,0.0,0.0,0.0,0.0,0.0,0.0,0.0,0.0,0.0,0.0,0.0,0.0,0.0,0.0,0.0,0.0,0.0,0.0,0.0,0.0,0.0,0.0,0.0,0.0,0.0,0.0,0.0,0.0,0.0,0.0,0.0,0.0,0.0,0.0,0.0,0.0,0.0,0.0,0.0,0.0,0.0,0.0,0.0,0.0,0.0,0.0,0.0,0.0,0.0,0.0,0.0,0.0,0.0,0.0,0.0,0.0,0.0,0.0,0.0,0.0,0.0,0.0,0.0,0.0,0.0,0.0,0.0,0.0,0.0,0.0,0.0,0.0,0.0,0.0,0.0,0.9667,1.0798,1.0946,0.8935,0.8306,0.7786,0.723,0.7036,0.6988,0.7087,0.0,0.0,0.0,0.0,0.0,0.0,0.0,0.0,0.0,0.0,0.0,0.0,0.0,0.0,0.0,0.0,0.0,0.0,0.0,0.0,0.0,0.0,0.0,0.0,0.0,0.0,0.0,0.0,0.0,0.0,0.0,0.0,0.0,0.0,0.0,0.0,0.0,0.0,0.0,0.0,0.0,0.0,0.0,0.0,0.0,0.0,0.0,0.0,0.0,0.0,0.0,0.0,0.0,0.0,0.0,0.0,0.0,0.0,0.0,0.0,1.0261,0.0,0.0,0.0,0.0,0.0,0.0,0.0,0.0,0.0,0.0,0.0,0.0,0.0,0.0,0.0,0.0,0.0,0.0,0.0,0.0,0.0,0.0,0.0,0.0,0.0,0.0,0.0,0.0,0.0,0.0,0.0,0.0,0.0,0.0,0.0,0.0,0.0,0.0,0.0,0.0,0.0,1.1027,1.1928,1.2031,1.0475,0.9887,0.9529,0.9359,0.9451,0.9429,0.9248,0.8491,0.0,0.0,0.0,0.0,0.0,0.0,0.0,0.0,0.0,0.0,0.0,0.0,0.0,0.0,0.0,0.0,0.0,0.0,0.0,0.0,0.0,0.0,0.0,0.0,0.0,0.0,0.0,0.0,0.0,0.0,0.0,0.0,0.0,0.0,0.0,0.0,0.0,0.0,0.0,0.0,0.0,0.0,0.0,0.0,0.0,0.0,0.0,0.0,0.0,0.0,0.0,0.0,0.0,0.0,0.0,0.0,0.0,0.0,0.0,0.0,1.1661,0.0,0.0,0.0,0.0,0.0,0.0,0.0,0.0,0.0,0.0,0.0,0.0,0.0,0.0,0.0,0.0,0.0,0.0,0.0,0.0,0.0,0.0,0.0,0.0,0.0,0.0,0.0,0.0,0.0,0.0,0.0,0.0,0.0,0.0,0.0,0.0,0.0,0.0,0.0,0.0,1.1962,1.3006,1.3286,1.2114,1.1743,1.1544,1.1404,1.1638,1.1647,1.1305,1.0263,0.0,0.0,0.0,0.0,0.0,0.0,0.0,0.0,0.0,0.0,0.0,0.0,0.0,0.0,0.0,0.0,0.0,0.0,0.0,0.0,0.0,0.0,0.0,0.0,0.0,0.0,0.0,0.0,0.0,0.0,0.0,0.0,0.0,0.0,0.0,0.0,0.0,0.0,0.0,0.0,0.0,0.0,0.0,0.0,0.0,0.0,0.0,0.0,0.0,0.0,0.0,0.0,0.0,1.4053,1.4099,1.4171,1.4245,1.4533,1.493,1.4145,1.393,1.4149,1.3856,0.0,0.0,0.0,0.0,0.0,0.0,0.0,0.0,0.0,0.0,0.0,0.0,0.0,0.0,0.0,0.0,0.0,0.0,0.0,0.0,0.0,0.0,0.0,0.0,1.9677,1.9465,0.0,0.0,0.0,0.0,0.0,0.0,0.0,0.0,0.0,0.0,0.0,0.0,1.2803,1.3813,1.419,1.3483,1.3371,1.3258,1.3064,1.3453,1.3498,1.2937,1.1548,0.9729,0.0,0.0,0.0,0.0,0.0,0.0,0.0,0.0,0.0,0.0,0.0,0.0,0.0,0.0,0.0,0.0,0.0,0.0,0.0,0.0,0.0,0.0,0.0,0.0,0.0,0.0,0.0,0.0,0.0,0.0,0.0,0.0,1.1246,1.1923,0.0,0.0,0.0,0.0,0.0,0.0,0.0,0.0,0.0,0.0,0.0,0.0,0.0,1.647,1.6942,1.7169,1.6967,1.6368,1.7118,1.7207,1.6812,1.7279,1.7528,1.7583,1.7485,0.0,1.4472,1.4883,0.0,0.0,0.0,0.0,0.0,0.0,0.0,0.0,0.0,0.0,0.0,0.0,0.0,0.0,0.0,0.0,0.0,0.0,0.0,0.0,0.0,0.0,2.229,2.1858,2.189,2.1746,0.0,1.8092,1.5492,1.4373,1.365,0.0,0.0,0.0,0.0,0.0,0.0,0.0,1.3878,1.3968,1.3877,1.3832,1.3875,1.3802,1.361,1.4491,1.4557,1.3388,1.1525,0.9149,0.6259,0.3186,0.0,0.0,0.0,0.0,0.0,0.0,0.0,0.0,0.0,0.0,0.0,0.0,0.0,0.0,0.0,0.0,0.0,0.0,0.0,0.0,0.0,0.0,0.0,0.0,0.0,0.0,0.0,0.0,0.0,1.13,1.2165,1.2845,1.3425,1.3263,0.0,0.0,0.0,0.0,0.0,0.0,0.0,0.0,0.0,1.8234,1.8519,1.9052,1.9915,1.9498,1.9054,1.8588,1.8823,1.8821,1.8611,1.885,1.9082,1.9258,1.8731,1.8021,1.7235,1.6892,1.6319,1.5703,0.0,0.0,0.0,0.0,1.7967,1.8478,1.9914,2.0496,0.0,1.987,0.0,0.0,0.0,0.0,0.0,0.0,0.0,0.0,0.0,0.0,0.0,2.3263,2.3539,2.3793,2.3506,2.1232,1.8694,0.0,1.601,1.4753,1.1731,0.0,0.0,0.0,0.0,0.0,1.4187,1.4229,1.392,1.3396,1.3859,1.4133,1.3938,1.4939,1.5119,1.4074,1.1499,0.8581,0.5418,0.2497,0.0446,0.0,0.0,0.0,0.0,0.0,0.0,0.0,0.0,0.0,0.0,0.0,0.0,0.0,0.0,0.0,0.0,0.0,0.0,0.0,0.0,0.0,0.0,0.0,0.0,0.0,0.0,0.0,0.0,1.2728,1.3698,1.4374,1.5479,1.5553,0.0,0.0,0.0,0.0,0.0,0.0,1.844,1.9268,2.0125,2.1015,2.107,2.1499,2.2357,2.1323,2.0728,2.0527,2.0139,2.005,2.0235,2.0235,2.0505,2.0922,2.0023,1.9915,2.0276,1.89,1.81,1.7825,1.8402,1.8726,1.8993,2.0178,2.0852,2.1435,2.31,2.3746,2.3707,2.2899,0.0,2.0895,1.9719,0.0,0.0,0.0,0.0,2.2188,2.2307,2.3311,2.43,2.4206,2.46,2.487,2.4501,2.3118,2.1248,0.0,1.8013,1.649,1.2899,0.0,0.0,0.0,0.0,1.3582,1.4394,1.4367,1.3966,1.3203,1.3949,1.4404,1.4224,1.5145,1.5274,1.424,1.1239,0.8,0.4576,0.2118,0.0072,-0.1545,0.0,0.0,0.0,0.0,0.0,0.0,0.0,0.0,0.0,0.0,0.0,0.0,0.0,0.0,0.0,0.0,0.0,0.0,0.0,0.0,0.0,0.0,0.0,0.0,0.0,0.0,0.0,0.0,0.0,1.7214,1.8688,0.0,0.0,0.0,0.0,1.777,1.9477,2.0595,2.0633,2.2296,2.3279,2.333,2.395,2.4153,2.3895,2.2953,2.2318,2.1995,2.1273,2.131,2.1983,2.1983,2.2369,2.2996,2.2272,2.2335,2.2845,2.0482,1.9541,1.9647,2.0517,2.064,2.0574,2.217,2.2757,2.2973,2.4276,2.474,2.4692,2.4447,2.3271,2.2047,2.2601,2.206,0.0,0.0,2.3903,2.4138,2.4894,2.5159,2.5192,2.5,2.4777,2.4399,2.3568,2.284,2.2013,0.0,1.9163,1.7346,1.5357,0.0,1.4765,1.4057,1.4013,1.4212,1.4714,1.4283,1.3872,1.3778,1.4309,1.4631,1.4491,1.5131,1.4868,1.3372,1.0608,0.7362,0.3622,0.2179,0.0436,-0.1741,-0.089,0.0,0.0,0.0,0.0,0.0,0.0,0.0,0.0,0.0,0.0,0.0,0.0,0.0,0.0,0.0,0.0,0.0,0.0,0.0,0.0,0.0,0.0,0.0,0.0,0.0,0.0,0.0,0.0,1.8913,2.0115,0.0,1.8712,2.0021,2.0849,2.0556,2.1777,2.2776,2.3335,2.3978,2.4633,2.5285,2.5274,2.5527,2.6042,2.5,2.427,2.388,2.32,2.2998,2.326,2.326,2.3685,2.4388,2.3821,2.402,2.4657,2.3538,2.2628,2.1965,2.2013,2.2335,2.2823,2.339,2.3874,2.4315,2.4771,2.5005,2.5061,2.4797,2.4118,2.3471,2.3849,2.3795,2.3717,2.4367,2.4678,2.4837,2.5005,2.4901,2.4679,2.4249,2.3855,2.3302,2.2282,2.1424,2.0526,1.9427,1.8843,1.789,1.5873,1.552,1.5325,1.4702,1.4916,1.5166,1.5308,1.4395,1.3607,1.3195,1.3703,1.4048,1.399,1.4678,1.472,1.3838,1.0167,0.6956,0.4536,0.2296,0.0104,-0.2083,-0.0562,0.1215,0.0,0.0,0.0,0.0,0.0,0.0,0.0,0.0,0.0,0.0,0.0,0.0,0.0,0.0,0.0,0.0,0.0,0.0,0.0,0.0,0.0,0.0,0.0,0.0,0.0,0.0,1.9655,2.0507,2.1643,2.1844,2.0532,2.1887,2.288,2.2936,2.3886,2.4726,2.5361,2.5697,2.6149,2.6821,2.6439,2.6522,2.7178,2.6191,2.558,2.5301,2.4746,2.462,2.4874,2.4874,2.53,2.6023,2.5447,2.5652,2.6322,2.5654,2.5099,2.4633,2.403,2.4219,2.4872,2.5014,2.5423,2.5869,2.5857,2.5881,2.5894,2.5593,2.5332,2.5143,2.5262,2.5441,2.5613,2.5613,2.5548,2.5402,2.5175,2.4778,2.4254,2.3601,2.3105,2.25,2.1432,2.0622,1.9808,1.8767,1.8418,1.7788,1.6238,1.5982,1.5856,1.548,1.5731,1.5872,1.5628,1.4699,1.382,1.3192,1.3679,1.4043,1.4043,1.4562,1.4599,1.391,1.04,0.7445,0.5424,0.3251,0.1187,-0.0748,0.1306,0.3209,0.4891,0.0,0.0,0.0,0.0,0.0,0.0,0.0,0.0,0.0,0.0,0.0,0.0,0.0,0.0,0.0,0.0,0.0,0.0,0.0,0.0,0.0,0.0,0.0,1.8825,2.0684,2.2044,2.2074,2.3351,2.3933,2.3153,2.3976,2.4669,2.485,2.5785,2.6427,2.6624,2.7448,2.7915,2.7934,2.7471,2.7261,2.728,2.6542,2.6164,2.6164,2.5825,2.6069,2.684,2.684,2.7234,2.789,2.716,2.7262,2.7857,2.6687,2.677,2.7559,2.6531,2.6293,2.6584,2.7035,2.7387,2.7593,2.7521,2.7357,2.7156,2.6953,2.6879,2.6879,2.6869,2.7007,2.7153,2.7153,2.6597,2.5906,2.5603,2.4917,2.4081,2.3148,2.2646,2.2098,2.1004,2.0504,1.9989,1.9047,1.8046,1.7146,1.6616,1.6522,1.6522,1.6522,1.6522,0.0,1.572,1.5096,1.4491,1.3886,1.4352,1.4698,1.4698,1.4818,1.4474,1.3508,1.1304,0.8856,0.6204,0.5045,0.3786,0.2354,0.4706,0.6504,0.7651,0.0,0.0,0.0,0.0,0.0,0.0,0.0,0.0,0.0,0.0,0.0,0.0,0.0,0.0,0.0,0.0,0.0,0.0,0.0,0.0,0.0,0.0,2.1209,2.1412,2.2395,2.3259,2.3745,2.4552,2.4989,2.4768,2.5643,2.6264,2.6308,2.6862,2.7198,2.7243,2.7656,2.8165,2.8742,2.8319,2.8376,2.9007,2.8172,2.777,2.777,2.7433,2.7394,2.761,2.761,2.7838,2.8246,2.8043,2.8342,2.8949,2.8624,2.8748,2.8952,2.7315,2.6933,2.7312,2.7445,2.752,2.7521,2.7514,2.7278,2.6934,2.6573,2.6373,2.62,2.5967,2.5977,2.6085,2.6001,2.5882,2.5754,2.5541,2.5157,2.4576,2.3625,2.2788,2.1811,2.0442,1.969,1.9089,1.8444,1.8086,1.7706,1.7167,1.7076,1.7076,1.7076,1.7076,0.0,1.6862,1.5971,1.5118,1.4514,1.4606,1.4698,1.4698,1.4769,1.4728,1.4506,1.207,0.9977,0.8456,0.6609,0.5538,0.5331,0.6321,0.7405,0.0,0.0,0.0,0.0,0.0,0.0,0.0,0.0,0.0,0.0,0.0,0.0,0.0,0.0,0.0,0.0,0.0,0.0,0.0,0.0,0.0,0.0,2.0285,2.2461,2.3714,2.4346,2.483,2.5201,2.5818,2.619,2.619,2.6628,2.6925,2.7024,2.7487,2.7785,2.7862,2.8365,2.8866,2.935,2.9101,2.9187,2.9705,2.9211,2.8935,2.8935,2.8745,2.8651,2.8651,2.8651,2.8757,0.0,2.8935,2.9167,2.9532,2.9532,2.9634,0.0,0.0,0.0,0.0,0.0,2.8583,2.8522,2.835,2.8134,2.7853,2.7357,2.7103,2.6932,2.6601,2.6561,2.6613,2.6534,2.6317,2.6068,2.585,2.5404,2.4724,2.3654,2.294,2.222,2.1159,2.0503,1.9957,1.9612,1.9151,0.0,1.8068,1.7787,1.7646,1.7646,1.7646,1.7646,1.7646,1.6646,1.5696,1.5095,1.4824,1.4606,1.4329,1.4614,0.0,0.0,0.0,1.1095,0.9453,0.7755,0.0,0.0,0.0,0.0,0.0,0.0,0.0,0.0,0.9852,0.9843,0.0,0.0,0.0,0.0,0.0,0.0,0.0,0.0,0.0,0.0,0.0,0.0,0.0,0.0,0.0,0.0,2.1095,2.3065,2.5426,2.6239,2.6549,2.6454,2.7034,2.744,2.744,2.73,2.7285,2.7471,2.7977,2.8362,2.8529,0.0,0.0,0.0,0.0,2.9705,2.9705,2.9705,2.9742,2.9856,2.9856,2.9893,2.9978,2.9893,2.9893,2.9978,2.9893,2.9911,3.0031,3.0031,3.0073,3.0125,2.9842,2.9845,2.9999,2.9977,2.9954,2.9885,2.9523,0.0,0.0,2.8541,2.8298,2.8206,2.7865,2.7751,2.7751,2.7751,2.7246,2.6619,2.6328,2.574,2.4876,2.3643,2.333,2.3177,2.2618,2.2168,2.1816,2.1703,2.0869,1.9982,1.9405,1.8678,1.8224,1.8269,1.8269,1.8288,1.8333,1.7356,1.6417,1.5743,0.0,0.0,1.3956,1.4439,1.4611,1.4209,1.3461,1.1975,0.967,0.8663,0.8721,0.9952,1.1002,1.2159,1.3383,1.4416,1.4664,1.4141,1.1565,1.1193,0.0,0.0,0.0,0.0,0.0,0.0,0.0,0.0,0.0,0.0,0.0,0.0,0.0,0.0,0.0,1.8882,2.1347,2.3648,2.5317,2.715,2.8075,2.7421,2.7888,2.8264,2.8264,2.8801,2.9171,2.9214,2.9331,2.9416,2.9451,2.961,2.9705,2.9705,2.9705,2.9705,2.9705,2.9705,3.0053,3.075,0.0,0.0,3.1702,3.1042,3.1099,3.1684,3.1023,3.1242,3.2034,3.2034,3.1649,3.0967,3.0228,2.9969,2.9984,2.9813,2.9652,2.9504,2.9424,2.9049,2.8534,2.8129,2.7779,2.7439,2.7051,2.6939,0.0,2.6939,2.682,2.6685,2.662,2.6502,2.6101,2.5063,2.4699,2.4364,2.3415,2.3048,2.2913,2.2892,2.236,2.1869,2.175,2.0078,1.8864,1.9244,1.9317,1.9429,1.9758,1.8935,1.7934,1.6904,1.5914,1.5117,1.4583,1.4631,1.4685,1.4662,1.3319,1.1761,1.0053,0.9783,1.0094,1.0982,1.2323,1.3302,1.3954,1.4589,1.4853,1.4727,1.3745,1.3638,0.0,0.0,0.0,0.0,0.0,0.0,0.0,0.0,0.0,0.0,0.0,1.5946,1.557,0.0,1.8016,1.9175,2.1389,2.3642,2.5622,2.7238,2.8209,2.82,2.894,2.9456,2.9456,2.9696,2.9853,2.9853,2.9765,2.9705,2.9705,2.9705,2.9893,3.0345,3.0457,3.0704,3.1149,3.1253,3.1516,3.1955,3.1955,3.2172,3.2535,3.2134,3.2172,3.2535,3.2134,3.2184,3.2542,3.2408,3.2083,3.1621,3.0856,3.0255,2.9821,2.9616,2.9503,2.9382,2.9246,2.8862,2.8337,2.8006,2.7619,2.7208,2.6808,2.6539,2.6349,2.6349,2.6157,2.5946,2.5946,2.6157,2.6157,2.5392,2.5356,2.5346,2.4804,2.4438,2.4176,2.4121,2.3669,2.3104,2.2499,2.1661,2.0913,2.052,2.0362,2.0368,2.0569,1.9773,1.8753,1.7589,1.6561,1.5496,1.4352,1.4344,1.4586,1.5009,1.4105,1.2914,1.157,1.0825,1.1207,1.2865,1.3597,1.4259,1.4902,1.5441,1.5693,1.568,1.5437,1.5408,0.0,0.0,0.0,0.0,0.0,0.0,0.0,0.0,1.7128,1.6992,1.7619,1.8055,1.7646,1.7919,1.8581,1.9691,2.1374,2.3385,2.5798,2.695,2.7872,2.8696,2.9695,3.0349,3.0379,3.0202,3.0061,3.0006,2.9813,2.9754,2.9878,2.986,3.0273,3.1139,3.1401,3.1897,3.2592,3.2793,3.2987,3.3141,3.3141,3.3237,3.341,3.3237,3.3237,3.341,3.3352,3.3187,3.2889,3.2458,3.2276,3.2178,3.136,3.0584,2.9886,2.9624,2.9532,2.9499,2.9278,2.8959,2.8558,2.8293,2.7954,2.7546,2.7114,2.6713,2.6372,2.6114,2.5732,2.5358,2.5234,2.5521,2.5726,2.5297,2.5615,2.6013,2.6013,2.5726,2.5473,2.5342,2.4895,2.425,2.3272,2.3339,2.311,2.1941,2.1566,2.147,2.1579,2.0632,1.9536,1.8385,1.7242,1.5913,1.4295,1.43,1.4676,1.5325,1.5028,1.4243,1.2951,1.2047,1.2618,1.4833,1.4886,1.5214,1.5856,1.6287,1.65,1.65,1.65,1.6489,1.5502,1.3743,1.2768,1.4239,1.4827,1.5908,0.0,0.0,1.9966,2.0284,2.0302,1.9976,1.906,1.8795,1.9089,2.0222,2.1502,2.308,2.5208,2.6606,2.7756,2.8699,2.9545,3.0143,3.0392,3.0367,3.0254,3.0013,2.9813,2.9926,3.046,3.0499,3.0874,3.1678,3.2188,3.2497,3.2592,3.2793,3.3295,3.4052,3.4052,3.4468,3.5173,3.441,3.4487,3.5205,3.4952,3.4704,3.4374,3.3323,3.2903,3.2761,3.1367,3.0767,3.0631,3.0187,3.0021,3.0024,2.9978,2.9716,2.9378,2.9329,2.9094,2.8704,2.8116,2.7904,2.762,2.6514,2.6138,2.5939,2.5342,2.524,2.5278,2.5221,2.5615,2.6013,2.6013,2.6279,2.6539,2.6506,2.6111,2.5758,2.5622,2.5048,2.4343,2.3556,2.3164,2.312,2.3602,2.2268,2.0942,2.004,1.8231,1.6638,1.5509,1.5408,1.5465,1.5567,1.5352,1.4519,1.295,1.3781,1.4897,1.6249,1.6278,1.6323,1.64,1.6463,1.65,1.65,1.65,1.6505,1.7914,1.6536,1.5631,0.0,1.7159,1.8622,1.9951,2.1093,2.1862,2.1831,2.1797,2.1488,2.0547,2.0571,2.0813,0.0,2.2384,2.383,2.5,2.5916,2.6688,2.7282,2.8026,2.8885,2.9882,2.9992,2.9962,2.9829,3.0182,3.0518,3.0761,3.1374,3.2089,3.2949,3.3341,3.377,3.4287,3.4377,3.4529,3.4718,3.4718,3.4827,3.5025,3.4663,3.4683,3.5016,3.4706,3.4521,3.436,3.374,3.3462,3.3344,3.2223,3.1782,3.1644,3.0519,3.009,3.009,3.009,2.9603,2.9022,2.9386,2.8803,2.7958,2.8056,2.764,2.6994,2.6455,2.6075,2.5788,2.5518,2.5662,2.5889,2.5799,2.6156,2.6508,2.6415,2.6573,2.6691,2.6691,2.6556,2.6314,2.6049,2.5943,2.5782,2.5397,2.4551,2.4043,2.4269,2.3066,2.1601,2.0026,1.8273,1.7027,1.6617,1.5449,1.5133,1.6066,1.603,1.5689,1.5027,1.5477,1.5981,1.6495,1.6495,1.65,1.65,1.65,1.6659,1.6972,1.6972,1.7126,1.8887,1.8148,0.0,1.735,1.8849,2.0439,2.0435,2.1803,2.2992,2.275,2.2741,2.2505,2.1673,2.1826,2.2017,2.1754,2.2692,2.3703,2.4484,2.4623,2.4909,2.5547,2.6231,2.7196,2.8564,2.9213,2.9569,2.9607,3.0368,3.0875,3.102,3.2062,3.3067,3.4011,3.4309,3.4779,3.55,3.5432,3.5297,3.5096,3.5035,3.4898,3.4694,3.4694,3.4653,3.4551,3.4311,3.4159,3.4062,3.3876,3.3807,3.3721,3.284,3.2501,3.2326,3.0918,3.0298,3.0144,3.0144,2.9564,2.889,2.934,2.8705,2.786,2.8119,2.7628,2.6902,2.6558,2.6182,2.5886,2.5839,2.6145,2.648,2.6711,2.7,2.7255,2.7314,2.7148,2.6996,2.6996,2.6843,2.659,2.6262,2.647,2.6708,2.6721,2.5791,2.5079,2.4982,2.384,2.2231,2.0131,1.8865,1.7862,1.7113,1.5828,1.5387,1.6112,1.6367,1.6494,1.6495,1.6495,1.6498,1.65,1.65,1.6573,1.671,1.671,1.6993,1.7524,1.7524,1.7727,1.7442,0.0,1.7892,1.8264,1.943,2.0772,2.1798,2.2642,2.3188,2.3177,2.3183,2.2967,2.2218,2.2079,2.2133,2.2254,2.1824,2.1975,2.3342,2.2553,2.2327,2.3708,2.441,2.5156,0.0,2.7971,2.9189,2.9394,3.0158,3.0839,3.136,3.2405,3.351,3.4637,3.4934,3.5211,3.55,3.5239,3.5105,3.5096,3.4841,3.4704,3.4694,3.4694,3.4529,3.4211,3.42,3.4056,3.3802,3.3788,3.3807,3.3721,3.284,3.2501,3.2401,3.1492,3.0794,3.029,3.029,2.9892,2.9387,2.9409,2.9365,2.923,2.8646,2.8449,2.8182,2.6941,2.6581,2.6537,2.6486,2.6479,2.6769,2.7889,2.8144,2.8296,2.8834,2.8315,2.7773,2.7773,2.7199,2.6691,2.6674,2.6691,2.6824,2.7208,2.6904,2.6517,2.6187,2.4818,2.3041,2.0901,2.0621,1.9474,1.6672,1.7076,1.6887,1.5416,1.6078,1.6495,1.6491,1.65,1.65,1.65,1.65,1.6752,1.7271,1.7271,1.7544,1.8086,1.8086,1.8086,1.9123,0.0,1.9409,1.8714,1.9594,2.0741,2.109,2.1504,2.2003,2.2658,2.2626,2.2478,2.2495,2.2745,2.2927,2.2778,2.2632,2.2631,2.2944,2.2232,2.1987,2.2773,2.3489,0.0,0.0,0.0,0.0,2.8724,3.0209,3.12,3.1397,3.2919,3.3967,3.4368,3.4665,3.4963,3.5231,3.4972,3.4822,3.4841,3.433,3.4099,3.4099,3.4099,3.4037,3.3923,3.3923,3.3986,3.4068,3.4068,3.4068,3.4012,3.3446,3.2939,3.2434,3.1824,3.0798,2.9761,3.0166,2.932,2.8235,2.9102,2.8544,2.761,2.828,2.8238,2.7815,2.738,2.7552,2.7863,2.7829,2.8121,2.8509,2.88,2.8847,2.8906,2.8984,2.879,2.8602,2.8602,2.796,2.7418,2.7418,2.7029,2.6841,2.7241,2.7409,2.7178,2.6311,2.5719,2.4659,2.2883,2.2317,2.1139,1.8791,1.7446,1.6103,1.4596,1.5011,1.5487,1.5876,1.6281,1.65,1.65,1.6858,1.7105,1.7312,1.7666,1.8125,1.8631,1.8631,1.8817,2.0187,2.0051,1.978,1.8916,1.9193,1.967,1.967,1.9767,2.0131,2.1101,2.1292,2.1464,2.2092,2.2601,2.2959,2.2992,2.2661,2.2368,2.2341,2.1413,2.1008,2.1737,2.2452,2.3407,0.0,0.0,0.0,2.8363,3.0142,3.1271,3.1384,3.3087,3.4099,3.4188,3.4412,3.4655,3.4954,3.4665,3.4475,3.4364,3.3992,3.3807,3.3807,3.3807,3.3807,3.3807,3.3807,3.3902,3.4056,3.4056,3.4056,3.4031,3.362,3.3061,3.2451,3.1969,3.0767,2.9451,2.9848,2.8709,2.7213,2.8097,2.7329,2.6322,2.7449,2.7504,2.7255,2.7524,2.8042,2.8559,2.8772,2.9271,2.9756,2.988,2.9922,2.9905,2.9798,2.9585,2.9381,2.9381,2.8755,2.823,2.823,2.7844,2.7502,2.742,2.799,2.8035,2.6938,2.6688,2.5952,2.4269,2.4154,2.2805,1.9347,1.766,1.6056,1.4387,1.5143,1.5791,1.6182,1.6601,1.6823,1.6823,1.7151,1.7394,1.7585,1.8125,1.865,1.9188,1.9188,1.9502,2.0633,1.9822,1.9172,1.8983,1.836,1.7816,1.7777,1.7628,1.7739,1.8644,1.9214,1.9874,0.0,0.0,2.2169,2.2813,2.1919,2.1297,2.1704,2.0235,1.9584,0.0,0.0,0.0,0.0,0.0,0.0,2.8349,0.0,3.1066,3.1445,3.2944,3.3928,3.4183,3.4183,3.4345,3.4674,3.4368,3.4068,3.3807,3.3807,3.3807,3.3807,3.3807,3.3807,3.3807,3.3807,3.382,3.3815,3.3815,3.3815,3.3788,3.3404,3.297,3.2504,3.2056,3.0874,2.9499,2.9502,2.8183,2.651,2.651,2.6014,2.5536,2.6229,2.6484,2.6642,2.7357,2.8018,2.8654,2.9248,2.9848,3.0456,3.1055,3.119,3.119,3.119,3.0649,3.0176,3.0176,2.955,2.9044,2.9029,2.9049,2.875,2.7851,2.8717,2.9097,2.8084,2.7759,2.6891,2.5046,2.5841,2.4135,1.8267,1.7604,1.6681,1.48,1.6338,1.7315,1.7289,1.7388,1.7448,1.7448,1.7432,1.7679,1.8189,1.8769,1.9309,1.9813,1.9813,2.012,2.1705,2.1273,2.0638,1.967,1.8712,1.7911,1.7451,1.6638,1.6044,1.6332,1.6413,1.675,0.0,0.0,0.0,2.1565,2.1759,0.0,2.2388,2.161,0.0,2.2804,0.0,2.3895,2.5656,2.6602,0.0,0.0,3.0219,3.132,3.2239,3.3256,3.3829,3.3902,3.3902,3.4031,3.4334,3.4235,3.4068,3.3807,3.3807,3.3807,3.3807,3.3807,3.3807,3.3807,3.3807,3.3897,3.4099,3.4099,3.4099,3.4086,3.3981,3.3687,3.3316,3.3195,3.2188,3.0909,3.0953,2.8999,2.651,2.651,2.6014,2.5425,2.5618,2.6068,2.6537,2.6721,2.7615,2.8654,2.9248,2.9848,3.0456,3.1055,3.119,3.119,3.119,3.1055,3.092,3.092,3.0328,2.9747,2.9489,2.9694,2.9789,2.9432,2.9913,2.9925,2.892,2.8868,2.8076,2.5863,2.4473,2.1626,1.6471,1.5977,1.5886,1.5668,1.668,1.7308,1.729,1.7746,1.8003,1.8003,1.8804,1.9296,1.9445,2.048,2.1054,2.1186,2.1186,2.1011,2.3249,2.2807,2.213,2.0913,1.9542,1.819,1.703,1.5528,1.4263,1.3839,1.3925,0.0,1.5586,0.0,0.0,0.0,0.0,0.0,2.2511,2.2064,2.2207,0.0,2.3692,0.0,2.6592,2.7105,2.8115,0.0,3.0785,3.1556,3.2538,3.3366,3.3807,3.3807,3.3807,3.3863,3.4018,3.4018,3.3948,3.3807,3.3807,3.399,3.4325,3.4325,3.4541,3.489,0.0,3.4981,3.5129,3.5129,3.5129,3.5103,3.4857,3.4516,3.4093,3.3898,3.2815,3.1453,3.1485,2.9908,2.774,2.7042,2.6299,2.5654,2.5368,2.5572,2.5967,2.6381,2.7232,2.8233,2.9164,2.9651,3.0123,3.0995,3.0995,3.0878,3.1151,3.1332,3.1526,3.1714,3.1258,3.0743,3.0449,3.071,3.0912,3.0738,3.1044,3.0996,3.0169,2.949,2.8288,2.6185,2.2655,1.9473,1.7007,1.5935,1.55,1.5726,1.6798,1.7429,1.7424,1.8142,1.8544,1.8544,1.9186,1.9631,1.9901,2.0814,2.1254,2.1254,2.1254,2.1077,2.4829,2.4313,2.3618,2.2468,2.08,1.894,1.6959,1.491,1.3076,1.1733,0.0,1.2526,1.3779,1.6243,1.867,2.0415,0.0,2.2148,2.2581,2.2279,2.255,2.3909,2.4139,2.5054,2.7248,2.7655,2.8785,3.1239,3.1554,3.1957,3.2721,3.3421,3.378,3.3721,3.3762,3.3817,3.3886,3.3927,3.4027,3.4137,3.4137,3.4504,3.5169,3.5169,3.5573,3.6303,0.0,0.0,3.6303,3.6303,3.6303,3.6241,3.5709,3.527,3.4871,3.4308,3.3129,3.175,3.1678,3.0855,2.9573,2.7895,2.6835,2.613,2.5444,2.5239,2.5362,2.6215,2.691,2.7665,2.8934,2.9271,2.9585,3.0797,3.0679,3.0477,3.1055,3.1526,3.1933,3.2417,3.2161,3.1847,3.1663,3.193,3.2083,3.1823,3.2056,3.2062,3.1509,2.991,2.8021,2.5914,2.1087,1.8103,1.8307,1.6617,1.5584,1.569,1.6996,1.7797,1.7907,1.8673,1.9108,1.9108,1.9206,1.9497,2.0017,2.0563,2.0819,2.0819,2.0819,2.0815,2.5437,2.5377,2.5147,2.4003,2.2753,2.1167,1.8737,1.6657,0.0,0.0,1.072,1.0507,1.1311,1.3641,1.626,1.8705,0.0,0.0,0.0,0.0,2.4368,0.0,0.0,0.0,0.0,0.0,0.0,0.0,0.0,3.3085,3.356,3.3715,3.3652,3.3317,3.3638,3.3949,3.4298,3.4629,3.5151,3.5862,3.5862,3.5936,3.6064,3.6064,3.6156,3.6303,3.6303,0.0,3.6303,3.6303,3.6303,3.6241,3.5709,3.5593,3.5591,3.4576,3.3751,3.3077,3.2577,3.1843,3.0762,2.8837,2.765,2.6881,2.6165,2.5849,2.5826,2.6165,2.6763,2.7515,2.8427,2.8677,2.8966,3.0166,3.0393,3.0477,3.1055,3.1526,3.1933,3.2417,3.2434,3.2481,3.2834,3.2937,3.2938,3.2787,3.268,3.2508,3.2166,3.0547,2.8079,2.4483,2.1848,1.9394,1.7059,1.6528,1.6567,1.7191,1.8031,1.8768,1.9397,1.9582,1.966,1.966,2.0213,2.0541,2.0662,2.1242,2.1532,2.1532,2.1532,2.1274,2.6633,2.7069,2.7248,2.5901,2.482,2.3272,2.0056,0.0,0.0,0.0,1.1159,1.0725,1.1053,0.0,0.0,0.0,0.0,0.0,0.0,0.0,0.0,0.0,0.0,0.0,0.0,0.0,0.0,0.0,0.0,3.3394,3.3793,3.3807,3.3625,3.3214,3.3375,3.3653,3.397,3.4181,3.4816,3.5884,3.5884,3.6243,3.6923,3.6923,3.7147,3.7551,3.7551,0.0,3.7551,3.7551,3.7378,3.7089,3.6589,3.6288,3.6011,3.4845,3.4032,3.346,3.2839,3.2097,3.1306,3.0345,2.9479,2.8607,2.7516,2.6836,2.6561,2.718,2.73,2.7611,2.9149,2.9321,2.9381,3.0587,3.1148,3.153,3.2037,3.2298,3.2509,3.2818,3.2856,3.3014,3.3451,3.3508,3.3456,3.3332,3.3222,3.263,3.1145,2.9404,2.7028,2.3686,2.1853,1.9919,1.7619,1.7069,1.7077,1.7562,1.8286,1.8847,1.9202,1.9618,1.9798,1.9798,2.0131,2.0446,2.0795,2.1088,2.1221,2.1221,2.1221,2.0892,2.7663,2.8399,2.8801,2.7413,2.6412,2.482,2.1203,1.9229,0.0,0.0,1.23,1.1751,1.1615,0.0,0.0,0.0,0.0,0.0,0.0,0.0,0.0,0.0,0.0,0.0,0.0,0.0,0.0,0.0,0.0,0.0,3.3793,3.3807,3.3637,3.3312,3.3373,3.3604,3.3952,3.4041,3.4726,3.6002,3.5903,3.6526,3.7749,3.7641,3.7989,3.8707,3.8707,0.0,0.0,3.8707,3.8449,3.8015,3.7415,3.6847,3.618,3.4875,3.3962,3.3287,3.2598,3.1979,3.1511,3.1511,3.097,3.0077,2.9003,2.8036,2.7521,2.8367,2.8152,2.8052,2.9826,2.9951,2.9872,3.0955,3.1828,3.2508,3.2909,3.3133,3.3332,3.3643,3.3689,3.377,3.4014,3.4064,3.3963,3.3689,3.3286,3.22,2.992,2.7631,2.537,2.315,2.1392,1.98,1.8349,1.7852,1.7777,1.8164,1.8885,1.9302,1.9302,1.9749,1.9987,1.9987,1.9861,2.0055,2.0597,2.0597,2.0597,2.0597,2.0597,2.0295,2.7963,2.8434,2.8724,2.7831,2.6786,2.5213,2.2292,0.0,0.0,1.5522,1.3842,1.2877,1.2309,0.0,0.0,0.0,0.0,2.0971,0.0,0.0,0.0,0.0,0.0,0.0,0.0,0.0,0.0,0.0,0.0,0.0,3.3844,3.3807,3.3731,3.3577,3.3978,3.4494,3.5146,3.5515,3.6364,3.766,3.7255,3.7594,3.8563,3.8091,3.8178,3.8707,3.8707,0.0,0.0,3.8707,3.8658,3.853,3.7578,3.6759,3.5931,3.4308,3.3261,3.2586,3.1838,3.1553,3.1511,3.1511,3.097,3.0284,3.0136,2.9482,2.8858,2.9139,2.9144,2.9204,2.9563,2.9633,2.978,3.0428,3.1502,3.2508,3.2921,3.3525,3.4255,3.5137,3.5281,3.5206,3.4934,3.4894,3.4631,3.3884,3.2271,3.0733,2.9576,2.5831,2.312,2.2674,2.0452,1.871,1.8064,1.8578,1.9258,2.0108,2.083,2.1247,2.1247,2.0853,2.0616,2.0616,2.0075,1.9824,1.9901,1.9901,1.9901,1.9901,1.9901,1.985,2.7251,2.7714,2.8008,2.7285,2.6677,2.5512,2.2728,0.0,2.0463,1.7125,1.554,1.4528,1.3711,1.3719,0.0,0.0,0.0,0.0,0.0,0.0,0.0,0.0,0.0,0.0,0.0,0.0,0.0,0.0,0.0,0.0,3.4546,3.5018,3.5003,3.434,3.4496,3.4656,3.4818,3.4971,3.572,3.6983,3.6823,3.7114,3.7791,3.7578,3.7596,3.7808,3.81,0.0,0.0,3.8562,3.8334,3.7756,3.7359,3.638,3.5069,3.3989,3.3172,3.2477,3.1768,3.1511,3.1511,3.1511,3.1278,3.1029,3.1029,3.0419,2.9893,3.047,3.0265,3.0015,3.0608,3.0746,3.0915,3.1593,3.216,3.2663,3.3201,3.3746,3.4274,3.458,3.5097,3.5455,3.532,3.5296,3.4824,3.3418,3.1924,2.9943,2.711,2.439,2.218,2.0754,1.9721,1.9091,1.9018,1.8853,1.9395,2.0945,2.0864,2.0949,2.1493,2.1307,2.1182,2.1182,2.0629,2.0391,2.0455,2.0391,2.0391,2.0455,2.0391,2.0352,2.6698,2.7103,2.7308,2.6842,2.6341,2.5356,0.0,2.2165,2.1153,1.8214,1.6821,1.5798,1.4766,1.426,1.4435,1.5768,0.0,1.8999,0.0,0.0,0.0,0.0,0.0,0.0,0.0,0.0,0.0,0.0,0.0,0.0,0.0,3.6406,3.6338,3.5384,3.5065,3.4963,3.5053,3.4897,3.5347,3.6395,3.6245,3.6522,3.7192,3.7038,3.7057,3.7228,0.0,0.0,0.0,3.8251,3.7964,3.7209,3.7209,3.6111,3.4438,3.382,3.3039,3.2188,3.1682,3.1511,3.1511,3.1511,3.1511,3.1511,3.1511,3.1087,3.0777,3.1351,3.1087,3.0807,3.1351,3.1322,3.1292,3.1792,3.2086,3.2331,3.2768,3.3618,3.4352,3.4453,3.5177,3.5739,3.5643,3.5659,3.5065,3.333,3.1399,2.8856,2.5228,2.3341,2.1538,1.953,1.9077,1.9107,1.9551,1.9318,1.9825,2.1522,2.127,2.1328,2.1942,2.182,2.1719,2.1638,2.1047,2.0707,2.0575,2.0707,2.093,2.1219,2.1035,2.0943,2.6556,2.6754,2.6717,2.6784,2.5909,2.4563,0.0,2.2249,2.1264,1.8628,1.7456,1.651,1.5228,1.4725,1.4566,1.4772,1.6451,0.0,0.0,0.0,0.0,0.0,0.0,0.0,0.0,0.0,0.0,0.0,0.0,0.0,0.0,3.7727,3.7514,3.6723,3.5707,3.5575,3.6357,3.5837,3.5854,3.6395,3.5854,3.6165,3.7173,3.6643,3.6704,0.0,0.0,0.0,0.0,3.7702,3.7632,3.7209,3.7209,3.6004,3.4249,3.3772,3.2718,3.1511,3.1511,3.1511,3.1511,3.1511,3.1511,3.1511,3.1511,3.1511,3.1511,3.1511,3.1511,3.1511,3.1511,3.0896,3.0329,3.0329,3.0822,3.1315,3.1329,3.304,3.4757,3.5279,3.5934,3.6301,3.5963,3.6003,3.5545,3.3925,3.0576,2.7261,2.4558,2.2765,2.108,1.9486,1.8529,1.8361,1.9233,2.0107,2.0962,2.1834,2.2616,2.3053,2.3083,2.2556,2.2214,2.201,2.1274,2.0538,1.9813,2.0538,2.1281,2.199,2.1655,2.1481,2.4179,2.4427,2.46,2.4188,2.3612,2.2814,2.1567,2.1116,2.0431,1.856,1.7603,1.6828,1.5982,1.5107,1.48,1.5681,1.6333,0.0,0.0,0.0,0.0,0.0,0.0,0.0,0.0,0.0,0.0,0.0,0.0,0.0,0.0,3.6888,3.6684,3.7022,3.6376,3.5983,3.5854,3.5672,3.5689,3.5854,3.5672,3.5766,3.6101,3.5941,0.0,0.0,0.0,0.0,0.0,3.721,3.7116,3.6643,3.6643,3.5783,3.4421,3.382,3.3039,3.216,3.1653,3.1511,3.1511,3.1511,3.1511,3.1511,3.1511,3.1511,3.1511,3.1511,3.1511,3.138,3.0807,3.0494,3.0133,2.9535,3.0043,3.0734,3.1215,3.2674,3.4096,3.4717,3.5686,3.6405,3.6432,3.599,3.5168,3.3822,3.126,2.7712,2.2726,2.1065,1.9573,1.7643,1.7774,1.8337,1.9243,1.9562,2.0074,2.0942,2.1259,2.1647,2.2261,2.1885,2.2031,2.2747,2.2539,2.229,2.2046,2.1773,2.1761,2.2004,2.1897,2.172,2.1817,2.2388,2.2644,2.2072,2.1822,2.1522,2.0693,2.0366,1.9849,1.848,1.767,1.7012,1.6325,1.5272,1.4701,1.5291,1.5776,0.0,0.0,0.0,0.0,0.0,0.0,0.0,0.0,0.0,0.0,0.0,0.0,0.0,0.0,3.6379,3.621,3.6867,3.6374,3.6032,3.5898,3.5694,3.56,3.56,3.56,3.56,3.56,3.5339,0.0,0.0,0.0,0.0,0.0,3.6684,3.6583,3.6118,3.6312,3.5659,3.4528,3.3836,3.3172,3.2477,3.1768,3.1511,3.1511,3.1511,3.1511,3.1511,3.1511,3.1511,3.1511,3.1511,3.1511,3.138,3.0866,3.0524,3.0178,2.9628,2.9919,3.0405,3.0822,3.2121,3.3339,3.3761,3.4662,3.5391,3.5498,3.5241,3.4601,3.3499,3.0883,2.7414,2.2867,2.0359,1.8587,1.7574,1.7787,1.8202,1.8754,1.911,1.9529,2.0074,2.043,2.0944,2.169,2.1514,2.193,2.3088,2.3106,2.3103,2.3103,2.2636,2.243,2.243,2.243,2.2292,0.0,2.0305,2.0604,2.0236,2.0297,2.036,2.0026,1.9777,0.0,1.8315,1.7591,1.6966,1.6374,1.533,1.4447,1.4176,0.0,0.0,0.0,0.0,0.0,0.0,0.0,0.0,0.0,0.0,0.0,0.0,0.0,0.0,0.0,3.6114,3.5968,3.6399,3.5876,3.5854,3.6395,3.5898,3.5689,3.5717,3.5689,3.5667,3.5644,3.5012,0.0,0.0,0.0,0.0,0.0,3.6139,3.6054,3.5667,3.6161,3.5654,3.4576,3.3912,3.3235,3.2559,3.1824,3.1524,3.1511,3.1438,3.1409,3.1409,3.1409,3.1438,3.1511,3.1511,3.1511,3.1511,3.1438,3.0866,3.0269,3.0238,3.0238,3.0299,3.0299,3.1534,3.2668,3.2629,3.3214,3.3691,3.3566,3.3858,3.3747,3.2699,2.9502,2.6422,2.43,2.0456,1.8147,1.8691,1.835,1.8052,1.8013,1.8798,1.9266,1.9199,2.0042,2.0733,2.1257,2.1204,2.1765,2.3077,2.3101,2.309,2.3108,2.3108,2.3108,2.3108,2.3108,2.3108,1.4352,0.0,1.6645,1.6607,1.6786,1.708,0.0,1.7709,1.7679,1.7211,1.6809,1.6613,1.698,1.5906,1.5264,0.0,0.0,0.0,0.0,0.0,0.0,0.0,0.0,0.0,0.0,0.0,0.0,0.0,0.0,0.0,0.0,3.5328,3.5109,3.6361,3.5876,3.5854,3.6395,3.627,3.6416,3.6805,3.6416,3.6224,3.6224,3.6041,0.0,0.0,0.0,0.0,3.5622,3.5739,3.5717,3.5622,3.5739,3.5611,3.5276,3.4616,3.3937,3.3261,3.2586,3.1951,3.1409,3.0777,3.0584,3.0584,3.0584,3.0999,3.1511,3.1511,3.1511,3.1351,3.0748,3.0419,3.0133,2.9473,2.9827,3.0299,3.0299,3.1914,3.3209,3.2695,3.3973,3.4702,3.33,3.2419,3.1323,2.952,2.7637,2.5424,2.2508,2.0457,1.8803,1.7578,1.817,1.8511,1.8024,1.8795,1.9011,1.8337,1.911,1.9736,2.0096,1.9262,2.0149,2.3023,2.3101,2.3089,2.3108,2.3108,2.3108,2.3108,2.3108,2.3108,1.1663,1.2989,1.4506,1.4618,1.5036,1.5655,1.6657,1.6799,1.6754,0.0,0.0,0.0,0.0,0.0,0.0,0.0,0.0,0.0,0.0,0.0,0.0,0.0,0.0,0.0,0.0,0.0,0.0,0.0,0.0,0.0,0.0,3.3676,3.3446,3.4038,3.4332,3.4961,3.6011,3.6032,3.6165,3.646,3.6165,3.6032,3.6011,3.5698,3.5715,0.0,0.0,0.0,3.6333,3.6075,3.5963,3.5941,3.5694,3.56,3.5515,3.4847,3.4186,3.3505,3.2841,3.212,3.138,3.0554,3.0299,3.0238,2.9827,3.0299,3.1029,3.1409,3.1511,3.1481,3.1392,3.1102,3.0822,3.069,3.0763,3.0837,3.0837,3.1777,3.2544,3.216,3.2986,3.3234,3.1748,3.1389,3.0703,2.8792,2.7927,2.5951,2.1656,2.0941,2.0282,1.8807,1.8905,1.9097,1.9193,1.8889,1.8498,1.8027,1.8428,1.8774,1.8916,1.8341,1.8851,2.0732,2.23,2.3102,2.3095,2.311,2.3108,2.3108,2.3108,2.3108,1.0666,1.1874,1.3258,1.3349,1.401,1.499,1.6323,0.0,0.0,0.0,0.0,0.0,0.0,0.0,0.0,0.0,0.0,0.0,0.0,0.0,0.0,0.0,0.0,0.0,0.0,0.0,0.0,0.0,0.0,0.0,0.0,3.1238,3.1059,3.0735,3.1789,3.3019,3.4433,3.4815,3.505,3.5125,3.505,3.5084,3.5186,3.4646,3.5004,0.0,0.0,0.0,3.7039,3.66,3.6437,3.6478,3.6011,3.5788,3.5655,3.5088,3.439,3.3633,3.2868,3.212,3.1351,3.0419,3.0103,2.995,2.9066,2.9317,3.0103,3.1058,3.1409,3.164,3.2272,3.1951,3.1668,3.2272,3.1951,3.1467,3.1351,3.1526,3.1585,3.1205,3.1278,3.1043,2.9886,3.0291,3.0327,2.9048,2.871,2.6889,2.2129,2.176,2.1597,2.0702,1.995,1.9799,2.0527,1.9236,1.8284,1.8021,1.8003,1.7998,1.8008,1.8004,1.7988,1.8019,2.0851,2.2592,2.3095,2.3083,2.3099,2.311,2.311,2.3085,1.1629,1.1902,1.1972,1.1532,1.2492,1.3778,1.4677,1.5072,0.0,0.0,0.0,0.0,0.0,0.0,0.0,0.0,0.0,0.0,0.0,0.0,0.0,0.0,0.0,0.0,0.0,0.0,0.0,0.0,0.0,0.0,0.0,2.726,2.7513,2.8067,2.8591,2.8994,2.923,3.1331,3.2609,3.3072,3.2609,3.2752,3.3483,3.3383,3.3901,0.0,0.0,3.5419,3.6519,3.6437,3.6664,3.7076,3.6981,3.6684,3.6249,3.6147,3.5397,3.426,3.3013,3.212,3.1248,2.969,2.9192,2.9034,2.8149,2.7986,2.8427,3.0042,3.097,3.1524,3.164,3.1582,3.1524,3.164,3.1582,3.1307,3.0614,3.1633,3.2047,2.9792,3.0293,3.0654,2.9334,2.8088,2.7485,2.8153,2.7456,2.6556,2.5732,2.2809,2.077,2.0619,2.0465,2.0465,2.0604,2.0364,1.9563,1.8078,1.8,1.8014,1.7993,1.8003,1.8,1.7998,1.8516,2.0215,2.3115,2.3098,2.3111,2.3115,2.3115,2.3102,1.1147,1.162,1.2075,1.1822,1.2939,1.4349,1.5258,1.5391,0.0,0.0,0.0,0.0,0.0,0.0,0.0,0.0,0.0,0.0,0.0,0.0,0.0,0.0,0.0,0.0,0.0,0.0,0.0,0.0,0.0,0.0,0.0,0.0,2.5044,2.5152,2.5659,2.5552,2.4776,2.5889,2.7697,3.0175,2.9911,3.0013,3.0398,3.0398,3.1098,3.2306,0.0,3.3745,3.5036,3.5637,3.6002,3.6257,3.6629,3.662,3.6354,3.5972,3.5335,3.4406,3.3066,3.2382,3.1823,3.021,2.938,2.8844,2.7953,2.7703,2.7855,2.8684,2.9858,3.1043,3.1879,3.1796,3.1481,3.1406,3.1131,3.0687,3.0135,3.0422,3.0438,2.9219,2.9512,2.9439,2.7913,2.7762,2.7716,2.7307,2.6822,2.6499,2.6485,2.4913,2.2959,2.082,2.0583,2.0585,2.0592,2.061,1.9876,1.8118,1.8004,1.8007,1.8007,1.8011,1.8006,1.7993,1.8018,1.8761,2.0347,2.0354,2.0349,2.0342,2.0342,2.1342,1.108,1.1677,1.245,1.273,0.0,1.4731,1.5847,1.5606,0.0,0.0,0.0,0.0,0.0,0.0,0.0,0.0,0.0,0.0,0.0,0.0,0.0,0.0,0.0,0.0,0.0,0.0,0.0,0.0,0.0,0.0,0.0,0.0,2.1874,2.179,2.2124,2.1876,2.0982,2.08,2.2584,2.6265,2.6265,2.6382,2.6549,2.6549,2.7371,2.8827,2.9763,3.0964,3.2364,3.3687,3.4389,3.4784,3.5694,3.6222,3.6406,3.5691,3.5197,3.4668,3.344,3.2823,3.2296,3.057,2.9535,2.8812,2.7736,2.7417,2.7451,2.7637,2.8652,3.0013,3.1405,3.1334,3.0911,3.0793,3.0465,3.0017,2.9438,2.916,2.8871,2.8487,2.8395,2.8023,2.6721,2.7549,2.7971,2.6696,2.6499,2.6483,2.6491,2.6492,2.5351,2.2323,2.1153,2.0605,2.0605,2.0605,2.0024,1.8694,1.8609,1.8616,1.8613,1.86,1.8418,1.8003,1.7992,1.8007,1.7997,1.8412,1.8596,1.86,1.8418,1.9717,1.2614,1.256,1.2655,1.3707,1.3686,1.3786,1.5232,1.4809,0.0,1.5335,0.0,0.0,0.0,0.0,0.0,0.0,0.0,0.0,0.0,0.0,0.0,0.0,0.0,0.0,0.0,0.0,0.0,0.0,0.0,0.0,0.0,0.0,0.0,1.7593,1.7172,1.7356,1.8183,1.7569,1.8463,2.085,2.085,2.1246,2.1983,2.1983,2.2801,2.4332,2.5433,2.6587,2.7835,2.9841,3.1435,3.2781,3.437,3.5703,3.6582,3.5861,3.5545,3.5388,3.4498,3.3488,3.2198,2.9846,2.9066,2.8716,2.7061,2.6589,2.6748,2.7484,2.7802,2.8117,2.902,2.9223,2.9192,2.9178,2.9498,2.9466,2.8131,2.8471,2.8552,2.6982,2.6692,2.6645,2.6517,2.6589,2.6649,2.6533,2.6499,2.6499,2.649,2.6513,2.6383,2.6128,2.2783,2.0605,2.0605,2.0605,2.0527,2.042,2.0404,2.0396,2.0388,2.0394,1.9637,1.8043,1.7997,1.8015,1.8015,1.9611,2.0411,2.0375,1.9586,1.9338,1.1528,1.1956,1.2576,1.3358,1.3394,0.0,0.0,1.5471,1.5694,1.6352,1.6645,0.0,0.0,0.0,0.0,0.0,0.0,0.0,0.0,0.0,0.0,0.0,0.0,0.0,0.0,0.0,0.0,0.0,0.0,0.0,0.0,0.0,0.0,1.6313,1.6119,1.6005,1.5978,1.5722,1.578,1.615,1.7695,1.8512,1.8669,1.8818,1.9563,2.0741,2.1732,2.2719,2.3773,2.5524,2.6974,2.8358,3.1002,3.3159,3.4731,3.4456,3.4894,3.5488,3.4593,3.3646,3.2459,3.0465,2.9442,2.878,2.7604,2.6905,2.6555,2.6871,2.6939,2.7263,2.8652,2.9002,2.8876,2.833,2.8479,2.8396,2.7201,2.7224,2.7254,2.6615,2.6776,2.7002,2.7002,2.711,2.7041,2.6584,2.6484,2.6507,2.6515,2.6504,2.555,2.3073,2.1483,2.0605,2.0605,2.0605,2.0605,2.0605,2.0604,2.06,2.0596,2.0584,2.0282,1.9631,1.961,1.9621,1.9621,2.0275,2.04,2.0016,1.9709,1.9529,1.1135,1.1673,1.2526,1.306,0.0,0.0,1.5005,1.5452,1.5739,1.6259,1.6137,0.0,0.0,0.0,0.0,0.0,0.0,0.0,0.0,0.0,0.0,0.0,0.0,0.0,0.0,0.0,0.0,0.0,0.0,0.0,0.0,0.0,0.0,0.0,1.5454,1.5062,1.4932,1.4439,1.3829,1.3227,1.5179,1.6089,1.6004,1.6213,1.6651,1.7388,1.8281,1.906,1.9793,2.1506,2.3143,2.4865,2.7687,3.0432,3.2864,3.3395,3.4458,3.5385,3.3925,3.2939,3.2135,3.0618,2.9435,2.8427,2.7571,2.6939,2.6418,2.6129,2.6101,2.6422,2.727,2.761,2.7544,2.6793,2.6936,2.7006,2.6163,2.59,2.584,2.5948,2.6347,2.676,2.7003,2.7444,2.7615,2.7229,2.6784,2.6747,2.743,2.6931,2.4983,2.1014,2.0583,2.0605,2.0605,2.0605,2.0605,2.0605,2.0605,2.0605,2.0605,2.0592,2.0587,2.0587,2.0594,2.0585,2.0585,2.0585,2.0386,1.9979,1.9979,1.9991,1.185,1.1989,1.2538,0.0,0.0,0.0,1.4865,1.4475,1.3983,1.4661,0.0,1.3681,0.0,0.0,0.0,0.0,0.0,0.0,0.0,0.0,0.0,0.0,0.0,0.0,0.0,0.0,0.0,0.0,0.0,0.0,0.0,0.0,0.0,0.0,1.4736,1.4207,1.5163,1.3584,1.2636,1.2318,1.3167,1.3753,1.4082,1.4082,1.4088,1.4166,1.522,1.5696,1.5854,1.7909,2.0267,2.2722,2.4688,2.7699,3.1139,3.2901,3.4364,3.512,3.2407,3.1321,3.099,3.0081,2.8831,2.755,2.6714,2.6452,2.6267,2.5264,2.5265,2.5361,2.4454,2.4584,2.486,2.4341,2.4808,2.5299,2.4898,2.4542,2.4381,2.4726,2.5122,2.5637,2.6387,2.7397,2.8258,2.8629,2.7458,2.7323,2.9462,2.7809,2.496,2.1032,2.0585,2.0605,2.0605,2.0605,2.0605,2.0605,2.0605,2.0605,2.0605,2.0605,2.0605,2.0605,2.0605,2.0605,2.0605,2.0605,2.0605,2.0605,2.0605,2.0605,1.1671,1.2278,0.0,1.369,0.0,0.0,0.0,1.4822,0.0,0.0,0.0,0.0,0.0,0.0,0.0,0.0,0.0,0.0,0.0,0.0,0.0,0.0,0.0,0.0,0.0,0.0,0.0,0.0,0.0,0.0,0.0,0.0,0.0,0.0,1.5057,1.4557,1.4135,1.366,1.3156,1.2656,1.2924,1.3173,1.3487,1.3901,1.4088,1.413,1.4454,1.4573,1.4692,1.6037,1.7481,1.8918,2.0277,2.2801,2.5943,2.7893,2.8857,2.9086,2.8279,2.7956,2.7808,2.7408,2.6974,2.6382,2.4838,2.4397,2.4406,2.4434,2.4528,2.4457,2.3798,2.3106,2.2872,2.4288,2.4614,2.4648,2.4754,2.4542,2.4381,2.4726,2.5554,2.6339,2.6943,2.8319,2.9336,2.9465,2.9101,2.7928,2.5401,2.4498,2.32,2.0833,2.0598,2.0593,2.0586,2.0605,2.0605,2.0605,2.0605,2.0605,2.0605,2.0605,2.0605,2.0605,2.0605,2.0605,2.0605,2.0605,2.0605,2.0605,2.0605,2.0605,1.2128,1.2881,0.0,1.4551,1.4853,1.4987,1.5049,0.0,0.0,0.0,0.0,0.0,0.0,0.0,0.0,0.0,0.0,0.0,0.0,0.0,0.0,0.0,0.0,0.0,0.0,0.0,0.0,0.0,0.0,0.0,0.0,0.0,0.0,0.0,1.5939,1.5473,1.4871,1.4099,1.3521,1.3159,1.2913,1.2884,1.3046,1.352,1.3801,1.3908,1.3908,1.3975,1.4166,1.4817,1.544,1.6088,1.7162,1.8478,2.0003,2.2098,2.3413,2.4165,2.4164,2.4665,2.5273,2.5171,2.4956,2.4528,2.3425,2.3398,2.3761,2.3645,2.3852,2.3816,2.2623,2.1878,2.1809,2.3411,2.3328,2.2961,2.332,2.3639,2.3751,2.3443,2.4373,2.5398,2.6152,2.7756,2.8952,2.9105,2.9525,2.8497,2.4905,2.366,2.2701,2.1689,2.1015,2.0598,2.0594,2.0605,2.0605,2.0605,2.0605,2.0605,2.0605,2.0605,2.0605,2.0605,2.0605,2.0605,2.0605,2.0605,2.0605,2.0605,2.0605,2.0605,1.2906,0.0,0.0,0.0,0.0,0.0,0.0,0.0,0.0,0.0,0.0,0.0,0.0,0.0,0.0,0.0,0.0,0.0,0.0,0.0,0.0,0.0,0.0,0.0,0.0,0.0,0.0,0.0,0.0,0.0,0.0,0.0,0.0,1.8008,1.7173,1.6706,1.6602,1.4764,1.3781,0.0,1.306,1.2757,1.2797,1.3066,1.3313,1.356,1.356,1.3733,1.4048,1.4048,1.4062,1.4208,1.5179,1.4955,1.4344,1.6285,1.8276,2.0038,2.0218,2.1605,2.3217,2.3062,2.2576,2.2046,2.2152,2.2837,2.3443,2.2567,2.2909,2.3084,2.1204,2.0819,2.1114,2.1796,2.1238,2.0685,2.1042,2.1987,2.2492,2.148,2.2244,2.3458,2.4607,2.6248,2.7577,2.8171,2.9131,2.9,2.6696,2.4457,2.3114,2.3108,2.1724,2.0759,2.0612,2.0614,2.0615,2.0615,2.0586,2.0605,2.0605,2.0605,2.0605,2.0605,2.0605,2.0605,2.0605,2.0605,2.0605,2.0605,2.0605,2.0605,1.2878,1.3864,0.0,0.0,0.0,0.0,0.0,0.0,0.0,0.0,0.0,0.0,0.0,0.0,0.0,0.0,0.0,0.0,0.0,0.0,0.0,0.0,0.0,0.0,0.0,0.0,0.0,0.0,0.0,0.0,0.0,0.0,0.0,1.8008,1.7794,1.7354,1.6602,1.5438,1.4494,0.0,1.2838,1.2556,1.2797,1.3066,1.324,1.3307,1.3307,1.3467,1.37,1.37,1.3874,1.413,1.437,1.428,1.4157,1.4619,1.5087,1.5736,1.7409,1.942,2.1036,1.9886,1.8987,1.8584,1.9489,1.9485,1.9191,1.9291,1.9626,2.0044,2.0568,1.9567,1.8586,1.9069,1.947,1.9805,1.9881,2.0087,2.0494,2.1159,2.2258,2.3461,2.4595,2.539,2.667,2.9072,2.9642,2.8809,2.6021,2.4165,2.3082,2.3086,2.28,2.2048,2.0696,2.06,2.0619,2.0619,2.0595,2.0605,2.0605,2.0605,2.0605,2.0605,2.0605,2.0605,2.0605,2.0605,2.0605,2.0605,2.0605,2.0605,0.0,0.0,0.0,0.0,0.0,0.0,0.0,0.0,0.0,0.0,0.0,0.0,0.0,0.0,0.0,0.0,0.0,0.0,0.0,0.0,0.0,0.0,0.0,0.0,0.0,0.0,0.0,0.0,0.0,0.0,0.0,1.8008,1.8008,1.8008,1.8008,1.7759,1.7285,1.6324,1.5367,1.4422,1.3419,1.3073,1.3243,1.3076,1.3025,1.3025,1.3025,1.316,1.3407,1.3547,1.3693,1.3888,1.4035,1.4088,1.4117,1.4114,1.4109,1.4255,1.539,1.7196,1.907,1.9353,1.8231,1.7031,1.8333,1.843,1.8192,1.8682,1.8968,1.9192,1.9496,1.8628,1.7576,1.7223,1.7895,1.8634,1.8634,1.9085,1.9542,1.9588,2.1041,2.2428,2.3023,2.4221,2.5802,2.7894,2.821,2.7458,2.5384,2.4587,2.3906,2.3173,2.3097,2.2764,2.1868,2.1797,2.1442,2.0639,2.0581,2.0606,2.0606,2.0606,2.0612,2.0605,2.0605,2.0605,2.0605,2.0605,2.0605,2.0605,2.0605,2.0605,0.0,0.0,0.0,0.0,0.0,0.0,0.0,0.0,0.0,0.0,0.0,0.0,0.0,0.0,0.0,0.0,0.0,0.0,0.0,0.0,0.0,0.0,0.0,0.0,0.0,0.0,0.0,0.0,0.0,0.0,1.7716,1.7906,1.8008,1.8008,1.8008,1.8008,1.8008,1.707,1.6149,1.5199,1.4027,1.3455,1.347,1.3114,1.2969,1.2969,1.2969,1.3038,1.3153,1.3407,1.3553,1.3633,1.3975,1.4088,1.4088,1.4088,1.4079,1.4082,1.4082,1.524,1.7074,1.9106,1.7974,1.6102,1.7575,1.7929,1.7929,1.8466,1.8738,1.8688,1.8024,1.7636,1.7131,1.6062,1.6622,1.7365,1.7365,1.818,1.8626,1.787,1.9633,2.1293,2.1293,2.3264,2.5126,2.6058,2.6348,2.6099,2.4957,2.5147,2.4806,2.3276,2.3116,2.3087,2.3087,2.3084,2.2494,2.1116,2.104,2.1012,2.1012,2.09,2.089,2.1017,2.0762,2.0586,2.0605,2.0605,2.0605,2.0605,2.0605,2.0605,0.0,0.0,0.0,0.0,0.0,0.0,0.0,0.0,0.0,0.0,0.0,0.0,0.0,0.0,0.0,0.0,0.0,0.0,0.0,0.0,0.0,0.0,0.0,0.0,0.0,0.0,0.0,0.0,0.0,0.0,1.6775,1.7579,1.8008,1.8008,1.8008,1.8008,1.8008,1.707,1.6149,1.5163,1.3339,1.2482,1.2519,1.3251,1.3594,1.3594,1.3594,1.3303,1.2871,1.314,1.3373,1.3633,1.3975,1.4088,1.4088,1.4088,1.411,1.4097,1.4097,1.4302,1.4744,1.5962,1.5449,1.4648,1.6015,1.5958,1.5497,1.5707,1.6023,1.6292,1.6163,1.6109,1.6015,1.5825,1.592,1.6062,1.6062,1.6197,1.6567,1.7498,1.9633,2.1293,2.1293,2.3264,2.483,2.4999,2.5891,2.6099,2.4957,2.5147,2.4806,2.3276,2.3096,2.312,2.312,2.3084,2.3003,2.2774,2.2758,2.2774,2.2774,2.2099,2.205,2.2757,2.1348,2.0592,2.0605,2.0605,2.0605,2.0605,2.0605,2.0605,1.3149,0.0,0.0,0.0,0.0,0.0,0.0,0.0,0.0,0.0,0.0,0.0,0.0,0.0,0.0,0.0,0.0,0.0,0.0,0.0,0.0,0.0,0.0,0.0,0.0,0.0,0.0,0.0,0.0,1.5226,1.5799,1.6715,1.7217,1.7217,1.7725,1.8008,1.8008,1.707,1.586,1.435,1.2952,1.2592,1.3098,1.3528,1.3419,1.2952,1.3455,1.335,1.2811,1.308,1.334,1.3633,1.3975,1.4088,1.4088,1.4088,1.4088,1.4088,1.4088,1.4084,1.4316,1.5553,1.515,1.4371,1.5688,1.5573,1.5017,1.5055,1.5444,1.5784,1.5784,1.5784,1.5784,1.5784,1.5784,1.5784,1.5784,1.5784,1.6204,1.7451,1.9085,2.0531,2.1159,2.2717,2.3844,2.3844,2.4264,2.4392,2.392,2.4013,2.3861,2.3178,2.3091,2.3091,2.3091,2.3095,2.3103,2.3103,2.3094,2.311,2.311,2.2765,2.2533,2.2411,2.1209,2.0716,2.0937,2.0723,2.0605,2.0605,2.0605,2.0605,0.0,0.0,0.0,0.0,0.0,0.0,0.0,0.0,0.0,0.0,0.0,0.0,0.0,0.0,0.0,0.0,0.0,0.0,0.0,0.0,0.0,0.0,0.0,0.0,0.0,0.0,0.0,0.0,0.0,1.4027,1.4772,1.572,1.6245,1.6245,1.6932,1.7295,1.7295,1.6324,1.5155,1.3709,1.2732,1.2659,1.3346,1.36,1.3208,1.2342,1.3273,1.33,1.2703,1.3053,1.334,1.3533,1.3941,1.4088,1.4088,1.4088,1.4088,1.4088,1.4088,1.4088,1.425,1.5305,1.4971,1.4318,1.5476,1.5425,1.5037,1.5147,1.5504,1.5784,1.5784,1.5784,1.5784,1.5784,1.5784,1.5784,1.5784,1.5784,1.6062,1.7037,1.8226,1.9451,2.0612,2.1854,2.2775,2.3047,2.3091,2.3091,2.3091,2.3091,2.3091,2.3091,2.3091,2.3091,2.3091,2.3091,2.3091,2.3091,2.3091,2.3091,2.3091,2.3091,2.2829,2.2226,2.1352,2.0974,2.1041,2.0849,2.0713,2.0605,2.0605,2.0605,0.0,0.0,0.0,0.0,0.0,0.0,0.0,0.0,0.0,0.0,0.0,0.0,0.0,0.0,0.0,0.0,0.0,0.0,0.0,0.0,0.0,0.0,0.0,0.0,0.0,0.0,0.0,0.0,0.0,1.3709,1.3781,1.4736,1.5269,1.5269,1.5305,1.534,1.534,1.4343,1.381,1.3709,1.2732,1.2342,1.2409,1.3273,1.3208,1.2342,1.3273,1.3178,1.2371,1.2966,1.322,1.3293,1.3861,1.4088,1.4088,1.4088,1.4088,1.4088,1.4088,1.4088,1.413,1.4173,1.4173,1.4238,1.4851,1.504,1.5129,1.5598,1.5771,1.5784,1.5784,1.5784,1.5784,1.5784,1.5784,1.5784,1.5784,1.5784,1.5825,1.5872,1.6943,1.8187,1.9405,2.0576,2.18,2.2916,2.3091,2.3091,2.3091,2.3091,2.3091,2.3091,2.3091,2.3091,2.3091,2.3091,2.3091,2.3091,2.3091,2.3091,2.3091,2.3091,2.3081,2.3052,2.2226,2.1447,2.0614,2.1002,2.0986,2.0605,2.0605,2.0605,0.0,0.0,0.0,0.0,0.0,0.0,0.0,0.0,0.0,0.0,0.0,0.0,0.0,0.0,0.0,0.0,0.0,0.0,0.0,0.0,0.0,0.0,0.0,0.0,0.0,0.0,0.0,0.0,0.0,0.0,1.2221,1.3347,1.3987,1.3987,1.4765,1.4879,1.4243,1.389,1.3382,1.2806,1.2445,1.2305,1.2305,1.2666,1.2629,1.2335,1.2666,1.2739,1.2656,1.3039,1.332,1.3487,1.3928,1.4088,1.4088,1.4088,1.4088,1.4088,1.4088,1.4088,1.4088,1.4088,1.4215,1.4436,1.4888,1.5142,1.5324,1.5718,1.5784,1.5784,1.5784,1.5784,1.5784,1.5784,1.5784,1.5784,1.5784,1.5784,1.5784,1.5784,1.681,1.8095,1.9314,2.0486,2.1712,2.2906,2.3091,2.3091,2.3091,2.3091,2.3091,2.3091,2.3091,2.3091,2.3091,2.3091,2.3091,2.3091,2.3091,2.3091,2.3091,2.3091,2.3091,2.3091,2.2829,2.2522,2.2225,2.125,2.0735,2.0582,2.0582,2.0585,0.9184,0.0,0.0,0.0,0.0,0.0,0.0,0.0,0.0,0.0,0.0,0.0,0.0,0.0,0.0,0.0,0.0,0.0,0.0,0.0,0.0,0.0,0.0,0.0,0.0,0.0,0.0,0.0,0.0,0.0,1.1389,1.2192,1.2696,1.2839,1.3638,1.3805,1.3244,1.3237,1.2915,1.2305,1.2305,1.2305,1.2305,1.2305,1.2305,1.2305,1.2305,1.2412,1.267,1.3039,1.328,1.3493,1.3935,1.4088,1.4088,1.4088,1.4088,1.4088,1.4088,1.4088,1.4088,1.4088,1.4282,1.4576,1.4921,1.5209,1.5458,1.5698,1.5784,1.5784,1.5784,1.5784,1.5784,1.5784,1.5784,1.5784,1.5784,1.5784,1.5784,1.5784,1.648,1.7451,1.868,1.9534,2.0567,2.2092,2.2268,2.2507,2.3047,2.3091,2.3091,2.3091,2.3091,2.3091,2.3091,2.3091,2.3091,2.3091,2.3091,2.3091,2.3091,2.3091,2.3091,2.3091,2.3091,2.3081,2.308,2.1851,2.1113,2.0874,2.0874,2.0784,0.0,0.0,0.0,0.0,0.0,0.0,0.0,0.0,0.0,0.0,0.0,0.0,0.0,0.0,0.0,0.0,0.0,0.0,0.0,0.0,0.0,0.0,0.0,0.0,0.0,0.0,0.0,0.0,0.0,1.1403,1.1369,1.1375,1.155,1.1879,1.1893,1.1997,1.2285,1.2285,1.2291,1.2305,1.2305,1.2305,1.2305,1.2305,1.2305,1.2305,1.2305,1.2305,1.2351,1.2946,1.32,1.3267,1.3848,1.4082,1.4088,1.4088,1.4088,1.4088,1.4088,1.4088,1.4088,1.4088,1.4289,1.4589,1.4921,1.517,1.5471,1.5752,1.5784,1.5784,1.5784,1.5784,1.5784,1.5784,1.5784,1.5784,1.5784,1.5784,1.5784,1.5784,1.5784,1.6204,1.7505,1.7692,1.8388,2.0418,2.073,2.1309,2.2896,2.3091,2.3091,2.3091,2.3091,2.3091,2.3091,2.3091,2.3091,2.3091,2.3091,2.3091,2.3091,2.3091,2.3091,2.3091,2.3091,2.3091,2.3091,2.2734,2.2149,2.1457,2.1447,2.1125,0.8428,0.0,0.0,0.0,0.0,0.0,0.0,0.0,0.0,0.0,0.0,0.0,0.0,0.0,0.0,0.0,0.0,0.0,0.0,0.0,0.0,0.0,0.0,0.0,0.0,0.0,0.0,0.0,1.2144,1.145,1.0866,1.1002,1.1243,1.1543,1.155,1.169,1.202,1.2027,1.2091,1.2305,1.2305,1.2305,1.2305,1.2305,1.2305,1.2305,1.2305,1.2305,1.2331,1.2757,1.3006,1.3247,1.358,1.3901,1.4088,1.4088,1.4088,1.4088,1.4088,1.4088,1.4088,1.4088,1.4429,1.4901,1.4981,1.5311,1.5678,1.5758,1.5784,1.5784,1.5784,1.5784,1.5784,1.5784,1.5784,1.5784,1.5784,1.5784,1.5784,1.5784,1.5784,1.6305,1.7837,1.79,1.8388,2.0418,2.1687,2.2618,2.3023,2.3091,2.3091,2.3091,2.3091,2.3091,2.3091,2.3091,2.3091,2.3091,2.3091,2.3091,2.3091,2.3091,2.3091,2.3091,2.3091,2.3091,2.3091,2.2984,2.2816,2.2614,2.2031,2.1542,0.9463,0.0,0.0,0.0,0.0,0.0,0.0,1.3541,0.0,0.0,0.0,0.0,0.0,0.0,0.0,0.0,0.0,0.0,0.0,0.0,0.0,0.0,0.0,0.0,0.0,0.0,0.0,1.404,1.261,1.1437,1.0656,1.0754,1.0949,1.1236,1.1243,1.139,1.1683,1.1839,1.1993,1.2124,1.2245,1.2305,1.2305,1.2305,1.2305,1.2305,1.2305,1.2305,1.2348,1.2926,1.3196,1.324,1.3493,1.378,1.4088,1.4088,1.4088,1.4088,1.4088,1.4088,1.4088,1.4088,1.4402,1.4803,1.4975,1.5284,1.5671,1.5751,1.5784,1.5784,1.5784,1.5784,1.5784,1.5784,1.5784,1.5784,1.5784,1.5784,1.5784,1.5784,1.5784,1.6116,1.708,1.7059,1.7331,1.8462,2.0352,2.1966,2.2979,2.3091,2.3091,2.3091,2.3091,2.3091,2.3091,2.3091,2.3091,2.3091,2.3091,2.3091,2.3091,2.3091,2.3091,2.3091,2.3091,2.3091,2.3091,2.3091,2.309,2.311,2.2623,2.2139,1.081,1.1331,0.0,0.0,0.0,0.0,1.4104,1.3797,0.0,0.0,0.0,0.0,0.0,0.0,0.0,0.0,0.0,0.0,0.0,0.0,0.0,0.0,0.0,0.0,0.0,1.6325,1.5426,1.5303,1.3223,1.1624,1.0902,1.0776,1.0835,1.1092,1.1106,1.1182,1.1342,1.1775,1.1979,1.1906,1.2164,1.2305,1.2305,1.2305,1.2305,1.2305,1.2305,1.2305,1.2372,1.331,1.3588,1.3385,1.3608,1.3953,1.425,1.413,1.4088,1.413,1.425,1.4292,1.4292,1.4412,1.466,1.4911,1.5263,1.5475,1.559,1.5745,1.5784,1.5784,1.5784,1.5784,1.5784,1.5784,1.5784,1.5784,1.5784,1.5784,1.5784,1.5784,1.5784,1.5825,1.5805,1.5798,1.5812,1.5807,1.7697,2.0039,2.2765,2.3091,2.3091,2.3091,2.3091,2.3091,2.3091,2.3091,2.3091,2.3091,2.3091,2.3091,2.3091,2.3091,2.3091,2.3091,2.3091,2.3091,2.3091,2.3091,2.3091,2.3091,2.311,2.2703,1.2671,1.2864,1.2931,1.2609,0.0,0.0,0.0,1.2416,0.0,0.0,0.0,0.0,0.0,0.0,0.0,0.0,0.0,0.0,0.0,0.0,0.0,0.0,0.0,0.0,0.0,1.7017,1.6176,1.536,1.3721,1.2704,1.2551,1.1934,1.1591,1.165,1.165,1.1461,1.1076,1.2041,1.2324,1.1906,1.2164,1.2305,1.2305,1.2305,1.2305,1.2305,1.2305,1.2305,1.2372,1.331,1.4022,1.4467,1.4416,1.4787,1.5296,1.4412,1.4088,1.4208,1.5095,1.5379,1.5538,1.6404,1.6887,1.7236,1.762,1.7262,1.656,1.5974,1.5784,1.5784,1.5784,1.5784,1.5784,1.5784,1.5784,1.5784,1.5784,1.5784,1.5784,1.5784,1.5784,1.5785,1.5785,1.5812,1.5816,1.5788,1.623,1.8131,2.2513,2.3091,2.3091,2.3091,2.3091,2.3091,2.3091,2.3091,2.3091,2.3091,2.3091,2.3091,2.3091,2.3091,2.3091,2.3091,2.3091,2.3091,2.3091,2.3091,2.3091,2.3091,2.312,2.3027,1.3741,1.3901,1.4036,1.3766,0.0,0.0,0.0,0.0,0.0,0.0,0.0,0.0,0.0,0.0,0.0,0.0,0.0,0.0,0.0,0.0,0.0,0.0,0.0,0.0,0.0,1.7374,1.6378,1.5008,1.3909,1.3207,1.3,1.2604,1.2389,1.2389,1.2389,1.2072,1.1422,1.2094,1.2188,1.165,1.1944,1.2164,1.2305,1.2305,1.2305,1.2305,1.2305,1.2305,1.2409,1.3846,1.4793,1.5237,1.4773,1.4952,1.5283,1.4441,1.4088,1.425,1.5338,1.5696,1.5861,1.6968,1.7417,1.7672,1.825,1.8041,1.7637,1.7641,1.765,1.7529,1.7142,1.6407,1.5784,1.5784,1.5784,1.5784,1.5784,1.6779,1.7638,1.7638,1.7643,1.7238,1.6011,1.7802,1.9446,1.946,1.7369,1.7561,2.2494,2.3091,2.3091,2.3091,2.3091,2.3091,2.3091,2.3091,2.3091,2.3091,2.3091,2.3091,2.3091,2.3091,2.3091,2.3091,2.3091,2.3091,2.3091,2.3091,2.3091,2.3091,2.3091,2.3091,0.0,0.0,0.0,0.0,0.0,1.3692,0.0,0.0,0.0,0.0,0.0,0.0,0.0,0.0,0.0,0.0,0.0,0.0,0.0,0.0,0.0,0.0,0.0,0.0,0.0,1.7375,1.6289,1.4713,1.4053,1.36,1.3357,1.3202,1.3146,1.3213,1.3213,1.2848,1.205,1.2467,1.2324,1.1662,1.1969,1.2197,1.2305,1.2305,1.2305,1.2305,1.2305,1.2305,1.2445,1.4199,1.522,1.5634,1.5087,1.5076,1.5295,1.4421,1.425,1.4573,1.5628,1.615,1.6511,1.7577,1.7991,1.8138,1.8557,1.8743,1.8896,1.9563,1.9491,1.9164,1.866,1.7167,1.5785,1.5825,1.5784,1.5879,1.6218,1.7866,1.9447,2.007,2.0171,1.9542,1.7558,2.0463,2.309,2.3102,1.973,1.8628,2.26,2.3091,2.3091,2.3091,2.3091,2.3091,2.3091,2.3091,2.3091,2.3091,2.3091,2.3091,2.3091,2.3091,2.3091,2.3091,2.3091,2.3091,2.3091,2.3091,2.3091,2.3091,2.3091,2.3091,0.0,0.0,0.0,0.0,1.516,0.0,0.0,0.0,0.0,0.0,0.0,0.0,0.0,0.0,0.0,0.0,0.0,0.0,0.0,0.0,0.0,0.0,0.0,0.0,0.0,0.0,1.6008,1.5112,1.4476,1.4264,1.458,1.3928,1.3707,1.4046,1.4055,1.3666,1.2879,1.3893,1.3791,1.2552,1.2833,1.2728,1.2305,1.2305,1.2305,1.2305,1.2305,1.2305,1.2372,1.3455,1.4402,1.5323,1.5702,1.6104,1.6309,1.4698,1.4692,1.5662,1.6764,1.7779,1.8789,1.9874,2.0465,2.0657,1.9994,2.0109,2.0457,2.0555,1.9521,1.8601,1.9227,1.7598,1.5779,1.5792,1.5784,1.6218,1.7712,1.8248,1.9273,2.2153,2.2715,2.2617,2.2311,2.2744,2.3092,2.3081,2.2629,2.245,2.3038,2.3091,2.3091,2.3091,2.3091,2.3091,2.3091,2.3091,2.3091,2.3091,2.3091,2.3091,2.3091,2.3091,2.3091,2.3091,2.3091,2.3091,2.3091,2.3091,2.3091,2.3091,2.3091,2.3091,0.0,0.0,0.0,0.0,0.0,0.0,0.0,0.0,1.3534,0.0,0.0,0.0,0.0,0.0,0.0,0.0,0.0,0.0,0.0,0.0,0.0,0.0,0.0,0.0,0.0,0.0,0.0,0.0,0.0,1.4018,1.4365,1.4333,1.4374,1.4544,1.478,1.451,1.3696,1.4164,1.4118,1.3502,1.3085,1.2937,1.3098,1.2556,1.2305,1.2305,1.2305,1.2305,1.2372,1.331,1.4271,1.5273,1.5873,1.6204,1.6254,1.6038,1.5827,1.5944,1.7698,1.8598,1.9195,2.0245,2.1075,2.1559,2.1208,2.1584,2.2108,2.2078,2.1598,2.1176,2.1481,1.8726,1.5778,1.5806,1.5799,1.6265,1.7953,1.9046,2.0146,2.1771,2.2621,2.3115,2.3115,2.3115,2.312,2.311,2.3091,2.3091,2.3091,2.3091,2.3091,2.3091,2.3091,2.3091,2.3091,2.3091,2.3091,2.3091,2.3091,2.3091,2.3091,2.3091,2.3091,2.3091,2.3091,2.3091,2.3091,2.3091,2.3091,2.3091,2.3091,2.3091,1.6032,0.0,0.0,0.0,0.0,0.0,0.0,0.0,0.0,0.0,0.0,0.0,0.0,0.0,0.0,0.0,0.0,0.0,0.0,0.0,0.0,0.0,0.0,0.0,0.0,0.0,0.0,0.0,0.0,0.0,1.3916,1.4375,1.4658,1.4813,1.5195,1.5108,1.454,1.454,1.4425,1.4267,1.3678,1.3477,1.3546,1.3237,1.2945,1.2703,1.2981,1.3091,1.3164,1.3846,1.47,1.5655,1.6365,1.6577,1.6518,1.6742,1.6764,1.6797,1.8101,1.8917,1.9559,2.0362,2.1084,2.1728,2.1846,2.234,2.2892,2.3062,2.3086,2.3098,2.3111,2.0436,1.7451,1.6121,1.5819,1.627,1.7926,1.9409,2.067,2.1596,2.2492,2.3091,2.3091,2.3091,2.3091,2.3091,2.3091,2.3091,2.3091,2.3091,2.3091,2.3091,2.3091,2.3091,2.3091,2.3091,2.3091,2.3091,2.3091,2.3091,2.3091,2.3091,2.3091,2.3091,2.3091,2.3091,2.3091,2.3091,2.3091,2.3091,2.3091,2.3091,0.0,0.0,0.0,1.5198,0.0,0.0,0.0,0.0,1.4091,0.0,0.0,0.0,0.0,0.0,0.0,0.0,0.0,0.0,0.0,0.0,0.0,0.0,0.0,0.0,0.0,0.0,0.0,0.0,0.0,0.0,1.3508,1.3899,1.4319,1.4803,1.5195,1.5381,1.5352,1.5352,1.512,1.4702,1.5046,1.448,1.3149,1.4513,1.4593,1.3709,1.4665,1.5128,1.5128,1.5128,1.5728,1.6648,1.7496,1.7775,1.749,1.6219,1.7082,1.8758,1.7706,1.8749,2.0557,2.0605,2.0879,2.1298,2.1758,2.2084,2.244,2.2974,2.3101,2.3115,2.3117,2.2977,2.1679,1.6948,1.5807,1.6274,1.792,1.897,2.0223,2.2589,2.3047,2.3091,2.3091,2.3091,2.3091,2.3091,2.3091,2.3091,2.3091,2.3091,2.3091,2.3091,2.3091,2.3091,2.3091,2.3091,2.3091,2.3091,2.3091,2.3091,2.3091,2.3091,2.3091,2.3091,2.3091,2.3091,2.3091,2.3091,2.3091,2.3091,2.3091,2.3091,0.0,0.0,1.7804,1.6333,0.0,0.0,0.0,0.0,0.0,0.0,0.0,0.0,0.0,0.0,0.0,0.0,0.0,0.0,0.0,0.0,0.0,0.0,0.0,0.0,0.0,0.0,0.0,0.0,1.3382,0.0,0.0,1.3695,1.389,1.4309,1.4775,1.5383,1.6122,1.5633,1.5704,1.6337,1.564,1.5191,1.4968,1.513,1.5021,1.47,1.5057,1.5199,1.5199,1.5199,1.5918,1.7063,1.7642,1.8397,1.9156,1.8985,1.8988,1.9045,1.9353,1.9952,2.0605,2.0605,2.1064,2.1639,2.1613,2.2155,2.2853,2.3052,2.3091,2.311,2.3101,2.3104,2.2697,2.1024,2.0614,2.0772,2.1329,2.1715,2.2138,2.2945,2.3091,2.3091,2.3091,2.3091,2.3091,2.3091,2.3091,2.3091,2.3091,2.3091,2.3091,2.3091,2.3091,2.3091,2.3091,2.3091,2.3091,2.3091,2.3091,2.3091,2.3091,2.3091,2.3091,2.3091,2.3091,2.3091,2.3091,2.3091,2.3091,2.3091,2.3091,2.3091,1.7677,1.8191,0.0,1.7149,1.6823,0.0,1.4997,0.0,0.0,0.0,0.0,0.0,0.0,0.0,0.0,0.0,0.0,0.0,0.0,0.0,0.0,0.0,0.0,0.0,0.0,0.0,1.3704,1.4248,1.3306,0.0,0.0,0.0,1.3795,1.4473,1.4941,1.5745,1.6894,1.6415,1.6428,1.6942,1.6439,1.5997,1.5716,1.6049,1.6018,1.572,1.6053,1.6193,1.6193,1.6193,1.6694,1.7534,1.8164,1.8927,1.9718,1.9956,1.9599,1.9155,2.0245,2.0605,2.0635,2.0752,2.1299,2.1863,2.1774,2.2368,2.3091,2.3091,2.3091,2.3091,2.3091,2.312,2.3104,2.3104,2.2645,2.2378,2.299,2.2774,2.2583,2.3033,2.3091,2.3091,2.3091,2.3091,2.3091,2.3091,2.3091,2.3091,2.3091,2.3091,2.3091,2.3091,2.3091,2.3091,2.3091,2.3091,2.3091,2.3091,2.3091,2.3091,2.3091,2.3091,2.3091,2.3091,2.3091,2.3091,2.3091,2.3091,2.312,2.3089,2.3086,2.312]}]]